[[{"header":{"parameterUnit":"m.s-1","parameterCategory":1,"la1":30.6,"la2":29.2853,"lo1":-89.7004,"lo2":-87.6739,"dy":0.0162,"dx":0.0183,"nx":112,"ny":82,"refTime":"2024-07-30T18:00:00:Z","depth":0,"parameterNumber":2,"parameterNumberName":"U-component_of_WINDS"},"data":[0.0,0.0,0.0,0.0,0.0,0.0,0.0,0.0,0.0,0.0,0.0,0.0,0.0,0.0,0.0,0.0,0.0,0.0,0.0,0.0,0.0,0.0,0.0,0.0,0.0,0.0,0.0,0.0,0.0,0.0,0.0,0.0,0.0,0.0,0.0,0.0,0.0,0.0,0.0,0.0,0.0,0.0,0.0,0.0,0.0,0.0,0.0,0.0,0.0,0.0,0.0,0.0,0.0,0.0,0.0,0.0,0.0,0.0,0.0,0.0,0.0,0.0,0.0,0.0,0.0,0.0,0.0,0.0,0.0,0.0,0.0,0.0,0.0,0.0,0.0,0.0,0.0,0.0,0.0,0.0,0.0,0.0,0.0,0.0,0.0,0.0,0.0,0.0,0.0,0.0,0.0,-0.4194,-0.2786,-0.1361,-0.013,-0.0,-0.0,-0.0,0.0,0.0,0.0,0.0,0.0,0.0,0.0,0.0,0.0,0.0,0.0,0.0,0.0,0.0,0.0,0.0,0.0,0.0,0.0,0.0,0.0,0.0,0.0,0.0,0.0,0.0,0.0,0.0,0.0,0.0,0.0,0.0,0.0,0.0,0.0,0.0,0.0,0.0,0.0,0.0,0.0,0.0,0.0,0.0,0.0,0.0,0.0,0.0,0.0,0.0,0.0,0.0,0.0,0.0,0.0,0.0,0.0,0.0,0.0,0.0,0.0,0.0,0.0,0.0,0.0,0.0,0.0,0.0,0.0,0.0,0.0,0.0,0.0,0.0,0.0,0.0,0.0,0.0,0.0,0.0,0.0,0.0,0.0,0.0,0.0,0.0,0.0,0.0,0.0,0.0,0.0,0.0,0.0,0.0,0.0,0.0,0.0,0.0,0.0,0.0,0.0,0.0,0.0,0.0,-0.3497,-0.4336,-0.1993,-0.0268,-0.0,-0.0,-0.0,-0.0,0.0,0.0,0.0,0.0,0.0,0.0,0.0,0.0,0.0,0.0,0.0,0.0,0.0,0.0,0.0,0.0,0.0,0.0,0.0,0.0,0.0,0.0,0.0,0.0,0.0,0.0,0.0,0.0,0.0,0.0,0.0,0.0,0.0,0.0,0.0,0.0,0.0,0.0,0.0,0.0,0.0,0.0,0.0,0.0,0.0,0.0,0.0,0.0,0.0,0.0,0.0,0.0,0.0,0.0,0.0,0.0,0.0,0.0,0.0,0.0,0.0,0.0,0.0,0.0,0.0,0.0,0.0,0.0,0.0,0.0,0.0,0.0,0.0,0.0,0.0,0.0,0.0,0.0,0.0,0.0,0.0,0.0,0.0,0.0,0.0,0.0,0.0,0.0,0.0,0.0,0.0,0.0,0.0,0.0,0.0,0.0,0.0,0.0,0.0,0.0,0.0,0.0,0.0,-0.2364,-0.3114,-0.4342,-0.3586,-0.2155,-0.0135,-0.0,-0.0,-0.0,-0.0,0.0,0.0,0.0,0.0,0.0,0.0,0.0,0.0,0.0,0.0,0.0,0.0,0.0,0.0,0.0,0.0,0.0,0.0,0.0,0.0,0.0,0.0,0.0,0.0,0.0,0.0,0.0,0.0,0.0,0.0,0.0,0.0,0.0,0.0,0.0,0.0,0.0,0.0,0.0,0.0,0.0,0.0,0.0,0.0,0.0,0.0,0.0,0.0,0.0,0.0,0.0,0.0,0.0,0.0,0.0,0.0,0.0,0.0,0.0,0.0,0.0,0.0,0.0,0.0,0.0,0.0,0.0,0.0,0.0,0.0,0.0,0.0,0.0,0.0,0.0,0.0,0.0,0.0,0.0,0.0,0.0,0.0,0.0,0.0,0.0,0.0,0.0,0.0,0.0,0.0,0.0,0.0,0.0,0.0,0.0,0.0,0.0,0.0,0.0,0.0,0.0,0.0,-0.2098,-0.2158,-0.332,-0.3848,-0.3025,-0.0267,-0.0,-0.0,-0.0,-0.0,0.0,0.0,0.0,0.0,0.0,0.0,0.0,0.0,0.0,0.0,0.0,0.0,0.0,0.0,0.0,0.0,0.0,0.0,0.0,0.0,0.0,0.0,0.0,0.0,0.0,0.0,0.0,0.0,0.0,0.0,0.0,0.0,0.0,0.0,0.0,0.0,0.0,0.0,0.0,0.0,0.0,0.0,0.0,0.0,0.0,0.0,0.0,0.0,0.0,0.0,0.0,0.0,0.0,0.0,0.0,0.0,0.0,0.0,0.0,0.0,0.0,0.0,0.0,0.0,0.0,0.0,0.0,0.0,0.0,0.0,0.0,0.0,0.0,0.0,0.0,0.0,0.0,0.0,0.0,0.0,0.0,0.0,0.0,0.0,0.0,0.0,0.0,0.0,0.0,0.0,0.0,0.0,0.0,0.0,0.0,0.0,0.0,0.0,0.0,0.0,0.0,0.0,-0.191,-0.0184,-0.0307,-0.0325,-0.0267,-0.0,-0.0,-0.0,-0.0,-0.0,0.0,0.0,0.0,0.0,0.0,0.0,0.0,0.0,0.0,0.0,0.0,0.0,0.0,0.0,0.0,0.0,0.0,0.0,0.0,0.0,0.0,0.0,0.0,0.0,0.0,0.0,0.0,0.0,0.0,0.0,0.0,0.0,0.0,0.0,0.0,0.0,0.0,0.0,0.0,0.0,0.0,0.0,0.0,0.0,0.0,0.0,0.0,0.0,0.0,0.0,0.0,0.0,0.0,0.0,0.0,0.0,0.0,0.0,0.0,0.0,0.0,0.0,0.0,0.0,0.0,0.0,0.0,0.0,0.0,0.0,0.0,0.0,0.0,0.0,0.0,0.0,0.0,0.0,0.0,0.0,0.0,0.0,0.0,0.0,0.0,0.0,0.0,0.0,0.0,0.0,0.0,0.0,0.0,0.0,0.0,0.0,0.0,0.0,0.0,0.0,0.0,0.0,-0.3644,-0.2712,0.0,-0.0648,-0.0,-0.0,-0.0,-0.0,-0.0,0.0,0.0,0.0,0.0,0.0,0.0,0.0,0.0,0.0,0.0,0.0,0.0,0.0,0.0,0.0,0.0,0.0,0.0,0.0,0.0,0.0,0.0,0.0,0.0,0.0,0.0,0.0,0.0,0.0,0.0,0.0,0.0,0.0,0.0,0.0,0.0,0.0,0.0,0.0,0.0,0.0,0.0,0.0,0.0,0.0,0.0,0.0,0.0,0.0,0.0,0.0,0.0,0.0,0.0,0.0,0.0,0.0,0.0,0.0,0.0,0.0,0.0,0.0,0.0,0.0,0.0,0.0,0.0,0.0,0.0,0.0,0.0,0.0,0.0,0.0,0.0,0.0,0.0,0.0,0.0,0.0,0.0,0.0,0.0,0.0,0.0,0.0,0.0,0.0,0.0,0.0,0.0,0.0,0.0,0.0,0.0,0.0,0.0,0.0,0.0,0.0,0.0,-0.4451,-0.4696,-0.4536,0.0,-0.2397,-0.1255,-0.0127,-0.0,-0.0,-0.0,0.0,0.0,0.0,0.0,0.0,0.0,0.0,0.0,0.0,0.0,0.0,0.0,0.0,0.0,0.0,0.0,0.0,0.0,0.0,0.0,0.0,0.0,0.0,0.0,0.0,0.0,0.0,0.0,0.0,0.0,0.0,0.0,0.0,0.0,0.0,0.0,0.0,0.0,0.0,0.0,0.0,0.0,0.0,0.0,0.0,0.0,0.0,0.0,0.0,0.0,0.0,0.0,0.0,0.0,0.0,0.0,0.0,0.0,0.0,0.0,0.0,0.0,0.0,0.0,0.0,0.0,0.0,0.0,0.0,0.0,0.0,0.0,0.0,0.0,0.0,0.0,0.0,0.0,0.0,0.0,0.0,0.0,0.0,0.0,0.0,0.0,0.0,0.0,0.0,0.0,0.0,0.0,0.0,0.0,0.0,0.0,0.0,0.0,0.0,0.0,0.0,0.0,-0.4292,-0.4664,-0.4874,-0.5064,-0.5277,-0.3944,-0.0371,-0.0058,-0.0,0.0,0.0,0.0,0.0,0.0,0.0,0.0,0.0,0.0,0.0,0.0,0.0,0.0,0.0,0.0,0.0,0.0,0.0,0.0,0.0,0.0,0.0,0.0,0.0,0.0,0.0,0.0,0.0,0.0,0.0,0.0,0.0,0.0,0.0,0.0,0.0,0.0,0.0,0.0,0.0,0.0,0.0,0.0,0.0,0.0,0.0,0.0,0.0,0.0,0.0,0.0,0.0,0.0,0.0,0.0,0.0,0.0,0.0,0.0,0.0,0.0,0.0,0.0,0.0,0.0,0.0,0.0,0.0,0.0,0.0,0.0,0.0,0.0,0.0,0.0,0.0,0.0,0.0,0.0,0.0,0.0,0.0,0.0,0.0,0.0,0.0,0.0,0.0,0.0,0.0,0.0,0.0,0.0,0.0,0.0,0.0,0.0,0.0,0.0,0.0,0.0,0.0,0.0,-0.4119,-0.4608,-0.49,-0.5064,-0.526,-0.4928,-0.3712,-0.2357,-0.1109,-0.0045,0.0,0.0,0.0,0.0,0.0,0.0,0.0,0.0,0.0,0.0,0.0,0.0,0.0,0.0,0.0,0.0,0.0,0.0,0.0,0.0,0.0,0.0,0.0,0.0,0.0,0.0,0.0,0.0,0.0,0.0,0.0,0.0,0.0,0.0,0.0,0.0,0.0,0.0,0.0,0.0,0.0,0.0,0.0,0.0,0.0,0.0,0.0,0.0,0.0,0.0,0.0,0.0,0.0,0.0,0.0,0.0,0.0,0.0,0.0,0.0,0.0,0.0,0.0,0.0,0.0,0.0,0.0,0.0,0.0,0.0,0.0,0.0,0.0,0.0,0.0,0.0,0.0,0.0,0.0,0.0,0.0,0.0,0.0,0.0,0.0,0.0,0.0,0.0,0.0,0.0,0.0,0.0,0.0,0.0,0.0,0.0,0.0,0.0,0.0,0.0,0.0,0.0,-0.4087,-0.4629,-0.4972,-0.5114,-0.5281,-0.5325,-0.5088,-0.4005,-0.2797,-0.1675,0.0,0.0,0.0,0.0,0.0,0.0,0.0,0.0,0.0,0.0,0.0,0.0,0.0,0.0,0.0,0.0,0.0,0.0,0.0,0.0,0.0,0.0,0.0,0.0,0.0,0.0,0.0,0.0,0.0,0.0,0.0,0.0,0.0,0.0,0.0,0.0,0.0,0.0,0.0,0.0,0.0,0.0,0.0,0.0,0.0,0.0,0.0,0.0,0.0,0.0,0.0,0.0,0.0,0.0,0.0,0.0,0.0,0.0,0.0,0.0,0.0,0.0,0.0,0.0,0.0,0.0,0.0,0.0,0.0,0.0,0.0,0.0,0.0,0.0,0.0,0.0,0.0,0.0,0.0,0.0,0.0,0.0,0.0,0.0,0.0,0.0,0.0,0.0,0.0,0.0,0.0,0.0,0.0,0.0,0.0,0.0,0.0,0.0,0.0,0.0,0.0,0.0,-0.4127,-0.4591,-0.4979,-0.5135,-0.5287,-0.5322,-0.5088,-0.5009,-0.4697,-0.4097,0.0,0.0,0.0,0.0,0.0,0.0,0.0,0.0,0.0,0.0,0.0,0.0,0.0,0.0,0.0,0.0,0.0,0.0,0.0,0.0,0.0,0.0,0.0,0.0,0.0,0.0,0.0,0.0,0.0,0.0,0.0,0.0,0.0,0.0,0.0,0.0,0.0,0.0,0.0,0.0,0.0,0.0,0.0,0.0,0.0,0.0,0.0,0.0,0.0,0.0,0.0,0.0,0.0,0.0,0.0,0.0,0.0,0.0,0.0,0.0,-0.0,0.0,0.0,0.0,0.0,0.0,0.0,0.0,0.0,0.0,0.0,0.0,0.0,0.0,0.0,0.0,0.0,0.0,0.0,0.0,0.0,0.0,0.0,0.0,0.0,0.0,0.0,0.0,0.0,0.0,0.0,0.0,0.0,0.0,0.0,0.0,0.0,0.0,0.0,0.0,0.0,0.0,-0.4171,-0.4602,-0.502,-0.5284,-0.5345,-0.5315,-0.5088,-0.5064,-0.4857,-0.4422,-0.3876,0.0,0.0,0.0,0.0,0.0,0.0,0.0,0.0,0.0,0.0,0.0,0.0,0.0,0.0,0.0,0.0,0.0,0.0,0.0,0.0,0.0,0.0,0.0,0.0,0.0,0.0,0.0,0.0,0.0,0.0,0.0,0.0,0.0,0.0,0.0,0.0,0.0,0.0,0.0,0.0,0.0,0.0,0.0,0.0,0.0,0.0,0.0,0.0,0.0,0.0,0.0,0.0,0.0,0.0,0.0,0.0,0.0,0.0,0.0,0.0,-0.0,0.0,0.0,0.0,0.0,0.0,0.0,0.0,0.0,0.0,0.0,0.0,0.0,0.0,0.0,0.0,0.0,0.0,0.0,0.0,0.0,0.0,0.0,0.0,0.0,0.0,0.0,0.0,0.0,0.0,0.0,0.0,0.0,0.0,0.0,0.0,0.0,0.0,0.0,0.0,0.0,-0.4256,-0.4684,-0.5033,-0.5394,-0.5432,-0.5343,-0.5116,-0.5034,-0.4803,-0.4506,-0.4034,0.0,0.0,0.0,0.0,0.0,0.0,0.0,0.0,0.0,0.0,0.0,0.0,0.0,0.0,0.0,0.0,0.0,0.0,0.0,0.0,0.0,0.0,0.0,0.0,0.0,0.0,0.0,0.0,0.0,0.0,0.0,0.0,0.0,0.0,0.0,0.0,0.0,0.0,0.0,0.0,0.0,0.0,0.0,0.0,0.0,0.0,0.0,0.0,0.0,0.0,0.0,0.0,0.0,-0.0,-0.0,-0.0,-0.0,-0.0,-0.0,-0.0,-0.0,-0.0,-0.0,0.0,0.0,0.0,0.0,0.0,0.0,0.0,0.0,0.0,0.0,0.0,0.0,0.0,0.0,0.0,0.0,0.0,0.0,0.0,0.0,0.0,0.0,0.0,0.0,-0.5143,-0.468,-0.3156,0.0,0.0,0.0,0.0,0.0,0.0,0.0,0.0,0.0,0.0,0.0,-0.4412,-0.4769,-0.506,-0.5397,-0.5369,-0.5311,-0.5148,-0.4951,-0.4753,-0.4524,-0.3699,-0.3208,0.0,0.0,0.0,0.0,0.0,0.0,0.0,0.0,0.0,0.0,0.0,0.0,0.0,0.0,0.0,0.0,0.0,0.0,0.0,0.0,0.0,0.0,0.0,0.0,0.0,0.0,0.0,0.0,0.0,0.0,0.0,0.0,-0.0,-0.0,0.0,0.0,0.0,0.0,0.0,0.0,0.0,0.0,0.0,0.0,0.0,0.0,0.0,-0.0,-0.0,-0.0,-0.0,-0.0,-0.0,-0.0,-0.0,-0.0,-0.0,-0.0,-0.0,0.0,-0.0,-0.0,0.0,0.0,0.0,0.0,0.0,0.0,0.0,0.0,0.0,0.0,0.0,0.0,0.0,0.0,0.0,0.0,0.0,0.0,0.0,0.0,0.0,0.0,-0.3364,-0.3752,-0.4005,-0.429,0.0,-0.5111,-0.4931,-0.4546,-0.4092,0.0,0.0,0.0,0.0,0.0,0.0,0.0,-0.4596,-0.4918,-0.5169,-0.5411,-0.5428,-0.5373,-0.5357,-0.5147,-0.4927,-0.4523,-0.4348,-0.4275,-0.4285,-0.417,0.0,0.0,0.0,0.0,0.0,0.0,0.0,0.0,0.0,0.0,0.0,0.0,0.0,0.0,0.0,0.0,0.0,0.0,0.0,0.0,0.0,0.0,0.0,0.0,0.0,0.0,0.0,0.0,0.0,-0.0,-0.0,-0.0,-0.0,-0.0,0.0,0.0,0.0,0.0,0.0,0.0,0.0,0.0,0.0,-0.0,-0.0,-0.0,-0.0,-0.0,-0.0,-0.0,-0.0,-0.0,-0.0,-0.0,-0.0,-0.0,-0.0,-0.0,-0.0,-0.0,-0.0,-0.0,0.0,0.0,0.0,0.0,-0.0,-0.0,-0.0,-0.0,-0.0,-0.0,0.0,0.0,0.0,0.0,0.0,0.0,0.0,0.0,0.0,0.0,-0.3521,-0.3622,-0.454,-0.5595,-0.6177,-0.6071,-0.5745,0.0,-0.478,-0.4478,-0.404,0.0,0.0,0.0,0.0,-0.4433,-0.488,-0.505,-0.5189,-0.5411,-0.5428,-0.5404,-0.5408,-0.5198,-0.4986,-0.472,-0.4626,-0.4581,-0.4494,-0.4372,-0.4215,0.0,0.0,0.0,0.0,0.0,0.0,0.0,0.0,0.0,0.0,0.0,0.0,0.0,0.0,0.0,0.0,0.0,0.0,0.0,0.0,0.0,0.0,0.0,0.0,0.0,0.0,0.0,0.0,-0.0,-0.0,-0.0,-0.0,-0.0,0.0,0.0,0.0,0.0,0.0,0.0,-0.0,-0.0,-0.0,-0.0,-0.0,-0.0,-0.0,-0.0,-0.0,-0.0,-0.0,-0.0,-0.0,-0.0,-0.0,-0.0,-0.0,-0.0,-0.0,-0.0,-0.0,-0.0,-0.0,-0.0,-0.0,-0.0,-0.0,-0.0,-0.0,-0.0,-0.0,-0.0,-0.0859,-0.157,-0.0348,0.0,0.0,0.0,0.0,-0.4146,-0.6469,-0.5901,-0.47,-0.4446,-0.5594,-0.6703,-0.6729,-0.6542,-0.6183,0.0,-0.5301,-0.5094,-0.4616,0.0,0.0,0.0,0.0,-0.487,-0.5206,-0.5277,-0.5332,-0.5413,-0.542,-0.5403,-0.5432,-0.522,-0.507,-0.4928,-0.4775,-0.4623,-0.4525,-0.4362,-0.4323,-0.4363,0.0,0.0,0.0,0.0,0.0,0.0,0.0,0.0,0.0,0.0,0.0,0.0,0.0,0.0,0.0,0.0,0.0,0.0,0.0,0.0,0.0,0.0,0.0,0.0,0.0,0.0,0.0,0.0,0.0,-0.0,-0.0,0.0,0.0,0.0,0.0,-0.0,-0.0,-0.0,-0.0,-0.0,-0.0,-0.0,-0.0,-0.0,-0.0,-0.0,-0.0,-0.0,-0.0,-0.0,-0.0,-0.0,-0.0,-0.0,-0.0,-0.0,-0.0,-0.0,-0.0,-0.0,-0.0,-0.0,-0.0,-0.0,-0.0,-0.0,-0.0,-0.0,-0.0,-0.0,-0.308,-0.5909,-0.1343,-0.1603,0.0,0.0,-0.5246,-0.4151,-0.6518,-0.7039,-0.6857,-0.6675,-0.6757,-0.6806,-0.6736,-0.6692,-0.6542,0.0,-0.5759,-0.5511,-0.5335,0.0,-0.537,-0.537,-0.5437,-0.5542,-0.5562,-0.5684,-0.5718,-0.5593,-0.5579,-0.5518,-0.5439,-0.522,-0.507,-0.4928,-0.4775,-0.4623,-0.4525,-0.4512,-0.4364,-0.4016,-0.3714,0.0,0.0,0.0,0.0,0.0,0.0,0.0,0.0,0.0,0.0,0.0,0.0,0.0,0.0,0.0,0.0,0.0,0.0,0.0,0.0,0.0,0.0,0.0,0.0,0.0,0.0,0.0,0.0,-0.0,-0.0,0.0,-0.0,-0.0,-0.0,-0.0,-0.0,-0.0,-0.0,-0.0,-0.0,-0.0,-0.0,-0.0,-0.0,-0.0,-0.0,-0.0,-0.0,-0.0,-0.0,-0.0,-0.0,-0.0,-0.0,-0.0,-0.0,-0.0,-0.0,-0.0,-0.0,-0.0,-0.0,-0.0,-0.0,-0.0,-0.0,-0.0,-0.056,-0.3994,-0.6324,-0.7354,-0.5459,-0.4381,-0.4319,-0.6747,-0.6854,-0.6403,-0.7068,-0.7334,-0.7207,-0.7007,-0.6984,-0.6967,-0.6997,-0.6912,-0.68,-0.6641,-0.6291,-0.5973,-0.582,-0.5708,-0.5613,-0.5521,-0.5633,-0.5725,-0.5725,-0.5769,-0.5783,-0.5732,-0.5644,-0.5566,-0.5511,-0.5274,-0.507,-0.4928,-0.4775,-0.4623,-0.4525,-0.4519,-0.4467,-0.4307,-0.4012,-0.3639,0.0,0.0,0.0,0.0,0.0,0.0,0.0,0.0,0.0,0.0,0.0,0.0,0.0,0.0,0.0,0.0,0.0,0.0,0.0,0.0,0.0,0.0,0.0,0.0,0.0,0.0,-0.0,-0.0,-0.0,-0.0,-0.0,-0.0,-0.0,-0.0,-0.0,-0.0,-0.0,-0.0,-0.0,-0.0,-0.0,-0.0,-0.0,-0.0,-0.0,-0.0,-0.0,-0.0,-0.0,-0.0,-0.0,-0.0,-0.0,-0.0,-0.0,-0.0,-0.0,-0.0,-0.0,-0.0,-0.0,-0.0,-0.0,-0.0292,-0.2041,-0.2722,-0.3102,-0.581,-0.7208,-0.7851,-0.7773,-0.6563,-0.5586,-0.7201,-0.7646,-0.759,-0.7495,-0.7421,-0.7346,-0.7244,-0.7177,-0.7139,-0.7139,-0.7065,-0.7,-0.7,-0.6681,-0.6376,-0.6274,-0.6129,-0.5996,-0.5901,-0.5928,-0.5956,-0.5956,-0.5956,-0.5935,-0.5884,-0.5793,-0.5698,-0.5599,-0.5355,-0.5145,-0.4999,-0.4802,-0.4646,-0.4545,-0.4546,-0.4519,-0.4519,-0.4172,-0.3826,-0.3471,0.0,0.0,0.0,0.0,0.0,0.0,0.0,0.0,0.0,0.0,0.0,0.0,0.0,0.0,0.0,0.0,0.0,0.0,0.0,0.0,0.0,0.0,0.0,-0.0,-0.0,-0.0,-0.0,-0.0,-0.0,-0.0,-0.0,-0.0,-0.0,-0.0,-0.0,-0.0,-0.0,-0.0,-0.0,-0.0,-0.0,-0.0,-0.0,-0.0,-0.0,-0.0,-0.0,-0.0,-0.0,-0.0,-0.0,-0.0,-0.0,-0.0,-0.0,-0.0,-0.0,-0.0,-0.0,-0.0,-0.0,-0.0,-0.0707,-0.5972,-0.7821,-0.7588,-0.4933,-0.5779,-0.7734,-0.7903,-0.7837,-0.7617,-0.7725,-0.7624,-0.7611,-0.7607,-0.7495,-0.7383,-0.738,-0.7258,-0.7146,-0.7146,-0.7143,-0.7139,-0.7139,-0.6909,-0.6712,-0.6709,-0.658,-0.6478,-0.6478,-0.6359,0.0,-0.6268,-0.6264,-0.6203,-0.6054,-0.6034,-0.5911,-0.5623,-0.5454,-0.5294,-0.5135,-0.485,-0.4691,-0.4691,-0.4548,-0.4525,-0.4525,-0.4178,-0.388,-0.3588,0.0,0.0,0.0,0.0,0.0,0.0,0.0,0.0,0.0,0.0,0.0,0.0,0.0,0.0,0.0,0.0,0.0,0.0,0.0,0.0,0.0,0.0,-0.0,-0.0,-0.0,-0.0,-0.0,-0.0,-0.0,-0.0,-0.0,-0.0,-0.0,-0.0,-0.0,-0.0,-0.0,-0.0,-0.0,-0.0,-0.0,-0.0,-0.0,-0.0,-0.0,-0.0,-0.0,-0.0,-0.0,-0.0,-0.0,-0.0,-0.0,-0.0,-0.0,-0.0,-0.0,-0.0,-0.0,-0.0,-0.0,-0.0,-0.0202,-0.1716,-0.4758,-0.7834,-0.7156,-0.7341,-0.7939,-0.798,-0.7953,-0.794,-0.7926,-0.7923,-0.7892,-0.778,-0.7723,-0.7665,-0.756,-0.7421,-0.7309,-0.7309,-0.7221,-0.7139,-0.7139,-0.7075,-0.6987,-0.6881,-0.6739,-0.6637,-0.6637,-0.6512,0.0,-0.6413,-0.6325,-0.6244,-0.6203,-0.6098,-0.5952,-0.5759,-0.5508,-0.525,-0.4992,-0.4796,-0.4691,-0.4691,-0.465,-0.4626,-0.4626,-0.4338,-0.4036,0.0,0.0,0.0,0.0,0.0,0.0,0.0,0.0,0.0,0.0,0.0,0.0,0.0,0.0,0.0,0.0,0.0,0.0,0.0,0.0,0.0,0.0,-0.0,-0.0,-0.0,-0.0,-0.0,-0.0,-0.0,-0.0,-0.0,-0.0,-0.0,-0.0,-0.0,-0.0,-0.0,-0.0,-0.0,-0.0,-0.0,-0.0,-0.0,-0.0,-0.0,-0.0,-0.0,-0.0,-0.0,-0.0,-0.0,-0.0,-0.0,-0.0,-0.0,-0.0,-0.0,0.0,0.0,0.0,0.0,0.0,-0.0,-0.0,-0.0,-0.2018,-0.4855,-0.6469,-0.6871,-0.7071,-0.7762,-0.7959,-0.7955,-0.8041,-0.8038,-0.8018,-0.7929,-0.7858,-0.779,-0.7706,-0.7577,-0.7448,-0.7387,-0.7299,-0.7217,-0.7153,-0.7139,0.0,-0.7031,-0.6895,-0.6797,-0.6797,-0.661,-0.6471,-0.6471,-0.6349,-0.6338,-0.6338,-0.6179,-0.6064,-0.5911,-0.5627,0.0,0.0,0.0,-0.4785,-0.4785,-0.4785,0.0,0.0,0.0,0.0,0.0,0.0,0.0,0.0,-0.4172,-0.4193,0.0,0.0,0.0,0.0,0.0,0.0,0.0,0.0,0.0,0.0,0.0,0.0,0.0,0.0,0.0,0.0,-0.0,-0.0,-0.0,-0.0,-0.0,-0.0,-0.0,-0.0,-0.0,-0.0,-0.0,-0.0,-0.0,-0.0,-0.0,0.0,0.0,0.0,0.0,-0.0,-0.0,-0.0,-0.0,-0.0,-0.0,-0.0,-0.0,-0.0,-0.0,-0.0,-0.0,-0.0,-0.0,-0.0,-0.0,-0.0,-0.0,-0.0,-0.0,-0.0,-0.0,-0.0,-0.0,0.0,0.0,-0.4622,-0.5727,-0.6027,-0.7537,-0.8041,-0.8041,-0.8038,-0.8038,-0.8038,-0.8038,-0.794,-0.7838,-0.7838,-0.7729,-0.7587,-0.7451,-0.7394,-0.7329,-0.7193,-0.7153,-0.7139,-0.7139,-0.7037,-0.6953,-0.6953,-0.6709,-0.6519,-0.6502,-0.6373,-0.6278,-0.6342,0.0,0.0,-0.604,-0.5789,-0.5627,-0.5593,-0.5216,-0.4986,-0.4969,-0.4986,-0.4986,-0.4969,-0.4969,-0.4969,-0.4969,-0.4986,-0.506,-0.5169,-0.4962,-0.4872,0.0,0.0,0.0,0.0,0.0,0.0,0.0,0.0,0.0,0.0,0.0,0.0,0.0,0.0,0.0,-0.0,-0.0,-0.0,-0.0,-0.0,-0.0,-0.0,-0.0,-0.0,-0.0,-0.0,-0.0,-0.0,-0.0,-0.0,-0.0,-0.0,-0.0,-0.0,-0.0,-0.0,-0.0,-0.0,-0.0,-0.0,0.0,0.0,-0.0,-0.0,-0.0,-0.0,-0.0,-0.0,-0.0,-0.0,-0.0,-0.0,-0.0,-0.0,-0.0,-0.0,-0.0,-0.0,-0.0,-0.2825,-0.6581,-0.7293,-0.7488,-0.7572,-0.7869,-0.7965,0.0,-0.8045,-0.8038,-0.8038,-0.8038,-0.8018,-0.7994,-0.7994,-0.7879,-0.7763,-0.7733,-0.7539,-0.7363,-0.7333,-0.7224,-0.7139,-0.7139,-0.7115,-0.7099,-0.7099,-0.6953,-0.6797,-0.6671,-0.6525,-0.6386,-0.6352,-0.6338,-0.62,-0.604,-0.5976,-0.5844,-0.5606,-0.5508,-0.5406,-0.5281,-0.5393,-0.5403,-0.5277,-0.5277,-0.5277,-0.5277,-0.5399,-0.5474,-0.5494,-0.5195,-0.5205,0.0,0.0,0.0,0.0,0.0,0.0,0.0,0.0,0.0,0.0,0.0,-0.0,-0.0,0.0,-0.0,-0.0,-0.0,-0.0,-0.0,-0.0,-0.0,-0.0,-0.0,-0.0,-0.0,-0.0,-0.0,-0.0,-0.0,-0.0,-0.0,-0.0,-0.0,-0.0,-0.0,-0.0,-0.0,-0.0,-0.0,-0.0,-0.0,-0.0,-0.0,-0.0,-0.0,-0.0,-0.0,-0.0,-0.0,-0.0,-0.0,-0.0,-0.0,-0.0,-0.0,-0.0,-0.1716,-0.4041,-0.4041,-0.4847,-0.6258,-0.7588,-0.7992,-0.7979,-0.7962,-0.7955,-0.7955,-0.8041,-0.8038,-0.8038,-0.8038,-0.8038,-0.8038,-0.8038,-0.798,-0.7906,-0.7828,-0.7695,-0.7546,-0.74,-0.7309,-0.7231,-0.7153,-0.7139,-0.7139,-0.7139,-0.7021,-0.6902,-0.6824,-0.6614,-0.6444,-0.6373,-0.6302,-0.623,-0.6152,-0.6074,-0.5935,-0.5708,-0.5694,-0.5661,-0.5586,-0.5654,-0.5661,-0.5583,-0.5583,-0.5583,-0.5583,-0.5657,-0.5735,-0.5806,-0.5654,-0.5664,0.0,0.0,0.0,0.0,0.0,0.0,0.0,0.0,-0.0,-0.0,-0.0,-0.0,-0.0,-0.0,-0.0,-0.0,-0.0,-0.0,-0.0,-0.0,-0.0,-0.0,-0.0,-0.0,-0.0,-0.0,-0.0,-0.0,-0.0,-0.0,-0.0,-0.0,-0.0,-0.0,-0.0,-0.0,-0.0,-0.0,-0.0,-0.0,-0.0,-0.0,-0.0,-0.0,-0.0,-0.0,-0.0,-0.0,-0.0,-0.0,-0.0,-0.0104,-0.1125,-0.1523,-0.1522,-0.1516,-0.3939,-0.7296,-0.7811,-0.6564,-0.5125,-0.726,-0.7969,-0.7962,-0.8045,-0.8038,-0.8038,-0.8038,-0.8038,-0.8038,-0.8038,-0.8038,-0.8038,-0.8038,-0.8038,-0.8007,-0.7882,-0.7831,-0.774,-0.7502,-0.7411,-0.7333,-0.7207,-0.716,-0.7139,-0.7139,-0.7044,-0.6959,-0.6932,-0.6712,-0.6549,-0.6519,-0.6386,-0.6291,-0.6342,-0.6146,-0.602,-0.5898,-0.5891,-0.5878,-0.5847,-0.5844,-0.5844,-0.5844,-0.5844,-0.5861,-0.5891,-0.5891,-0.5956,-0.6074,-0.6074,-0.6074,-0.0,-0.0,0.0,-0.0,-0.0,-0.0,0.0,0.0,-0.0,-0.0,-0.0,-0.0,-0.0,-0.0,-0.0,-0.0,-0.0,-0.0,-0.0,-0.0,-0.0,-0.0,-0.0,-0.0,-0.0,-0.0,-0.0,-0.0,-0.0,-0.0,-0.0,-0.0,-0.0,-0.0,-0.0,-0.0,-0.0,-0.0,-0.0,-0.0,-0.0,-0.0,-0.0,-0.0,-0.0,-0.0,-0.0,-0.0,-0.0,-0.0,-0.0,-0.0425,-0.522,-0.7067,-0.7156,-0.7143,-0.5959,-0.4826,-0.7172,-0.7779,-0.7566,-0.7872,-0.7959,-0.8041,-0.8038,-0.8038,-0.8038,-0.8038,-0.8038,-0.8038,-0.8038,-0.8038,-0.8038,-0.8038,-0.8038,-0.8035,-0.8018,-0.7909,-0.7801,-0.777,-0.755,-0.7366,-0.735,-0.7231,-0.7139,-0.7139,-0.7126,-0.7071,-0.6946,-0.6898,-0.6824,-0.6688,-0.6539,-0.6396,-0.6271,-0.6244,-0.6227,-0.621,-0.621,-0.6149,-0.601,-0.6003,-0.6003,-0.6003,-0.6003,-0.6071,-0.621,-0.621,-0.6217,-0.6234,-0.6234,-0.6234,-0.0,0.0,0.0,0.0,-0.0,-0.0,-0.0,-0.0,-0.0,-0.0,-0.0,-0.0,-0.0,-0.0,-0.0,0.0,-0.0,-0.0,-0.0,-0.0,-0.0,-0.0,-0.0,-0.0,-0.0,-0.0,-0.0,-0.0,-0.0,-0.0,-0.0,-0.0,-0.0,-0.0,-0.0,-0.0,-0.0,-0.0,-0.0,-0.0,-0.0,-0.0,-0.0,-0.0,-0.0,-0.0,-0.0,-0.0,-0.0222,-0.371,-0.5206,-0.5196,-0.5732,-0.6911,-0.8193,-0.8056,-0.7275,-0.6442,-0.7569,-0.7969,-0.7952,-0.7952,-0.8048,-0.8038,-0.8038,-0.8038,-0.8038,-0.8038,-0.8038,-0.8038,-0.8038,-0.8038,-0.8038,-0.8038,-0.8038,-0.8038,-0.8038,-0.7987,-0.7919,-0.7828,-0.7712,-0.7573,-0.74,-0.7319,-0.7244,-0.7153,-0.7139,-0.7119,-0.7058,-0.698,-0.6871,-0.6715,-0.6563,-0.6447,-0.639,-0.6308,-0.6338,-0.6338,-0.6338,-0.6234,-0.6166,-0.6166,-0.6166,-0.6166,-0.6166,-0.6196,-0.6338,-0.6338,-0.6338,-0.6338,-0.6338,-0.6305,-0.0,0.0,0.0,-0.0,-0.0,-0.0,-0.0,-0.0,-0.0,-0.0,-0.0,-0.0,-0.0,-0.0,-0.0,-0.0,-0.0,-0.0,-0.0,-0.0,-0.0,-0.0,-0.0,-0.0,-0.0,-0.0,-0.0,-0.0,-0.0,-0.0,-0.0,-0.0,-0.0,-0.0,-0.0,-0.0,-0.0,-0.0,-0.0,-0.0,-0.0,-0.0,-0.0,-0.0,-0.0,-0.0,-0.0,-0.0897,-0.2688,-0.5324,-0.7413,-0.8742,-0.659,-0.6804,-0.8401,-0.8211,-0.8006,-0.7962,-0.7962,-0.7952,-0.8038,-0.8038,-0.8038,-0.8038,-0.8038,-0.8038,-0.8038,-0.8038,-0.8038,-0.8038,-0.8038,-0.8038,-0.8038,-0.8038,-0.8038,-0.8038,-0.8038,-0.8038,-0.8007,-0.7896,-0.7838,-0.7743,-0.7529,-0.7428,-0.7333,-0.7221,-0.7166,-0.7139,-0.7139,-0.7051,-0.6929,-0.678,-0.6664,-0.658,-0.6539,-0.6403,-0.6318,-0.6318,-0.6281,-0.6338,-0.6338,-0.6338,-0.6338,-0.6338,-0.6338,-0.6338,-0.6338,-0.6338,-0.6281,-0.6318,-0.6318,-0.6396,0.0,0.0,-0.0,-0.0,-0.0,-0.0,-0.0,-0.0,-0.0,-0.0,-0.0,-0.0,-0.0,-0.0,-0.0,-0.0,-0.0,-0.0,-0.0,-0.0,-0.0,-0.0,-0.0,-0.0,0.0,-0.0,-0.0,-0.0,-0.0,-0.0,-0.0,-0.0,-0.0,-0.0,-0.0,-0.0,-0.0,-0.0,-0.0,-0.0,-0.0,-0.0,-0.0,-0.0,-0.0,-0.0,-0.0,-0.3251,-0.8224,-0.2577,-0.3698,-0.889,-0.8838,-0.8771,-0.8834,-0.8391,-0.817,-0.8041,-0.8041,-0.8038,-0.8038,-0.8038,-0.8038,-0.8038,-0.8038,-0.8038,-0.8038,-0.8038,-0.8038,-0.8038,-0.8038,-0.8038,-0.8038,-0.8038,-0.8038,-0.8038,-0.8038,-0.8038,-0.8038,-0.8035,-0.7913,-0.7807,-0.7797,-0.756,-0.737,-0.7363,-0.7238,-0.7139,-0.7139,-0.7136,-0.7078,-0.6939,-0.6919,-0.6854,-0.6705,-0.6552,-0.6464,-0.6464,-0.6335,-0.6338,-0.6338,-0.6338,-0.6338,-0.6338,-0.6338,-0.6338,-0.6338,-0.6338,-0.6332,-0.6464,-0.6464,-0.6549,0.0,0.0,-0.0,-0.0,-0.0,-0.0,-0.0,-0.2726,-0.526,-0.526,-0.3794,-0.1877,-0.0296,-0.0,-0.0,-0.0,-0.0,-0.0,-0.0,-0.0,-0.0,-0.0,-0.0,0.0,0.0,0.0,0.0,-0.0,-0.0,-0.0,-0.0,-0.0,-0.0,-0.0,-0.0,-0.0,-0.0,-0.0,-0.0,-0.0,-0.0,-0.0,-0.0,-0.0,-0.0,-0.0,-0.0,-0.1121,-0.3139,-0.5052,-0.4709,-0.3242,-0.589,-0.7725,-0.8841,-0.8496,-0.8319,-0.8177,-0.8075,-0.8038,-0.8038,-0.8038,-0.8038,-0.8038,-0.8038,-0.8038,-0.8038,-0.8038,-0.8038,-0.8038,-0.8038,-0.8038,-0.8038,-0.8038,-0.8038,-0.8038,-0.8038,-0.8038,-0.8038,-0.8038,-0.7997,-0.7929,-0.7828,-0.7729,-0.7597,-0.74,-0.7241,-0.7139,-0.7139,-0.7139,-0.7122,-0.7075,-0.6987,-0.6909,-0.6858,-0.6712,-0.6624,-0.6624,-0.658,-0.6508,-0.6407,-0.6403,-0.6359,-0.6342,-0.6352,-0.6403,-0.6403,-0.6505,-0.6576,-0.6624,-0.6624,-0.6705,0.0,-0.2548,-0.2879,-0.2858,-0.2099,-0.1411,-0.1411,-0.4133,-0.6753,-0.7572,-0.6141,-0.4208,-0.2658,-0.1038,-0.0,-0.0,-0.0,-0.0,-0.0,-0.0,-0.0,-0.0,-0.0,-0.0,0.0,0.0,0.0,-0.0,-0.0,-0.0,-0.0,-0.0,-0.0,-0.0,-0.0,-0.0,-0.0,-0.0,-0.0,-0.0,-0.0,-0.0,-0.0,-0.0,-0.0,-0.0,-0.0,-0.0,-0.0336,-0.415,-0.4707,-0.3352,-0.4912,-0.6887,-0.8917,-0.8632,-0.8472,-0.8316,-0.8109,-0.8038,-0.8038,-0.8038,-0.8038,-0.8038,-0.8038,-0.8038,-0.8038,-0.8038,-0.8038,-0.8038,-0.8038,-0.8038,-0.8038,-0.8038,-0.8038,-0.8038,-0.8038,-0.8038,-0.8038,-0.8038,-0.8038,-0.8007,-0.7909,-0.7848,-0.7712,-0.7414,-0.7285,-0.7204,-0.7146,-0.7139,-0.7139,-0.7139,-0.7058,-0.7004,-0.7004,-0.6868,-0.678,-0.678,-0.6729,-0.6658,-0.6559,-0.6552,-0.6512,-0.642,-0.6508,-0.6552,-0.6556,-0.6654,-0.6729,-0.678,-0.678,-0.6861,-0.6579,-0.6923,-0.7681,-0.7955,-0.6057,-0.4218,-0.4218,-0.421,-0.4761,-0.6721,-0.6929,-0.6687,0.0,0.0,-0.0266,-0.0,-0.0,-0.0,-0.0,-0.0,-0.0,0.0,0.0,0.0,0.0,0.0,0.0,-0.0,0.0,-0.0,-0.0,-0.0,-0.0,-0.0,-0.0,-0.0,-0.0,-0.0,-0.0,-0.0,-0.0,-0.0,-0.0,-0.0,-0.0,-0.0,-0.0,-0.0,-0.0,-0.0,-0.3474,-0.8664,-0.5822,-0.649,-0.884,-0.8774,-0.8615,-0.8442,-0.815,-0.8045,-0.8038,-0.8038,-0.8038,-0.8038,-0.8038,-0.8038,-0.8038,-0.8038,-0.8038,-0.8038,-0.8038,-0.8038,-0.8038,-0.8038,-0.8038,-0.8038,-0.8038,-0.8038,-0.8038,-0.8038,-0.8038,-0.8038,-0.8038,-0.7913,-0.7716,-0.7438,-0.738,-0.7316,-0.716,-0.7139,-0.7139,-0.7139,-0.7139,-0.7139,-0.7139,-0.7017,-0.6939,-0.6939,-0.6803,-0.6719,-0.6712,-0.6712,-0.6709,-0.6702,-0.6709,-0.6712,-0.6712,-0.6719,-0.6797,-0.6939,-0.6939,-0.701,-0.6699,-0.454,-0.2994,-0.698,-0.7503,-0.698,-0.6965,-0.6706,-0.6614,-0.7028,-0.6884,-0.6723,-0.6739,0.0,0.0,-0.0534,-0.0,0.0,-0.0,-0.0,0.0,0.0,0.0,-0.0,-0.0,-0.0,0.0,0.0,-0.0,-0.0,-0.0,-0.0,-0.0,-0.0,-0.0,-0.0,-0.0,-0.0,-0.0,-0.0,-0.0,-0.0,-0.0,-0.0,-0.0,-0.0,-0.0,-0.0,-0.0,-0.0,-0.3475,-0.8795,-0.8097,-0.8196,-0.884,-0.8774,-0.8615,-0.8455,-0.8272,-0.8136,-0.8038,-0.8038,-0.8038,-0.8038,-0.8038,-0.8038,-0.8038,-0.8038,-0.8038,-0.8038,-0.8038,-0.8038,-0.8038,-0.8038,-0.8038,-0.8038,-0.8038,-0.8038,-0.8038,-0.8038,-0.8038,-0.8038,-0.8038,-0.7913,-0.7784,-0.7709,-0.7512,-0.7316,-0.716,-0.7139,-0.7139,-0.7139,-0.7139,-0.7139,-0.7139,-0.7105,-0.7085,-0.7085,-0.7051,-0.698,-0.6875,-0.6871,-0.6817,-0.6702,-0.6814,-0.6871,-0.6871,-0.6976,-0.7048,-0.7085,-0.7085,-0.7105,-0.4401,-0.2027,-0.0714,-0.3777,-0.6305,-0.7935,-0.7558,-0.7266,-0.7008,-0.6628,-0.6358,0.0,-0.6236,0.0,0.0,0.0,0.0,0.0,-0.0,-0.0,-0.0,0.0,-0.0,0.0,-0.0,-0.0,-0.0,0.0,-0.0,-0.0,-0.0,-0.0,-0.0,-0.0,-0.0,-0.0,-0.0,-0.0,-0.0,-0.0,-0.0,-0.0,-0.0,-0.0,-0.0,-0.0,0.0,-0.0,-0.0,-0.0,-0.2017,-0.5268,-0.7871,-0.8883,-0.884,-0.8774,-0.8615,-0.8462,-0.8319,-0.817,-0.8038,-0.8038,-0.8038,-0.8038,-0.8038,-0.8038,-0.8038,-0.8038,-0.8038,-0.8038,-0.8038,-0.8038,-0.8038,-0.8038,-0.8038,-0.8038,-0.8038,-0.8038,-0.8038,-0.8038,-0.8038,-0.8038,-0.8038,-0.7967,-0.7889,-0.7821,-0.7617,-0.7417,-0.7261,-0.7183,-0.7139,-0.7139,-0.7139,-0.7139,-0.7139,-0.7139,-0.7139,-0.7139,-0.7139,-0.7105,-0.7024,-0.7021,-0.6983,-0.6895,-0.6976,-0.7021,-0.7021,-0.7102,-0.7139,-0.7139,-0.7139,-0.7139,-0.1133,-0.0,-0.0,-0.0,-0.3455,-0.6807,-0.6479,-0.6584,-0.6489,-0.5882,0.0,0.0,-0.5588,0.0,-0.33,-0.5191,0.0,-0.0,-0.0,-0.0,-0.0,-0.0,-0.0,-0.0,-0.0,-0.0,-0.0,-0.0,-0.0,-0.0,-0.0,-0.0,-0.0,-0.0,-0.0,-0.0,-0.0,-0.0,-0.0,-0.0,-0.0,-0.0,-0.0,-0.0,-0.0,-0.0,-0.0,-0.0,-0.0,-0.0,-0.0,-0.0558,-0.6165,-0.8526,-0.8813,-0.8767,-0.8601,-0.8435,-0.8313,-0.817,-0.8038,-0.8038,-0.8038,-0.8038,-0.8038,-0.8038,-0.8038,-0.8038,-0.8038,-0.8038,-0.8038,-0.8038,-0.8038,-0.8038,-0.8038,-0.8038,-0.8038,-0.8038,-0.8038,-0.8038,-0.8038,-0.8038,-0.8038,-0.8038,-0.7994,-0.7862,-0.7719,-0.7573,-0.7421,-0.7248,-0.7139,-0.7139,-0.7139,-0.7139,-0.7139,-0.7139,-0.7139,-0.7139,-0.7139,-0.7139,-0.7139,-0.7139,-0.7139,-0.7139,-0.7139,-0.7139,-0.7139,-0.7139,-0.7139,-0.7139,-0.7139,-0.7139,-0.0203,-0.0,-0.0,-0.0,-0.0697,-0.1932,-0.3989,-0.5235,0.0,0.0,0.0,-0.5131,-0.4994,-0.3751,0.0,-0.1257,0.0,0.0,0.0,0.0,-0.0,0.0,0.0,0.0,0.0,0.0,0.0,0.0,0.0,-0.0,-0.0,-0.0,-0.0,-0.0,-0.0,-0.0,-0.0,-0.0,-0.0,-0.0,-0.0,-0.0,-0.0,-0.0,-0.0,-0.0,-0.0,0.0,-0.0,-0.0,-0.0,-0.0335,-0.3911,-0.6659,-0.8665,-0.873,-0.854,-0.8303,-0.8279,-0.817,-0.8038,-0.8038,-0.8038,-0.8038,-0.8038,-0.8038,-0.8038,-0.8038,-0.8038,-0.8038,-0.8038,-0.8038,-0.8038,-0.8038,-0.8038,-0.8038,-0.8038,-0.8038,-0.8038,-0.8038,-0.8038,-0.8038,-0.8038,-0.8038,-0.8031,-0.8004,-0.7872,-0.7723,-0.758,-0.7312,-0.7139,-0.7139,-0.7139,-0.7139,-0.7139,-0.7139,-0.7139,-0.7139,-0.7139,-0.7139,-0.7139,-0.7139,-0.7139,-0.7139,-0.7139,-0.7139,-0.7139,-0.7139,-0.7139,-0.7139,-0.7139,-0.7139,-0.0,-0.0,-0.0,-0.0,-0.0,-0.0377,-0.1624,0.0,0.0,0.0,0.0,-0.4762,-0.469,0.0,0.0,0.0,0.0,0.0,0.0,0.0,0.0,0.0,0.0,0.0,0.0,0.0,0.0,0.0,0.0,-0.0,-0.0,-0.0,-0.0,-0.0,-0.0,-0.0,-0.0,-0.0,-0.0,-0.0,-0.0,-0.0,-0.0,-0.0,-0.0,-0.0,-0.0,-0.0,-0.0,-0.0,-0.0,-0.0112,-0.1564,-0.4757,-0.8527,-0.8535,-0.8361,-0.8258,-0.8177,-0.8102,-0.8038,-0.8038,-0.8038,-0.8038,-0.8038,-0.8038,-0.8038,-0.8038,-0.8038,-0.8038,-0.8038,-0.8038,-0.8038,-0.8038,-0.8038,-0.8038,-0.8038,-0.8038,-0.8038,-0.8038,-0.8038,-0.8038,-0.8038,-0.8038,-0.8038,-0.8038,-0.7909,-0.776,-0.7617,-0.74,-0.7227,-0.7149,-0.7139,-0.7139,-0.7139,-0.7139,-0.7139,-0.7139,-0.7139,-0.7139,-0.7139,-0.7139,-0.7139,-0.7139,-0.7139,-0.7139,-0.7139,-0.7139,-0.7139,-0.7139,-0.7139,-0.7139,-0.0,-0.0,-0.0,-0.0,-0.0,-0.0,-0.0,-0.0,0.0,0.0,0.0,-0.3987,-0.3993,0.0,0.0,0.0,0.0,0.0,0.0,0.0,0.0,0.0,0.0,0.0,0.0,0.0,0.0,0.0,0.0,0.0,-0.0,-0.0,-0.0,-0.0,-0.0,-0.0,-0.0,-0.0,-0.0,-0.0,-0.0,-0.0,-0.0,-0.0,-0.0,-0.0,-0.0,-0.0,-0.0,-0.0,-0.0,-0.0,-0.0,-0.308,-0.7603,-0.8098,-0.8257,-0.8204,-0.8082,-0.8038,-0.8038,-0.8038,-0.8038,-0.8038,-0.8038,-0.8038,-0.8038,-0.8038,-0.8038,-0.8038,-0.8038,-0.8038,-0.8038,-0.8038,-0.8038,-0.8038,-0.8038,-0.8038,-0.8038,-0.8038,-0.8038,-0.8038,-0.8038,-0.8038,-0.8038,-0.8038,-0.7936,-0.7807,-0.7662,-0.7512,-0.736,-0.7207,-0.716,-0.7139,-0.7139,-0.7139,-0.7139,-0.7139,-0.7139,-0.7139,-0.7139,-0.7139,-0.7139,-0.7139,-0.7139,-0.7139,-0.7139,-0.7139,-0.7139,-0.7139,-0.7139,-0.7139,-0.0,-0.0,-0.0,-0.0,-0.0,-0.0,-0.0,0.0,0.0,0.0,-0.1506,-0.2399,-0.24,0.0,0.0,0.0,0.0,0.0,0.0,0.0,0.0,0.0,0.0,0.0,0.0,0.0,0.0,0.0,0.0,0.0,-0.0,-0.0,-0.0,-0.0,-0.0,-0.0,-0.0,-0.0,-0.0,-0.0,-0.0,-0.0,-0.0,-0.0,-0.0,-0.0,-0.0,-0.0,0.0,-0.0,-0.0,-0.0,-0.0,-0.1837,-0.4776,-0.7309,-0.8204,-0.8058,-0.8045,-0.8038,-0.8038,-0.8038,-0.8038,-0.8038,-0.8038,-0.8038,-0.8038,-0.8038,-0.8038,-0.8038,-0.8038,-0.8038,-0.8038,-0.8038,-0.8038,-0.8038,-0.8038,-0.8038,-0.8038,-0.8038,-0.8038,-0.8038,-0.8038,-0.8038,-0.8038,-0.8038,-0.8028,-0.7963,-0.7811,-0.7668,-0.7519,-0.7366,-0.7224,-0.7139,-0.7139,-0.7139,-0.7139,-0.7139,-0.7139,-0.7139,-0.7139,-0.7139,-0.7139,-0.7139,-0.7139,-0.7139,-0.7139,-0.7139,-0.7139,-0.7139,-0.7139,-0.7139,-0.0,-0.0,-0.0,-0.0,-0.0,-0.0,-0.0,0.0,0.0,-0.0,-0.0448,-0.0895,-0.0895,-0.1358,-0.1815,0.0,-0.0776,-0.0,0.0,0.0,0.0,0.0,0.0,0.0,0.0,0.0,0.0,0.0,0.0,0.0,-0.0,-0.0,-0.0,-0.0,-0.0,-0.0,-0.0,-0.0,-0.0,-0.0,-0.0,-0.0,-0.0,-0.0,-0.0,-0.0,-0.0,-0.0,0.0,-0.0,-0.0,-0.0,-0.0,-0.0644,-0.2086,-0.6543,-0.8099,-0.7959,-0.8045,-0.8038,-0.8038,-0.8038,-0.8038,-0.8038,-0.8038,-0.8038,-0.8038,-0.8038,-0.8038,-0.8038,-0.8038,-0.8038,-0.8038,-0.8038,-0.8038,-0.8038,-0.8038,-0.8038,-0.8038,-0.8038,-0.8038,-0.8038,-0.8038,-0.8038,-0.8038,-0.8038,-0.8038,-0.7984,-0.7831,-0.7689,-0.7543,-0.7387,-0.7234,-0.7139,-0.7139,-0.7139,-0.7139,-0.7139,-0.7139,-0.7139,-0.7139,-0.7139,-0.7139,-0.7139,-0.7139,-0.7139,-0.7139,-0.7139,-0.7139,-0.7139,-0.7139,-0.7139,-0.0,-0.0,-0.0,-0.0,-0.0,-0.0,0.0,0.0,-0.0,-0.0,-0.0,-0.0,-0.0,-0.0,-0.0,-0.0,-0.0,-0.0,-0.0,0.0,0.0,0.0,0.0,0.0,0.0,0.0,0.0,0.0,0.0,0.0,-0.0,-0.0,-0.0,-0.0,-0.0,-0.0,-0.0,-0.0,-0.0,-0.0,-0.0,-0.0,-0.0,-0.0,-0.0,-0.0,-0.0,-0.0,0.0,-0.0,-0.0,-0.0,-0.0,-0.0,-0.0413,-0.4215,-0.6628,-0.7972,-0.7955,-0.8045,-0.8038,-0.8038,-0.8038,-0.8038,-0.8038,-0.8038,-0.8038,-0.8038,-0.8038,-0.8038,-0.8038,-0.8038,-0.8038,-0.8038,-0.8038,-0.8038,-0.8038,-0.8038,-0.8038,-0.8038,-0.8038,-0.8038,-0.8038,-0.8038,-0.8038,-0.8038,-0.8038,-0.8001,-0.7892,-0.775,-0.7604,-0.7455,-0.7299,-0.719,-0.7143,-0.7139,-0.7139,-0.7139,-0.7139,-0.7139,-0.7139,-0.7139,-0.7139,-0.7139,-0.7139,-0.7139,-0.7139,-0.7139,-0.7139,-0.7139,-0.7139,-0.7139,-0.0,-0.0,-0.0,-0.0,-0.0,-0.0,0.0,-0.0,-0.0,-0.0,-0.0,-0.0,-0.0,-0.0,-0.0,-0.0,-0.0,-0.0,0.0,0.0,0.0,0.0,0.0,0.0,0.0,0.0,0.0,0.0,0.0,0.0,-0.0,-0.0,-0.0,-0.0,-0.0,-0.0,-0.0,-0.0,-0.0,-0.0,-0.0,-0.0,-0.0,-0.0,-0.0,-0.0,-0.0,-0.0,0.0,-0.0,-0.0,-0.0,-0.0,-0.0,-0.0,-0.0101,-0.3417,-0.7972,-0.7972,-0.7959,-0.8038,-0.8038,-0.8038,-0.8038,-0.8038,-0.8038,-0.8038,-0.8038,-0.8038,-0.8038,-0.8038,-0.8038,-0.8038,-0.8038,-0.8038,-0.8038,-0.8038,-0.8038,-0.8038,-0.8038,-0.8038,-0.8038,-0.8038,-0.8038,-0.8038,-0.8038,-0.8038,-0.8038,-0.8038,-0.7902,-0.7753,-0.7611,-0.7461,-0.7309,-0.7153,-0.7139,-0.7139,-0.7139,-0.7139,-0.7139,-0.7139,-0.7139,-0.7139,-0.7139,-0.7139,-0.7139,-0.7139,-0.7139,-0.7139,-0.7139,-0.7139,-0.7139,-0.0,-0.0,-0.0,-0.0,-0.0,-0.0,-0.0,-0.0,-0.0,-0.0,-0.0,-0.0,-0.0,-0.0,-0.0,-0.0,-0.0,0.0,0.0,0.0,0.0,0.0,0.0,0.0,0.0,0.0,0.0,0.0,0.0,0.0,-0.0,-0.0,-0.0,-0.0,-0.0,-0.0,-0.0,-0.0,-0.0,-0.0,-0.0,-0.0,-0.0,-0.0,-0.0,-0.0,-0.0,-0.0,-0.0,-0.0,-0.0,-0.0,-0.0,-0.0,-0.0,-0.0,-0.221,-0.5529,-0.7359,-0.7959,-0.8038,-0.8038,-0.8038,-0.8038,-0.8038,-0.8038,-0.8038,-0.8038,-0.8038,-0.8038,-0.8038,-0.8038,-0.8038,-0.8038,-0.8038,-0.8038,-0.8038,-0.8038,-0.8038,-0.8038,-0.8038,-0.8038,-0.8038,-0.8038,-0.8038,-0.8038,-0.8038,-0.8038,-0.8038,-0.7821,-0.7648,-0.7604,-0.737,-0.7193,-0.7143,-0.7139,-0.7139,-0.7139,-0.7139,-0.7139,-0.7139,-0.7139,-0.7139,-0.7139,-0.7139,-0.7139,-0.7139,-0.7139,-0.7139,-0.7139,-0.7139,-0.7139,0.0,-0.0,-0.0,-0.0,-0.0,-0.0,-0.0,-0.0,-0.0,-0.0,-0.0,-0.0,-0.0,-0.0,-0.0,-0.0,-0.0,0.0,0.0,0.0,0.0,0.0,0.0,0.0,0.0,0.0,0.0,0.0,0.0,0.0,-0.0,-0.0,-0.0,-0.0,-0.0,-0.0,-0.0,-0.0,-0.0,-0.0,-0.0,-0.0,-0.0,-0.0,-0.0,-0.0,-0.0,-0.0,0.0,-0.0,-0.0,-0.0,-0.0,-0.0,-0.0,-0.0,-0.1106,-0.3012,-0.6753,-0.7969,-0.7952,-0.8041,-0.8038,-0.8038,-0.8038,-0.8038,-0.8038,-0.8038,-0.8038,-0.8038,-0.8038,-0.8038,-0.8038,-0.8038,-0.8038,-0.8038,-0.8038,-0.8038,-0.8038,-0.8038,-0.8038,-0.8038,-0.8038,-0.8038,-0.8038,-0.8038,-0.8038,-0.8038,-0.8038,-0.7828,-0.7658,-0.7604,-0.7377,-0.7204,-0.7146,-0.7139,-0.7139,-0.7139,-0.7139,-0.7139,-0.7139,-0.7139,-0.7139,-0.7139,-0.7139,-0.7139,-0.7139,-0.7139,-0.7139,-0.7139,-0.7139,-0.7139,0.0,-0.0,-0.0,-0.0,-0.0,-0.0,-0.0,-0.0,0.0,-0.0,-0.0,-0.0,-0.0,-0.0,-0.0,-0.0,0.0,0.0,0.0,0.0,0.0,0.0,0.0,0.0,0.0,0.0,0.0,0.0,0.0,0.0,-0.0,-0.0,-0.0,-0.0,-0.0,-0.0,-0.0,-0.0,-0.0,-0.0,-0.0,-0.0,-0.0,-0.0,-0.0,0.0,-0.0,-0.0,-0.0,-0.0,-0.0,-0.0,-0.0,-0.0,-0.0,-0.0,-0.0101,-0.1006,-0.5949,-0.7879,-0.7969,-0.8045,-0.8038,-0.8038,-0.8038,-0.8038,-0.8038,-0.8038,-0.8038,-0.8038,-0.8038,-0.8038,-0.8038,-0.8038,-0.8038,-0.8038,-0.8038,-0.8038,-0.8038,-0.8038,-0.8038,-0.8038,-0.8038,-0.8038,-0.8038,-0.8038,-0.8038,-0.8035,-0.8024,-0.7889,-0.774,-0.7597,-0.7448,-0.7295,-0.7153,-0.7139,-0.7139,-0.7139,-0.7139,-0.7139,-0.7139,-0.7139,-0.7139,-0.7139,-0.7139,-0.7139,-0.7139,-0.7139,-0.7139,-0.7139,-0.7139,-0.7139,-0.0,0.0,-0.0,-0.0,-0.0,-0.0,0.0,-0.0,-0.0,0.0,0.0,-0.0,-0.0,-0.0,-0.0,0.0,0.0,0.0,0.0,0.0,0.0,0.0,0.0,0.0,0.0,0.0,0.0,0.0,0.0,-0.0,-0.0,-0.0,-0.0,-0.0,-0.0,-0.0,-0.0,-0.0,-0.0,-0.0,-0.0,-0.0,-0.0,-0.0,-0.0,-0.0,-0.0,-0.0,-0.0,-0.0,-0.0,-0.0,-0.0,-0.0,-0.0,-0.0,-0.1311,-0.3222,-0.4526,-0.6242,-0.7969,-0.8045,-0.8038,-0.8038,-0.8038,-0.8038,-0.8038,-0.8038,-0.8038,-0.8038,-0.8038,-0.8038,-0.8038,-0.8038,-0.8038,-0.8038,-0.8038,-0.8038,-0.8038,-0.8038,-0.8038,-0.8038,-0.8038,-0.8038,-0.8038,-0.8038,-0.8038,-0.7997,-0.7879,-0.774,-0.759,-0.7441,-0.7288,-0.718,-0.7143,-0.7139,-0.7139,-0.7139,-0.7139,-0.7139,-0.7139,-0.7139,-0.7139,-0.7139,-0.7139,-0.7139,-0.7139,-0.7139,-0.7139,-0.7139,-0.7139,-0.7139,-0.0,-0.0,-0.0,-0.0,-0.0,-0.0,-0.0,0.0,0.0,0.0,0.0,0.0,-0.0,0.0,0.0,0.0,0.0,0.0,0.0,0.0,0.0,0.0,0.0,0.0,0.0,0.0,0.0,0.0,0.0,-0.0,-0.0,-0.0,-0.0,-0.0,-0.0,-0.0,-0.0,-0.0,-0.0,-0.0,-0.0,-0.0,-0.0,-0.0,-0.0,-0.0,-0.0,-0.0,-0.0,-0.0,-0.0,-0.0,-0.0,-0.0,-0.0,-0.0,-0.1716,-0.4038,-0.4022,-0.5732,-0.7972,-0.7959,-0.7955,-0.7952,-0.8041,-0.8038,-0.8038,-0.8038,-0.8038,-0.8038,-0.8038,-0.8038,-0.8038,-0.8038,-0.8038,-0.8038,-0.8038,-0.8038,-0.8038,-0.8038,-0.8038,-0.8038,-0.8038,-0.8038,-0.8038,-0.8038,-0.8038,-0.8011,-0.7926,-0.7733,-0.7567,-0.7485,-0.7275,-0.7139,-0.7139,-0.7139,-0.7139,-0.7139,-0.7139,-0.7139,-0.7139,-0.7139,-0.7139,-0.7139,-0.7139,-0.7139,-0.7139,-0.7139,-0.7139,-0.7139,-0.7139,-0.7139,-0.0,-0.0,-0.0,-0.0,-0.0,-0.0,-0.0,0.0,0.0,0.0,0.0,0.0,0.0,0.0,0.0,0.0,0.0,0.0,0.0,0.0,0.0,0.0,0.0,0.0,0.0,0.0,0.0,0.0,0.0,-0.0,-0.0,-0.0,-0.0,-0.0,-0.0,-0.0,-0.0,-0.0,-0.0,-0.0,-0.0,-0.0,-0.0,-0.0,-0.0,-0.0,0.0,0.0,-0.0,-0.0,-0.0,-0.0,-0.0,-0.0,-0.0,-0.0,-0.1415,-0.3539,-0.4331,-0.5837,-0.7459,-0.7563,-0.7769,-0.7969,-0.8045,-0.8038,-0.8038,-0.8038,-0.8038,-0.8038,-0.8038,-0.8038,-0.8038,-0.8038,-0.8038,-0.8038,-0.8038,-0.8038,-0.8038,-0.8038,-0.8038,-0.8038,-0.8038,-0.8038,-0.8038,-0.8038,-0.8038,-0.8031,-0.8007,-0.7767,-0.759,-0.7567,-0.7309,-0.7139,-0.7139,-0.7139,-0.7139,-0.7139,-0.7139,-0.7139,-0.7139,-0.7139,-0.7139,-0.7139,-0.7139,-0.7139,-0.7139,-0.7139,-0.7139,-0.7139,-0.7139,-0.7139,-0.0,-0.0,-0.0,-0.0,-0.0,-0.0,0.0,0.0,0.0,0.0,0.0,0.0,0.0,0.0,0.0,0.0,0.0,0.0,0.0,0.0,0.0,0.0,0.0,0.0,0.0,0.0,0.0,0.0,0.0,-0.0,-0.0,-0.0,-0.0,-0.0,-0.0,-0.0,-0.0,-0.0,-0.0,-0.0,-0.0,-0.0,-0.0,-0.0,-0.0,-0.0,0.0,-0.0,-0.0,-0.0,-0.0,-0.0,-0.0,-0.0,-0.0,-0.0,-0.0303,-0.1313,-0.5766,-0.6158,-0.4722,-0.5525,-0.6845,-0.7969,-0.8045,-0.8038,-0.8038,-0.8038,-0.8038,-0.8038,-0.8038,-0.8038,-0.8038,-0.8038,-0.8038,-0.8038,-0.8038,-0.8038,-0.8038,-0.8038,-0.8038,-0.8038,-0.8038,-0.8038,-0.8038,-0.8038,-0.8038,-0.7991,-0.7862,-0.7702,-0.755,-0.7421,-0.7248,-0.7139,-0.7139,-0.7139,-0.7139,-0.7139,-0.7139,-0.7139,-0.7139,-0.7139,-0.7139,-0.7139,-0.7139,-0.7139,-0.7139,-0.7139,-0.7139,-0.7139,-0.7139,-0.7139,-0.0,-0.0,-0.0,-0.0,-0.0,-0.0,0.0,0.0,0.0,0.0,0.0,0.0,0.0,0.0,0.0,0.0,0.0,0.0,0.0,0.0,0.0,0.0,0.0,0.0,0.0,0.0,0.0,0.0,0.0,0.0,-0.0,-0.0,-0.0,-0.0,-0.0,-0.0,-0.0,-0.0,-0.0,-0.0,-0.0,-0.0,-0.0,-0.0,-0.0,-0.0,0.0,-0.0,-0.0,-0.0,-0.0,-0.0,-0.0,-0.0,-0.0,-0.0,-0.0,-0.0302,-0.2826,-0.4746,-0.5954,-0.4924,-0.6139,-0.7975,-0.8048,-0.8038,-0.8038,-0.8038,-0.8038,-0.8038,-0.8038,-0.8038,-0.8038,-0.8038,-0.8038,-0.8038,-0.8038,-0.8038,-0.8038,-0.8038,-0.8038,-0.8038,-0.8038,-0.8038,-0.8038,-0.8038,-0.797,-0.7889,-0.7821,-0.7614,-0.7448,-0.738,-0.7234,-0.7139,-0.7139,-0.7139,-0.7139,-0.7139,-0.7139,-0.7139,-0.7139,-0.7139,-0.7139,-0.7139,-0.7139,-0.7139,-0.7139,-0.7139,-0.7139,-0.7139,-0.7139,-0.7139,-0.0,-0.0,-0.0,-0.0,0.0,0.0,0.0,0.0,0.0,0.0,0.0,0.0,0.0,0.0,0.0,0.0,0.0,0.0,0.0,0.0,0.0,0.0,0.0,0.0,0.0,0.0,0.0,0.0,0.0,0.0,-0.0,-0.0,-0.0,-0.0,-0.0,-0.0,-0.0,-0.0,-0.0,-0.0,-0.0,-0.0,-0.0,-0.0,-0.0,-0.0,-0.0,-0.0,-0.0,-0.0,-0.0,-0.0,-0.0,-0.0,-0.0,-0.0,-0.0,-0.0,-0.0,-0.2726,-0.5766,-0.372,-0.5334,-0.7985,-0.7955,-0.8041,-0.8038,-0.8038,-0.8038,-0.8038,-0.8038,-0.8038,-0.8038,-0.8038,-0.8038,-0.8038,-0.8038,-0.8038,-0.8038,-0.8038,-0.8038,-0.8038,-0.8038,-0.8038,-0.8028,-0.7991,-0.7885,-0.7797,-0.7767,-0.7533,-0.737,-0.737,-0.7234,-0.7139,-0.7139,-0.7139,-0.7139,-0.7139,-0.7139,-0.7139,-0.7139,-0.7139,-0.7139,-0.7139,-0.7139,-0.7139,-0.7139,-0.7139,-0.7139,-0.7139,-0.7139,-0.7139,-0.0,-0.0,-0.0,-0.0,0.0,0.0,0.0,0.0,0.0,0.0,0.0,0.0,0.0,0.0,0.0,0.0,0.0,0.0,0.0,0.0,0.0,0.0,0.0,0.0,0.0,0.0,0.0,0.0,0.0,0.0,-0.0,-0.0,-0.0,-0.0,-0.0,-0.0,-0.0,-0.0,-0.0,-0.0,-0.0,-0.0,-0.0,-0.0,-0.0,-0.0,-0.0,-0.0,-0.0,-0.0,-0.0,-0.0,-0.0,-0.0,-0.0,-0.0,-0.0,-0.0,-0.0,-0.0303,-0.0505,-0.0302,-0.3822,-0.7989,-0.7975,-0.7955,-0.8038,-0.8038,-0.8038,-0.8038,-0.8038,-0.8038,-0.8038,-0.8038,-0.8038,-0.8038,-0.8038,-0.8038,-0.8038,-0.8038,-0.8038,-0.8038,-0.8038,-0.8038,-0.7991,-0.7848,-0.7818,-0.7763,-0.7631,-0.7472,-0.737,-0.737,-0.7234,-0.7139,-0.7139,-0.7139,-0.7139,-0.7139,-0.7139,-0.7139,-0.7139,-0.7139,-0.7139,-0.7139,-0.7139,-0.7139,-0.7139,-0.7139,-0.7139,-0.7139,-0.7139,-0.7139,-0.0,-0.0,-0.0,-0.0,0.0,0.0,0.0,0.0,0.0,0.0,0.0,0.0,0.0,0.0,0.0,0.0,0.0,0.0,0.0,0.0,0.0,0.0,0.0,0.0,0.0,0.0,0.0,0.0,0.0,0.0,-0.0,-0.0,-0.0,-0.0,-0.0,-0.0,-0.0,-0.0,-0.0,-0.0,-0.0,-0.0,-0.0,-0.0,-0.0,-0.0,-0.0,-0.0,-0.0,-0.0,-0.0,-0.0,-0.0,-0.0,-0.0,-0.0,-0.0,-0.0,-0.0,-0.0,-0.0,-0.0,-0.2512,-0.5837,-0.7463,-0.7959,-0.8038,-0.8038,-0.8038,-0.8038,-0.8038,-0.8038,-0.8038,-0.8038,-0.8038,-0.8038,-0.8038,-0.8038,-0.8038,-0.8038,-0.8038,-0.8038,-0.8038,-0.8038,-0.7987,-0.7834,-0.7736,-0.7628,-0.7478,-0.7322,-0.7227,-0.7227,-0.7177,-0.7139,-0.7139,-0.7139,-0.7139,-0.7139,-0.7139,-0.7139,-0.7139,-0.7139,-0.7139,-0.7139,-0.7139,-0.7139,-0.7139,-0.7139,-0.7139,-0.7139,-0.7139,-0.7139,-0.0,-0.0,-0.0,0.0,0.0,0.0,0.0,0.0,0.0,0.0,0.0,0.0,0.0,0.0,0.0,0.0,0.0,0.0,0.0,0.0,0.0,0.0,0.0,0.0,0.0,0.0,0.0,0.0,0.0,0.0,-0.0,-0.0,-0.0,-0.0,-0.0,-0.0,-0.0,-0.0,-0.0,-0.0,-0.0,-0.0,-0.0,-0.0,-0.0,-0.0,-0.0,-0.0,-0.0,-0.0,-0.0,-0.0,-0.0,-0.0,-0.0,-0.0,-0.0,-0.0,-0.0,-0.0,-0.0,-0.0,-0.1207,-0.3414,-0.6956,-0.7965,-0.8048,-0.8041,-0.8038,-0.8038,-0.8038,-0.8038,-0.8038,-0.8038,-0.8038,-0.8038,-0.8038,-0.8038,-0.8038,-0.8038,-0.8038,-0.8038,-0.8038,-0.7997,-0.7916,-0.7767,-0.7621,-0.7472,-0.7319,-0.7207,-0.7139,-0.7139,-0.7139,-0.7139,-0.7139,-0.7139,-0.7139,-0.7139,-0.7139,-0.7139,-0.7139,-0.7139,-0.7139,-0.7139,-0.7139,-0.7139,-0.7139,-0.7139,-0.7139,-0.7139,-0.7139,-0.7139,-0.0,-0.0,0.0,0.0,0.0,0.0,0.0,0.0,0.0,0.0,0.0,0.0,0.0,0.0,0.0,0.0,0.0,0.0,0.0,0.0,0.0,0.0,0.0,0.0,0.0,0.0,0.0,0.0,0.0,0.0,-0.0,-0.0,-0.0,-0.0,-0.0,-0.0,-0.0,-0.0,-0.0,-0.0,-0.0,-0.0,-0.0,-0.0,-0.0,-0.0,-0.0,-0.0,-0.0,-0.0,-0.0,-0.0,-0.0,-0.0,-0.0,-0.0,-0.0,-0.0,-0.0,-0.0,-0.0,-0.0,-0.0,-0.1006,-0.6353,-0.7982,-0.7969,-0.8045,-0.8038,-0.8038,-0.8038,-0.8038,-0.8038,-0.8038,-0.8038,-0.8038,-0.8038,-0.8038,-0.8038,-0.8038,-0.8038,-0.8038,-0.8038,-0.7913,-0.7763,-0.7621,-0.7468,-0.7316,-0.716,-0.7139,-0.7139,-0.7139,-0.7139,-0.7139,-0.7139,-0.7139,-0.7139,-0.7139,-0.7139,-0.7139,-0.7139,-0.7139,-0.7139,-0.7139,-0.7139,-0.7139,-0.7139,-0.7139,-0.7139,-0.7139,-0.7139,-0.7139,-0.0,0.0,0.0,0.0,0.0,0.0,0.0,0.0,0.0,0.0,0.0,0.0,0.0,0.0,0.0,0.0,0.0,0.0,0.0,0.0,0.0,0.0,0.0,0.0,0.0,0.0,0.0,0.0,0.0,-0.0,-0.0,-0.0,-0.0,-0.0,-0.0,-0.0,-0.0,-0.0,-0.0,-0.0,-0.0,-0.0,-0.0,-0.0,-0.0,-0.0,-0.0,-0.0,-0.0,-0.0,-0.0,-0.0,-0.0,-0.0,-0.0,-0.0,-0.0,-0.0,-0.0,-0.0,-0.0,-0.0,-0.0,-0.0302,-0.191,-0.5033,-0.7982,-0.7975,-0.7969,-0.7962,-0.7962,-0.7952,-0.8038,-0.8038,-0.8038,-0.8038,-0.8038,-0.8038,-0.8038,-0.8038,-0.8038,-0.8038,-0.8038,-0.7913,-0.7763,-0.7621,-0.7468,-0.7316,-0.716,-0.7139,-0.7139,-0.7139,-0.7139,-0.7139,-0.7139,-0.7139,-0.7139,-0.7139,-0.7139,-0.7139,-0.7139,-0.7139,-0.7139,-0.7139,-0.7139,-0.7139,-0.7139,-0.7139,-0.7139,-0.7139,-0.7139,-0.7139,-0.0,0.0,0.0,0.0,0.0,0.0,0.0,0.0,0.0,0.0,0.0,0.0,0.0,0.0,0.0,0.0,0.0,0.0,0.0,0.0,0.0,0.0,0.0,0.0,0.0,0.0,0.0,0.0,-0.0,-0.0,-0.0,-0.0,-0.0,-0.0,-0.0,-0.0,-0.0,-0.0,-0.0,-0.0,-0.0,-0.0,-0.0,-0.0,-0.0,-0.0,-0.0,-0.0,-0.0,-0.0,-0.0,-0.0,-0.0,-0.0,-0.0,-0.0,-0.0,-0.0,-0.0,-0.0,-0.0,-0.0,-0.0,-0.0,-0.0,-0.2211,-0.5035,-0.6145,-0.6445,-0.6648,-0.7772,-0.7969,-0.7955,-0.8041,-0.8038,-0.8038,-0.8038,-0.8038,-0.8038,-0.8038,-0.8038,-0.8038,-0.8038,-0.7865,-0.7699,-0.7611,-0.7417,-0.7244,-0.7153,-0.7139,-0.7139,-0.7139,-0.7139,-0.7139,-0.7139,-0.7139,-0.7139,-0.7139,-0.7139,-0.7139,-0.7139,-0.7139,-0.7139,-0.7139,-0.7139,-0.7139,-0.7139,-0.7139,-0.7139,-0.7139,-0.7139,-0.7139,0.0,0.0,0.0,0.0,0.0,0.0,0.0,0.0,0.0,0.0,0.0,0.0,0.0,0.0,0.0,0.0,0.0,0.0,0.0,0.0,0.0,0.0,0.0,0.0,0.0,0.0,0.0,0.0,-0.0,-0.0,-0.0,-0.0,-0.0,-0.0,-0.0,-0.0,-0.0,-0.0,-0.0,-0.0,-0.0,-0.0,-0.0,-0.0,-0.0,-0.0,-0.0,-0.0,-0.0,-0.0,-0.0,-0.0,-0.0,-0.0,-0.0,-0.0,-0.0,-0.0,-0.0,-0.0,-0.0,-0.0,-0.0,-0.0,-0.0,-0.0,-0.0503,-0.2913,-0.3615,-0.432,-0.7272,-0.7785,-0.7672,-0.7643,-0.7839,-0.8045,-0.8045,-0.8041,-0.8041,-0.8041,-0.8028,-0.8018,-0.8018,-0.7773,-0.7573,-0.756,-0.7319,-0.7139,-0.7139,-0.7139,-0.7139,-0.7139,-0.7139,-0.7139,-0.7139,-0.7139,-0.7139,-0.7139,-0.7139,-0.7139,-0.7139,-0.7139,-0.7139,-0.7139,-0.7139,-0.7139,-0.7139,-0.7139,-0.7139,-0.7139,-0.7139,-0.7139,0.0,0.0,0.0,0.0,0.0,0.0,0.0,0.0,0.0,0.0,0.0,0.0,0.0,0.0,0.0,0.0,0.0,0.0,0.0,0.0,0.0,0.0,0.0,0.0,0.0,0.0,0.0,-0.0,-0.0,-0.0,-0.0,-0.0,-0.0,-0.0,-0.0,-0.0,-0.0,-0.0,-0.0,-0.0,-0.0,-0.0,-0.0,-0.0,-0.0,-0.0,-0.0,-0.0,-0.0,-0.0,-0.0,-0.0,-0.0,-0.0,-0.0,-0.0,-0.0,-0.0,-0.0,-0.0,-0.0,-0.0,-0.0,-0.0,-0.0,-0.0,-0.0101,-0.0706,-0.0906,-0.2011,-0.6782,-0.6461,-0.4824,-0.482,-0.6442,-0.7979,-0.7979,-0.7972,-0.7965,-0.7965,-0.7953,-0.7862,-0.7862,-0.7614,-0.738,-0.7258,-0.7183,-0.7139,-0.7139,-0.7139,-0.7139,-0.7139,-0.7139,-0.7139,-0.7139,-0.7139,-0.7139,-0.7139,-0.7139,-0.7139,-0.7139,-0.7139,-0.7139,-0.7139,-0.7139,-0.7139,-0.7139,-0.7139,-0.7139,-0.7139,-0.7139,-0.7139,0.0,0.0,0.0,0.0,0.0,0.0,0.0,0.0,0.0,0.0,0.0,0.0,0.0,0.0,0.0,0.0,0.0,0.0,0.0,0.0,0.0,0.0,0.0,0.0,0.0,0.0,0.0,-0.0,-0.0,-0.0,-0.0,-0.0,-0.0,-0.0,-0.0,-0.0,-0.0,-0.0,-0.0,-0.0,-0.0,-0.0,-0.0,-0.0,-0.0,-0.0,-0.0,-0.0,-0.0,-0.0,-0.0,-0.0,-0.0,-0.0,-0.0,-0.0,-0.0,-0.0,-0.0,-0.0,-0.0,-0.0,-0.0,-0.0,-0.0,-0.0,-0.0,-0.0,-0.0,-0.0605,-0.3433,-0.5048,-0.5548,-0.4336,-0.5037,-0.6044,-0.6044,-0.6445,-0.693,-0.7677,-0.7781,-0.779,-0.7723,-0.7519,-0.7319,-0.7163,-0.7139,-0.7139,-0.7139,-0.7139,-0.7139,-0.7139,-0.7139,-0.7139,-0.7139,-0.7139,-0.7139,-0.7139,-0.7139,-0.7139,-0.7139,-0.7139,-0.7139,-0.7139,-0.7139,-0.7139,-0.7139,-0.7139,-0.7139,-0.7139,-0.7139,-0.7139,0.0,0.0,0.0,0.0,0.0,0.0,0.0,0.0,0.0,0.0,0.0,0.0,0.0,0.0,0.0,0.0,0.0,0.0,0.0,0.0,0.0,0.0,0.0,0.0,0.0,0.0,-0.0,-0.0,-0.0,-0.0,-0.0,-0.0,-0.0,-0.0,-0.0,-0.0,-0.0,-0.0,-0.0,-0.0,-0.0,-0.0,-0.0,-0.0,-0.0,-0.0,-0.0,-0.0,-0.0,-0.0,-0.0,-0.0,-0.0,-0.0,-0.0,-0.0,-0.0,-0.0,-0.0,-0.0,-0.0,-0.0,-0.0,-0.0,-0.0,-0.0,-0.0,-0.0,-0.0707,-0.1414,-0.1414,-0.4343,-0.6888,-0.5061,-0.4334,-0.4117,-0.4624,-0.5313,-0.6174,-0.7469,-0.7687,-0.7689,-0.7546,-0.7414,-0.7288,-0.716,-0.7139,-0.7139,-0.7139,-0.7139,-0.7139,-0.7139,-0.7139,-0.7139,-0.7139,-0.7139,-0.7139,-0.7139,-0.7139,-0.7139,-0.7139,-0.7139,-0.7139,-0.7139,-0.7139,-0.7139,-0.7139,-0.7139,-0.7139,-0.7139,-0.7139,-0.7139,0.0,0.0,0.0,0.0,0.0,0.0,0.0,0.0,0.0,0.0,0.0,0.0,0.0,0.0,0.0,0.0,0.0,0.0,0.0,0.0,0.0,0.0,0.0,0.0,0.0,0.0,-0.0,-0.0,-0.0,-0.0,-0.0,-0.0,-0.0,-0.0,-0.0,-0.0,-0.0,-0.0,-0.0,-0.0,-0.0,-0.0,-0.0,-0.0,-0.0,-0.0,-0.0,-0.0,-0.0,-0.0,-0.0,-0.0,-0.0,-0.0,-0.0,-0.0,-0.0,-0.0,-0.0,-0.0,-0.0,-0.0,-0.0,-0.0,-0.0,-0.0,-0.0,-0.0,-0.3334,-0.6894,-0.6894,-0.5754,-0.5031,-0.6971,-0.5741,-0.4626,-0.6986,-0.7384,-0.7469,-0.765,-0.7527,-0.738,-0.7227,-0.7183,-0.7163,-0.7143,-0.7139,-0.7139,-0.7139,-0.7139,-0.7139,-0.7139,-0.7139,-0.7139,-0.7139,-0.7139,-0.7139,-0.7139,-0.7139,-0.7139,-0.7139,-0.7139,-0.7139,-0.7139,-0.7139,-0.7139,-0.7139,-0.7139,-0.7139,-0.7139,-0.7139,-0.7139,0.0,0.0,0.0,0.0,0.0,0.0,0.0,0.0,0.0,0.0,0.0,0.0,0.0,0.0,0.0,0.0,0.0,0.0,0.0,0.0,0.0,0.0,0.0,0.0,0.0,0.0,-0.0,-0.0,-0.0,-0.0,-0.0,-0.0,-0.0,-0.0,-0.0,-0.0,-0.0,-0.0,-0.0,-0.0,-0.0,-0.0,-0.0,-0.0,-0.0,-0.0,-0.0,-0.0,-0.0,-0.0,-0.0,-0.0,-0.0,-0.0,-0.0,-0.0,-0.0,-0.0,-0.0,-0.0,-0.0,-0.0,-0.2019,-0.4448,-0.4448,-0.3429,-0.2213,-0.2213,-0.3925,-0.6055,-0.7594,-0.7169,-0.6545,-0.7682,-0.6994,-0.6432,-0.7559,-0.7801,-0.7694,-0.7516,-0.7397,-0.7221,-0.7153,-0.7139,-0.7139,-0.7139,-0.7139,-0.7139,-0.7139,-0.7139,-0.7139,-0.7139,-0.7139,-0.7139,-0.7139,-0.7139,-0.7139,-0.7139,-0.7139,-0.7139,-0.7139,-0.7139,-0.7139,-0.7139,-0.7139,-0.7139,-0.7139,-0.7139,-0.7139,-0.7139,-0.7139,-0.7139,0.0,0.0,0.0,0.0,0.0,0.0,0.0,0.0,0.0,0.0,0.0,0.0,0.0,0.0,0.0,0.0,0.0,0.0,0.0,0.0,0.0,0.0,0.0,0.0,0.0,0.0,-0.0,-0.0,-0.0,-0.0,-0.0,-0.0,-0.0,-0.0,-0.0,-0.0,-0.0,-0.0,-0.0,-0.0,-0.0,-0.0,-0.0,-0.0,-0.0,-0.0,-0.0,-0.0,-0.0,-0.0,-0.0,-0.0,-0.0,-0.0,-0.0,-0.0,-0.0,-0.0,-0.0,-0.0,-0.0202,-0.1615,-0.4752,-0.8022,-0.8019,-0.6564,-0.5027,-0.5027,-0.5027,-0.5425,-0.7425,-0.7918,-0.7902,-0.7875,-0.7858,-0.775,-0.763,-0.7627,-0.7547,-0.7366,-0.7217,-0.7139,-0.7139,-0.7139,-0.7139,-0.7139,-0.7139,-0.7139,-0.7139,-0.7139,-0.7139,-0.7139,-0.7139,-0.7139,-0.7139,-0.7139,-0.7139,-0.7139,-0.7139,-0.7139,-0.7139,-0.7139,-0.7139,-0.7139,-0.7139,-0.7139,-0.7139,-0.7139,-0.7139,-0.7139,-0.7139,-0.7139,0.0,0.0,0.0,0.0,0.0,0.0,0.0,0.0,0.0,0.0,0.0,0.0,0.0,0.0,0.0,0.0,0.0,0.0,0.0,0.0,0.0,0.0,0.0,0.0,0.0,-0.0,-0.0,-0.0,-0.0,-0.0,-0.0,-0.0,-0.0,-0.0,-0.0,-0.0,-0.0,-0.0,-0.0,-0.0,-0.0,-0.0,-0.0,-0.0,-0.0,-0.0,-0.0,-0.0,-0.0,-0.0,-0.0,-0.0,-0.0,-0.0,-0.0,-0.0,-0.0,-0.0,-0.0,-0.0,-0.0808,-0.5972,-0.7818,-0.8022,-0.7999,-0.7889,-0.7785,-0.7785,-0.7775,-0.7736,-0.7697,-0.7744,-0.779,-0.7658,-0.7617,-0.757,-0.7428,-0.7397,-0.7346,-0.7183,-0.7146,-0.7139,-0.7139,-0.7139,-0.7139,-0.7139,-0.7139,-0.7139,-0.7139,-0.7139,-0.7139,-0.7139,-0.7139,-0.7139,-0.7139,-0.7139,-0.7139,-0.7139,-0.7139,-0.7139,-0.7139,-0.7139,-0.7139,-0.7139,-0.7139,-0.7139,-0.7139,-0.7139,-0.7139,-0.7139,-0.7139,-0.7139,0.0,0.0,0.0,0.0,0.0,0.0,0.0,0.0,0.0,0.0,0.0,0.0,0.0,0.0,0.0,0.0,0.0,0.0,0.0,0.0,0.0,0.0,0.0,0.0,0.0,-0.0,-0.0,-0.0,-0.0,-0.0,-0.0,-0.0,-0.0,-0.0,-0.0,-0.0,-0.0,-0.0,-0.0,-0.0,-0.0,-0.0,-0.0,-0.0,-0.0,-0.0,-0.0,-0.0,-0.0,-0.0,-0.0,-0.0,-0.0,-0.0,-0.0,-0.0,-0.0,-0.0,-0.0,-0.0,-0.0303,-0.2221,-0.5159,-0.8022,-0.8016,-0.8041,-0.7953,-0.7838,-0.7761,-0.7767,-0.7702,-0.7682,-0.7638,-0.7489,-0.7465,-0.7428,-0.7258,-0.7302,-0.7326,-0.717,-0.7139,-0.7139,-0.7139,-0.7139,-0.7139,-0.7139,-0.7139,-0.7139,-0.7139,-0.7139,-0.7139,-0.7139,-0.7139,-0.7139,-0.7139,-0.7139,-0.7139,-0.7139,-0.7139,-0.7139,-0.7139,-0.7139,-0.7139,-0.7139,-0.7051,-0.7048,-0.7139,-0.7048,-0.7004,-0.7004,-0.7004,-0.7004,0.0,0.0,0.0,0.0,0.0,0.0,0.0,0.0,0.0,0.0,0.0,0.0,0.0,0.0,0.0,0.0,0.0,0.0,0.0,0.0,0.0,0.0,0.0,0.0,0.0,-0.0,-0.0,-0.0,-0.0,0.0,-0.0,-0.0,-0.0,-0.0,-0.0,-0.0,-0.0,-0.0,-0.0,-0.0,-0.0,-0.0,-0.0,-0.0,-0.0,-0.0,-0.0,-0.0,-0.0,-0.0,-0.0,-0.0,-0.0,-0.0,-0.0,-0.0,-0.0,-0.0,-0.0,-0.0,-0.0,-0.0,-0.2376,-0.5457,-0.6355,-0.6689,-0.6614,-0.65,-0.7022,-0.7617,-0.765,-0.7499,-0.7431,-0.7336,-0.7312,-0.7101,-0.6447,-0.6863,-0.7272,-0.7163,-0.7139,-0.7139,-0.7139,-0.7139,-0.7139,-0.7139,-0.7139,-0.7139,-0.7139,-0.7139,-0.7139,-0.7139,-0.7139,-0.7139,-0.7139,-0.7139,-0.7139,-0.7139,-0.7139,-0.7139,-0.7139,-0.7139,-0.7115,-0.7068,-0.6976,-0.6949,-0.6993,-0.6898,-0.6851,-0.6851,-0.6851,-0.6878,0.0,0.0,0.0,0.0,0.0,0.0,0.0,0.0,0.0,0.0,0.0,0.0,0.0,0.0,0.0,0.0,0.0,0.0,0.0,0.0,0.0,0.0,0.0,0.0,0.0,-0.0,-0.0,-0.0,-0.0,-0.0,-0.0,-0.0,-0.0,-0.0,-0.0,-0.0,-0.0,-0.0,-0.0,-0.0,-0.0,-0.0,-0.0,-0.0,-0.0,-0.0,-0.0,-0.0,-0.0,-0.0,-0.0,-0.0,-0.0,-0.0,-0.0,-0.0,-0.0,-0.0,-0.0,-0.0,-0.0,-0.0,-0.0,-0.0475,-0.3133,-0.3891,-0.3889,-0.3889,-0.5611,-0.7506,-0.7455,-0.7205,-0.6999,-0.7098,-0.7078,-0.6694,-0.5176,-0.6083,-0.7078,-0.7058,-0.7139,-0.7139,-0.7139,-0.7139,-0.7139,-0.7139,-0.7139,-0.7139,-0.7139,-0.7139,-0.7139,-0.7139,-0.7139,-0.7139,-0.7139,-0.7139,-0.7139,-0.7139,-0.7139,-0.7139,-0.7136,-0.7132,-0.7068,-0.6926,-0.6919,-0.6844,-0.6695,-0.6695,-0.6695,-0.6695,-0.6695,-0.6776,0.2534,0.0,0.0,0.0,0.0,0.0,0.0,0.0,0.0,0.0,0.0,0.0,0.0,0.0,0.0,0.0,0.0,0.0,0.0,0.0,0.0,0.0,0.0,0.0,0.0,-0.0,-0.0,0.0,-0.0,-0.0,-0.0,-0.0,-0.0,-0.0,-0.0,-0.0,-0.0,-0.0,-0.0,-0.0,-0.0,-0.0,-0.0,-0.0,-0.0,-0.0,-0.0,-0.0,-0.0,-0.0,-0.0,-0.0,-0.0,-0.0,-0.0,-0.0,-0.0,-0.0,-0.0,-0.0,-0.0,-0.0,-0.0,-0.0095,-0.0857,-0.1131,-0.1117,-0.1116,-0.2855,-0.4738,-0.4701,-0.4667,-0.5008,-0.6735,-0.7108,-0.7019,-0.6551,-0.6821,-0.7088,-0.7058,-0.7139,-0.7139,-0.7139,-0.7139,-0.7139,-0.7139,-0.7139,-0.7139,-0.7139,-0.7139,-0.7139,-0.7139,-0.7139,-0.7139,-0.7139,-0.7139,-0.7139,-0.7139,-0.7139,-0.7095,-0.6993,-0.6987,-0.6915,-0.6766,-0.6654,-0.6576,-0.6536,-0.6536,-0.6536,-0.6536,-0.6536,-0.6617,0.0,0.0,0.0,0.0,0.0,0.0,0.0,0.3944,0.0,0.0,0.0,0.0,0.0,0.0,0.0,0.0,0.0,0.0,0.0,0.0,0.0,0.0,0.0,0.0,-0.0,-0.0,-0.0,-0.0,-0.0,-0.0,-0.0,-0.0,-0.0,-0.0,-0.0,-0.0,-0.0,-0.0,-0.0,-0.0,-0.0,-0.0,-0.0,-0.0,-0.0,-0.0,-0.0,-0.0,-0.0,-0.0,-0.0,-0.0,-0.0,-0.0,-0.0,-0.0,-0.0,-0.0,-0.0,-0.0,-0.0,-0.0,-0.0,-0.0,-0.0,-0.0,-0.0,-0.0,-0.0995,-0.2063,-0.2058,-0.2055,-0.2412,-0.3853,-0.4935,-0.593,-0.6933,-0.6557,-0.6358,-0.6979,-0.7058,-0.7139,-0.7139,-0.7139,-0.7139,-0.7139,-0.7139,-0.7139,-0.7139,-0.7139,-0.7139,-0.7139,-0.7139,-0.7139,-0.7139,-0.7139,-0.7139,-0.7139,-0.7085,-0.7014,-0.6932,-0.6868,-0.6763,-0.6607,-0.6519,-0.6441,-0.6383,-0.6383,-0.6383,-0.6383,-0.6383,-0.6464,0.0,0.0,0.0,0.0,0.0,0.0,0.3921,0.4036,0.0,0.0,0.0,0.0,0.0,0.0,0.0,0.0,0.0,0.0,0.0,0.0,0.0,0.0,0.0,0.0,-0.0,-0.0,-0.0,-0.0,-0.0,-0.0,-0.0,-0.0,-0.0,-0.0,-0.0,-0.0,-0.0,-0.0,-0.0,-0.0,-0.0,-0.0,-0.0,-0.0,-0.0,-0.0,-0.0,-0.0,-0.0,-0.0,-0.0,-0.0,-0.0,-0.0,-0.0,-0.0,-0.0,-0.0,-0.0,-0.0,-0.0,-0.0,-0.0,-0.0,-0.0,-0.0,-0.0,-0.0,-0.0,-0.0,-0.0,-0.0,-0.0,-0.0,-0.1612,-0.3757,-0.5855,-0.5473,-0.5272,-0.6811,-0.7068,-0.7139,-0.7139,-0.7139,-0.7139,-0.7139,-0.7139,-0.7139,-0.7139,-0.7139,-0.7139,-0.7139,-0.7139,-0.7139,-0.7139,-0.7126,-0.7115,-0.7115,-0.6983,-0.6895,-0.6878,-0.6749,-0.6603,-0.6451,-0.6451,-0.6386,-0.6338,-0.6338,-0.6338,-0.6338,-0.6338,-0.6329,0.3592,0.3707,0.3846,0.3666,0.0,0.0,0.3707,0.3778,0.0,0.0,0.0,0.0,0.0,0.0,0.0,0.0,0.0,0.0,0.0,0.0,0.0,0.0,0.0,0.0,-0.0,-0.0,-0.0,-0.0,-0.0,-0.0,-0.0,-0.0,-0.0,-0.0,-0.0,-0.0,-0.0,-0.0,-0.0,-0.0,-0.0,-0.0,-0.0,-0.0,-0.0,-0.0,-0.0,-0.0,-0.0,-0.0,-0.0,-0.0,-0.0,-0.0,-0.0,-0.0,-0.0,-0.0,-0.0,-0.0,-0.0,-0.0,-0.0,-0.0,-0.0,-0.0,-0.0,-0.0,-0.0,-0.0,-0.0,-0.0,-0.0,-0.0,-0.0359,-0.0808,-0.1257,-0.3141,-0.5295,-0.6828,-0.7074,-0.7139,-0.7139,-0.7139,-0.7139,-0.7139,-0.7139,-0.7139,-0.7139,-0.7139,-0.7139,-0.7139,-0.7139,-0.7139,-0.7139,-0.7037,-0.697,-0.697,-0.6827,-0.6692,-0.6566,-0.6532,-0.6451,-0.6305,-0.6302,-0.6288,-0.6338,-0.6338,-0.6338,-0.6338,-0.6338,-0.6352,0.0,0.0,0.4114,0.4039,0.0,0.0,0.0,0.0,0.4039,0.0,0.0,0.0,0.0,0.0,0.0,0.0,0.0,0.0,0.0,0.0,0.0,0.0,0.0,0.0,-0.0,-0.0,-0.0,-0.0,-0.0,-0.0,-0.0,-0.0,-0.0,-0.0,-0.0,-0.0,-0.0,-0.0,-0.0,-0.0,-0.0,-0.0,-0.0,-0.0,-0.0,-0.0,-0.0,-0.0,-0.0,-0.0,-0.0,-0.0,-0.0,-0.0,-0.0,-0.0,-0.0,-0.0,-0.0,-0.0,-0.0,-0.0,-0.0,-0.0,-0.0,-0.0,-0.0,-0.0,-0.0,-0.0,-0.0,-0.0,-0.0,-0.0,-0.0,-0.0,-0.0,-0.224,-0.4387,-0.5191,-0.6257,-0.7139,-0.7139,-0.7139,-0.7139,-0.7139,-0.7139,-0.7139,-0.7139,-0.7139,-0.7112,-0.7041,-0.7034,-0.7004,-0.6926,-0.6854,-0.6814,-0.6814,-0.6671,-0.6552,-0.6474,-0.6403,-0.6332,-0.6264,-0.6338,-0.6338,-0.6338,-0.6338,-0.6338,-0.6338,-0.6338,-0.6338,0.0,0.0,0.0,0.0,0.0,0.4301,0.0,0.0,0.0,0.4365,0.0,0.0,0.0,0.0,0.0,0.0,0.0,0.0,0.0,0.0,0.0,0.0,0.0,0.0,-0.0,-0.0,-0.0,-0.0,-0.0,-0.0,-0.0,-0.0,-0.0,-0.0,-0.0,-0.0,-0.0,-0.0,-0.0,-0.0,-0.0,-0.0,-0.0,-0.0,-0.0,-0.0,-0.0,-0.0,-0.0,-0.0,-0.0,-0.0,-0.0,-0.0,-0.0,-0.0,-0.0,-0.0,-0.0,-0.0,-0.0,-0.0,-0.0,-0.0,-0.0,-0.0,-0.0,-0.0,-0.0,-0.0,-0.0,-0.0,-0.0,-0.0,-0.0,-0.0,-0.0,-0.1522,-0.3215,-0.4109,-0.5805,-0.7061,-0.7143,-0.7139,-0.7139,-0.7139,-0.7139,-0.7129,-0.7102,-0.7099,-0.7044,-0.6902,-0.6885,-0.6834,-0.6712,-0.6675,-0.6658,-0.6658,-0.6515,-0.643,-0.643,-0.6322,-0.6338,-0.6338,-0.6338,-0.6338,-0.6338,-0.6338,-0.6338,-0.6338,-0.6338,-0.6338,0.0,0.0,0.0,0.0,0.4755,0.0,0.0,0.0,0.4368,0.4121,0.0,0.0,0.0,0.0,0.0,0.0,0.0,0.0,0.0,0.0,0.0,0.0,0.0,-0.0,-0.0,-0.0,-0.0,-0.0,-0.0,-0.0,-0.0,-0.0,-0.0,-0.0,-0.0,-0.0,-0.0,-0.0,-0.0,-0.0,-0.0,-0.0,-0.0,-0.0,-0.0,-0.0,-0.0,-0.0,-0.0,-0.0,-0.0,-0.0,-0.0,-0.0,-0.0,-0.0,-0.0,-0.0,-0.0,-0.0,-0.0,-0.0,-0.0,-0.0,-0.0,-0.0,-0.0,-0.0,-0.0,-0.0,-0.0,-0.0,-0.0,-0.0,-0.0,-0.0,-0.0,-0.018,-0.1614,-0.5922,-0.6917,-0.7088,-0.7058,-0.7139,-0.7139,-0.7139,-0.7139,-0.7095,-0.697,-0.6953,-0.6895,-0.6742,-0.6725,-0.6719,-0.6702,-0.6576,-0.6498,-0.6498,-0.6366,-0.6285,-0.6285,-0.6271,-0.6338,-0.6338,-0.6338,-0.6338,-0.6338,-0.6338,-0.6338,-0.6338,-0.6338,-0.6338,0.0,0.0,0.0,0.0,0.0,0.0,0.4548,0.0,0.4508,0.0,0.0,0.0,0.0,0.0,0.0,0.0,0.0,0.0,0.0,0.0,0.0,0.0,0.0,0.0,-0.0,-0.0,-0.0,-0.0,-0.0,-0.0,-0.0,-0.0,-0.0,-0.0,-0.0,-0.0,-0.0,-0.0,-0.0,-0.0,-0.0,-0.0,-0.0,-0.0,-0.0,-0.0,-0.0,-0.0,-0.0,-0.0,-0.0,-0.0,-0.0,-0.0,-0.0,-0.0,-0.0,-0.0,-0.0,-0.0,-0.0,-0.0,-0.0,-0.0,-0.0,-0.0,-0.0,-0.0,-0.0,-0.0,-0.0,-0.0,-0.0,-0.0,-0.0,-0.0,-0.0,-0.0,-0.0985,-0.4383,-0.6183,-0.7058,-0.7037,-0.7085,-0.7139,-0.7139,-0.7068,-0.6997,-0.6936,-0.6851,-0.6736,-0.6583,-0.6569,-0.6536,-0.6454,-0.6386,-0.6349,-0.6349,-0.6295,-0.6338,-0.6338,-0.6338,-0.6338,-0.6338,-0.6338,-0.6338,-0.6338,-0.6338,-0.6338,-0.6338,-0.6338,-0.6338,0.4626,0.0,0.0,0.0,0.0,0.0,0.0,0.0,0.0,0.0,0.0,0.0,0.0,0.0,0.0,0.0,0.0,0.0,0.0,0.0,0.0,0.0,0.0,0.0,0.0,-0.0,-0.0,-0.0,-0.0,-0.0,-0.0,-0.0,-0.0,-0.0,-0.0,-0.0,-0.0,-0.0,-0.0,-0.0,-0.0,-0.0,-0.0,-0.0,-0.0,-0.0,-0.0,-0.0,-0.0,-0.0,-0.0,-0.0,-0.0,-0.0,-0.0,-0.0,-0.0,-0.0,-0.0,-0.0,-0.0,-0.0,-0.0,-0.0,-0.0,-0.0,-0.0,-0.0,-0.0,-0.0,-0.0,-0.0,-0.0,-0.0,-0.0,-0.0,-0.0,-0.0,-0.0704,-0.2983,-0.5365,-0.693,-0.6888,-0.6987,-0.7068,-0.7027,-0.6932,-0.6851,-0.681,-0.6709,-0.658,-0.643,-0.6413,-0.6373,-0.6271,-0.6338,-0.6338,-0.6338,-0.6338,-0.6338,-0.6338,-0.6338,-0.6338,-0.6338,-0.6338,-0.6338,-0.6338,-0.6338,-0.6338,-0.6338,-0.6338,-0.6338,0.0,0.0,0.0,0.4728,0.0,0.0,0.0,0.0,0.4643,0.0,0.0,0.0,0.0,0.0,0.0,0.0,0.0,0.0,0.0,0.0,0.0,0.0,0.0,0.0,0.0,-0.0,-0.0,0.0,-0.0,-0.0,-0.0,-0.0,-0.0,-0.0,-0.0,-0.0,-0.0,-0.0,-0.0,-0.0,-0.0,-0.0,-0.0,-0.0,-0.0,-0.0,-0.0,-0.0,-0.0,-0.0,-0.0,-0.0,-0.0,-0.0,-0.0,-0.0,-0.0,-0.0,-0.0,-0.0,-0.0,-0.0,-0.0,-0.0,-0.0,-0.0,-0.0,-0.0,-0.0,-0.0,-0.0,-0.0,-0.0,-0.0,-0.0,-0.0,-0.0,-0.0,-0.059,-0.2687,-0.5053,-0.6669,-0.6715,-0.6834,-0.6885,-0.6736,-0.6712,-0.6654,-0.6505,-0.6481,-0.6424,-0.6359,-0.6268,-0.6345,-0.6338,-0.6338,-0.6338,-0.6338,-0.6338,-0.6338,-0.6338,-0.6338,-0.6338,-0.6338,-0.6338,-0.6338,-0.6338,-0.6338,-0.6338,-0.6338,-0.6338,-0.6338,0.0,0.0,0.4999,0.4752,0.0,0.0,0.0,0.0,0.0,0.0,0.0,0.0,0.0,0.0,0.0,0.0,0.0,0.0,0.0,0.0,0.0,0.0,0.0,0.0,0.0,0.0,0.0,0.0,-0.0,0.0,-0.0,-0.0,-0.0,-0.0,-0.0,-0.0,-0.0,-0.0,-0.0,-0.0,-0.0,-0.0,-0.0,-0.0,-0.0,-0.0,-0.0,-0.0,-0.0,-0.0,-0.0,-0.0,-0.0,-0.0,-0.0,-0.0,-0.0,-0.0,-0.0,-0.0,-0.0,-0.0,-0.0,-0.0,-0.0,-0.0,-0.0,-0.0,-0.0,-0.0,-0.0,-0.0,-0.0,-0.0,-0.0,-0.0,-0.0,-0.0,-0.0168,-0.0922,-0.3948,-0.6466,-0.6597,-0.6699,-0.6664,-0.6695,-0.6614,-0.6529,-0.6478,-0.639,-0.6315,-0.6345,-0.6338,-0.6338,-0.6338,-0.6338,-0.6338,-0.6338,-0.6338,-0.6338,-0.6338,-0.6338,-0.6338,-0.6338,-0.6338,-0.6338,-0.6338,-0.6338,-0.6338,-0.6338,-0.6271,-0.6268,0.5009,0.506,0.0,0.4777,0.479,0.0,0.4549,0.0,0.0,0.0,0.0,0.0,0.0,0.0,0.0,0.0,0.0,0.0,0.0,0.0,0.0,0.0,0.0,0.0,0.0,0.0,-0.0,-0.0,-0.0,0.0,0.0,-0.0,-0.0,-0.0,-0.0,-0.0,-0.0,-0.0,-0.0,-0.0,-0.0,-0.0,-0.0,-0.0,-0.0,-0.0,-0.0,-0.0,-0.0,-0.0,-0.0,-0.0,-0.0,-0.0,-0.0,-0.0,-0.0,-0.0,-0.0,-0.0,-0.0,-0.0,-0.0,-0.0,-0.0,-0.0,-0.0,-0.0,-0.0,-0.0,-0.0,-0.0,-0.0,-0.0,-0.0,-0.0,-0.0,-0.0,-0.0,-0.0,-0.2212,-0.4412,-0.5545,-0.6179,-0.6534,-0.6532,-0.6461,-0.6396,-0.6396,-0.6318,-0.6338,-0.6338,-0.6338,-0.6338,-0.6338,-0.6338,-0.6338,-0.6338,-0.6338,-0.6338,-0.6338,-0.6338,-0.6264,-0.6268,-0.6268,-0.6268,-0.6268,-0.6268,-0.6268,-0.6268,-0.6274,-0.6035]},{"header":{"parameterUnit":"m.s-1","parameterCategory":1,"la1":30.6,"la2":29.2853,"lo1":-89.7004,"lo2":-87.6739,"dy":0.0162,"dx":0.0183,"nx":112,"ny":82,"refTime":"2024-07-30T18:00:00:Z","depth":0,"parameterNumber":3,"parameterNumberName":"V-component_of_WINDS"},"data":[0.0,0.0,0.0,0.0,0.0,0.0,0.0,0.0,0.0,0.0,0.0,0.0,0.0,0.0,0.0,0.0,0.0,0.0,0.0,0.0,0.0,0.0,0.0,0.0,0.0,0.0,0.0,0.0,0.0,0.0,0.0,0.0,0.0,0.0,0.0,0.0,0.0,0.0,0.0,0.0,0.0,0.0,0.0,0.0,0.0,0.0,0.0,0.0,0.0,0.0,0.0,0.0,0.0,0.0,0.0,0.0,0.0,0.0,0.0,0.0,0.0,0.0,0.0,0.0,0.0,0.0,0.0,0.0,0.0,0.0,0.0,0.0,0.0,0.0,0.0,0.0,0.0,0.0,0.0,0.0,0.0,0.0,0.0,0.0,0.0,0.0,0.0,0.0,0.0,0.0,0.0,-2.4408,-2.7672,-2.9676,-2.9785,-2.9551,-2.7715,-2.375,0.0,0.0,0.0,0.0,0.0,0.0,0.0,0.0,0.0,0.0,0.0,0.0,0.0,0.0,0.0,0.0,0.0,0.0,0.0,0.0,0.0,0.0,0.0,0.0,0.0,0.0,0.0,0.0,0.0,0.0,0.0,0.0,0.0,0.0,0.0,0.0,0.0,0.0,0.0,0.0,0.0,0.0,0.0,0.0,0.0,0.0,0.0,0.0,0.0,0.0,0.0,0.0,0.0,0.0,0.0,0.0,0.0,0.0,0.0,0.0,0.0,0.0,0.0,0.0,0.0,0.0,0.0,0.0,0.0,0.0,0.0,0.0,0.0,0.0,0.0,0.0,0.0,0.0,0.0,0.0,0.0,0.0,0.0,0.0,0.0,0.0,0.0,0.0,0.0,0.0,0.0,0.0,0.0,0.0,0.0,0.0,0.0,0.0,0.0,0.0,0.0,0.0,0.0,0.0,-2.1475,-2.6998,-2.9425,-3.0682,-3.0703,-2.9355,-2.7578,-2.5449,0.0,0.0,0.0,0.0,0.0,0.0,0.0,0.0,0.0,0.0,0.0,0.0,0.0,0.0,0.0,0.0,0.0,0.0,0.0,0.0,0.0,0.0,0.0,0.0,0.0,0.0,0.0,0.0,0.0,0.0,0.0,0.0,0.0,0.0,0.0,0.0,0.0,0.0,0.0,0.0,0.0,0.0,0.0,0.0,0.0,0.0,0.0,0.0,0.0,0.0,0.0,0.0,0.0,0.0,0.0,0.0,0.0,0.0,0.0,0.0,0.0,0.0,0.0,0.0,0.0,0.0,0.0,0.0,0.0,0.0,0.0,0.0,0.0,0.0,0.0,0.0,0.0,0.0,0.0,0.0,0.0,0.0,0.0,0.0,0.0,0.0,0.0,0.0,0.0,0.0,0.0,0.0,0.0,0.0,0.0,0.0,0.0,0.0,0.0,0.0,0.0,0.0,0.0,-2.159,-2.4057,-2.7808,-2.9745,-3.0823,-3.0898,-2.9297,-2.7344,-2.5137,-2.0977,0.0,0.0,0.0,0.0,0.0,0.0,0.0,0.0,0.0,0.0,0.0,0.0,0.0,0.0,0.0,0.0,0.0,0.0,0.0,0.0,0.0,0.0,0.0,0.0,0.0,0.0,0.0,0.0,0.0,0.0,0.0,0.0,0.0,0.0,0.0,0.0,0.0,0.0,0.0,0.0,0.0,0.0,0.0,0.0,0.0,0.0,0.0,0.0,0.0,0.0,0.0,0.0,0.0,0.0,0.0,0.0,0.0,0.0,0.0,0.0,0.0,0.0,0.0,0.0,0.0,0.0,0.0,0.0,0.0,0.0,0.0,0.0,0.0,0.0,0.0,0.0,0.0,0.0,0.0,0.0,0.0,0.0,0.0,0.0,0.0,0.0,0.0,0.0,0.0,0.0,0.0,0.0,0.0,0.0,0.0,0.0,0.0,0.0,0.0,0.0,0.0,0.0,-2.4598,-2.6671,-2.8046,-2.9732,-3.0711,-3.0604,-2.8809,-2.666,-2.4258,-1.9863,0.0,0.0,0.0,0.0,0.0,0.0,0.0,0.0,0.0,0.0,0.0,0.0,0.0,0.0,0.0,0.0,0.0,0.0,0.0,0.0,0.0,0.0,0.0,0.0,0.0,0.0,0.0,0.0,0.0,0.0,0.0,0.0,0.0,0.0,0.0,0.0,0.0,0.0,0.0,0.0,0.0,0.0,0.0,0.0,0.0,0.0,0.0,0.0,0.0,0.0,0.0,0.0,0.0,0.0,0.0,0.0,0.0,0.0,0.0,0.0,0.0,0.0,0.0,0.0,0.0,0.0,0.0,0.0,0.0,0.0,0.0,0.0,0.0,0.0,0.0,0.0,0.0,0.0,0.0,0.0,0.0,0.0,0.0,0.0,0.0,0.0,0.0,0.0,0.0,0.0,0.0,0.0,0.0,0.0,0.0,0.0,0.0,0.0,0.0,0.0,0.0,0.0,-2.4966,-2.8066,-2.8182,-2.9803,-3.0565,-2.9766,-2.7344,-2.5117,-2.3301,-1.8398,0.0,0.0,0.0,0.0,0.0,0.0,0.0,0.0,0.0,0.0,0.0,0.0,0.0,0.0,0.0,0.0,0.0,0.0,0.0,0.0,0.0,0.0,0.0,0.0,0.0,0.0,0.0,0.0,0.0,0.0,0.0,0.0,0.0,0.0,0.0,0.0,0.0,0.0,0.0,0.0,0.0,0.0,0.0,0.0,0.0,0.0,0.0,0.0,0.0,0.0,0.0,0.0,0.0,0.0,0.0,0.0,0.0,0.0,0.0,0.0,0.0,0.0,0.0,0.0,0.0,0.0,0.0,0.0,0.0,0.0,0.0,0.0,0.0,0.0,0.0,0.0,0.0,0.0,0.0,0.0,0.0,0.0,0.0,0.0,0.0,0.0,0.0,0.0,0.0,0.0,0.0,0.0,0.0,0.0,0.0,0.0,0.0,0.0,0.0,0.0,0.0,0.0,-2.4022,-2.6934,0.0,-2.9719,-3.0449,-2.9609,-2.8184,-2.5898,-2.2559,0.0,0.0,0.0,0.0,0.0,0.0,0.0,0.0,0.0,0.0,0.0,0.0,0.0,0.0,0.0,0.0,0.0,0.0,0.0,0.0,0.0,0.0,0.0,0.0,0.0,0.0,0.0,0.0,0.0,0.0,0.0,0.0,0.0,0.0,0.0,0.0,0.0,0.0,0.0,0.0,0.0,0.0,0.0,0.0,0.0,0.0,0.0,0.0,0.0,0.0,0.0,0.0,0.0,0.0,0.0,0.0,0.0,0.0,0.0,0.0,0.0,0.0,0.0,0.0,0.0,0.0,0.0,0.0,0.0,0.0,0.0,0.0,0.0,0.0,0.0,0.0,0.0,0.0,0.0,0.0,0.0,0.0,0.0,0.0,0.0,0.0,0.0,0.0,0.0,0.0,0.0,0.0,0.0,0.0,0.0,0.0,0.0,0.0,0.0,0.0,0.0,0.0,-2.0079,-2.3879,-2.6747,0.0,-2.963,-3.0247,-2.9179,-2.8086,-2.5742,-2.1738,0.0,0.0,0.0,0.0,0.0,0.0,0.0,0.0,0.0,0.0,0.0,0.0,0.0,0.0,0.0,0.0,0.0,0.0,0.0,0.0,0.0,0.0,0.0,0.0,0.0,0.0,0.0,0.0,0.0,0.0,0.0,0.0,0.0,0.0,0.0,0.0,0.0,0.0,0.0,0.0,0.0,0.0,0.0,0.0,0.0,0.0,0.0,0.0,0.0,0.0,0.0,0.0,0.0,0.0,0.0,0.0,0.0,0.0,0.0,0.0,0.0,0.0,0.0,0.0,0.0,0.0,0.0,0.0,0.0,0.0,0.0,0.0,0.0,0.0,0.0,0.0,0.0,0.0,0.0,0.0,0.0,0.0,0.0,0.0,0.0,0.0,0.0,0.0,0.0,0.0,0.0,0.0,0.0,0.0,0.0,0.0,0.0,0.0,0.0,0.0,0.0,0.0,-2.0193,-2.4859,-2.7997,-2.8003,-2.9552,-2.9956,-2.8337,-2.6621,-2.4199,0.0,0.0,0.0,0.0,0.0,0.0,0.0,0.0,0.0,0.0,0.0,0.0,0.0,0.0,0.0,0.0,0.0,0.0,0.0,0.0,0.0,0.0,0.0,0.0,0.0,0.0,0.0,0.0,0.0,0.0,0.0,0.0,0.0,0.0,0.0,0.0,0.0,0.0,0.0,0.0,0.0,0.0,0.0,0.0,0.0,0.0,0.0,0.0,0.0,0.0,0.0,0.0,0.0,0.0,0.0,0.0,0.0,0.0,0.0,0.0,0.0,0.0,0.0,0.0,0.0,0.0,0.0,0.0,0.0,0.0,0.0,0.0,0.0,0.0,0.0,0.0,0.0,0.0,0.0,0.0,0.0,0.0,0.0,0.0,0.0,0.0,0.0,0.0,0.0,0.0,0.0,0.0,0.0,0.0,0.0,0.0,0.0,0.0,0.0,0.0,0.0,0.0,0.0,-2.0946,-2.5168,-2.8151,-2.8717,-2.9833,-2.985,-2.8194,-2.7634,-2.5405,-2.082,0.0,0.0,0.0,0.0,0.0,0.0,0.0,0.0,0.0,0.0,0.0,0.0,0.0,0.0,0.0,0.0,0.0,0.0,0.0,0.0,0.0,0.0,0.0,0.0,0.0,0.0,0.0,0.0,0.0,0.0,0.0,0.0,0.0,0.0,0.0,0.0,0.0,0.0,0.0,0.0,0.0,0.0,0.0,0.0,0.0,0.0,0.0,0.0,0.0,0.0,0.0,0.0,0.0,0.0,0.0,0.0,0.0,0.0,0.0,0.0,0.0,0.0,0.0,0.0,0.0,0.0,0.0,0.0,0.0,0.0,0.0,0.0,0.0,0.0,0.0,0.0,0.0,0.0,0.0,0.0,0.0,0.0,0.0,0.0,0.0,0.0,0.0,0.0,0.0,0.0,0.0,0.0,0.0,0.0,0.0,0.0,0.0,0.0,0.0,0.0,0.0,0.0,-2.1271,-2.5283,-2.8198,-2.9006,-2.9948,-2.9821,-2.8137,-2.8055,-2.6061,-2.1282,0.0,0.0,0.0,0.0,0.0,0.0,0.0,0.0,0.0,0.0,0.0,0.0,0.0,0.0,0.0,0.0,0.0,0.0,0.0,0.0,0.0,0.0,0.0,0.0,0.0,0.0,0.0,0.0,0.0,0.0,0.0,0.0,0.0,0.0,0.0,0.0,0.0,0.0,0.0,0.0,0.0,0.0,0.0,0.0,0.0,0.0,0.0,0.0,0.0,0.0,0.0,0.0,0.0,0.0,0.0,0.0,0.0,0.0,0.0,0.0,0.0,0.0,0.0,0.0,0.0,0.0,0.0,0.0,0.0,0.0,0.0,0.0,0.0,0.0,0.0,0.0,0.0,0.0,0.0,0.0,0.0,0.0,0.0,0.0,0.0,0.0,0.0,0.0,0.0,0.0,0.0,0.0,0.0,0.0,0.0,0.0,0.0,0.0,0.0,0.0,0.0,0.0,-2.1482,-2.5389,-2.8236,-2.9121,-2.9987,-2.9802,-2.8137,-2.8052,-2.6303,-2.2104,0.0,0.0,0.0,0.0,0.0,0.0,0.0,0.0,0.0,0.0,0.0,0.0,0.0,0.0,0.0,0.0,0.0,0.0,0.0,0.0,0.0,0.0,0.0,0.0,0.0,0.0,0.0,0.0,0.0,0.0,0.0,0.0,0.0,0.0,0.0,0.0,0.0,0.0,0.0,0.0,0.0,0.0,0.0,0.0,0.0,0.0,0.0,0.0,0.0,0.0,0.0,0.0,0.0,0.0,0.0,0.0,0.0,0.0,0.0,0.0,-2.2734,0.0,0.0,0.0,0.0,0.0,0.0,0.0,0.0,0.0,0.0,0.0,0.0,0.0,0.0,0.0,0.0,0.0,0.0,0.0,0.0,0.0,0.0,0.0,0.0,0.0,0.0,0.0,0.0,0.0,0.0,0.0,0.0,0.0,0.0,0.0,0.0,0.0,0.0,0.0,0.0,0.0,-2.3063,-2.6101,-2.8467,-2.9967,-3.0314,-2.9763,-2.8137,-2.8003,-2.6532,-2.3017,-2.1171,0.0,0.0,0.0,0.0,0.0,0.0,0.0,0.0,0.0,0.0,0.0,0.0,0.0,0.0,0.0,0.0,0.0,0.0,0.0,0.0,0.0,0.0,0.0,0.0,0.0,0.0,0.0,0.0,0.0,0.0,0.0,0.0,0.0,0.0,0.0,0.0,0.0,0.0,0.0,0.0,0.0,0.0,0.0,0.0,0.0,0.0,0.0,0.0,0.0,0.0,0.0,0.0,0.0,0.0,0.0,0.0,0.0,0.0,0.0,0.0,-2.5352,0.0,0.0,0.0,0.0,0.0,0.0,0.0,0.0,0.0,0.0,0.0,0.0,0.0,0.0,0.0,0.0,0.0,0.0,0.0,0.0,0.0,0.0,0.0,0.0,0.0,0.0,0.0,0.0,0.0,0.0,0.0,0.0,0.0,0.0,0.0,0.0,0.0,0.0,0.0,0.0,-2.4139,-2.6563,-2.8544,-3.0206,-3.0417,-2.9917,-2.8648,-2.8187,-2.6899,-2.4312,-2.2592,0.0,0.0,0.0,0.0,0.0,0.0,0.0,0.0,0.0,0.0,0.0,0.0,0.0,0.0,0.0,0.0,0.0,0.0,0.0,0.0,0.0,0.0,0.0,0.0,0.0,0.0,0.0,0.0,0.0,0.0,0.0,0.0,0.0,0.0,0.0,0.0,0.0,0.0,0.0,0.0,0.0,0.0,0.0,0.0,0.0,0.0,0.0,0.0,0.0,0.0,0.0,0.0,0.0,-3.4297,-3.5137,-3.582,-3.582,-3.623,-3.6719,-3.3164,-3.0781,-2.9277,-2.7559,0.0,0.0,0.0,0.0,0.0,0.0,0.0,0.0,0.0,0.0,0.0,0.0,0.0,0.0,0.0,0.0,0.0,0.0,0.0,0.0,0.0,0.0,0.0,0.0,-3.0329,-2.9138,-2.4386,0.0,0.0,0.0,0.0,0.0,0.0,0.0,0.0,0.0,0.0,0.0,-2.5024,-2.7044,-2.8698,-3.0225,-3.0448,-3.0121,-2.9198,-2.8439,-2.7304,-2.5659,-2.4033,-2.2467,0.0,0.0,0.0,0.0,0.0,0.0,0.0,0.0,0.0,0.0,0.0,0.0,0.0,0.0,0.0,0.0,0.0,0.0,0.0,0.0,0.0,0.0,0.0,0.0,0.0,0.0,0.0,0.0,0.0,0.0,0.0,0.0,-1.9199,-2.1152,0.0,0.0,0.0,0.0,0.0,0.0,0.0,0.0,0.0,0.0,0.0,0.0,0.0,-3.2851,-3.3848,-3.6211,-3.7539,-3.7773,-3.9394,-4.0234,-4.0332,-4.0332,-4.041,-4.0488,-3.9922,0.0,-3.373,-3.2031,0.0,0.0,0.0,0.0,0.0,0.0,0.0,0.0,0.0,0.0,0.0,0.0,0.0,0.0,0.0,0.0,0.0,0.0,0.0,0.0,0.0,0.0,-3.4151,-3.2931,-3.3216,-3.3141,0.0,-2.7577,-2.4509,-2.2594,-2.1051,0.0,0.0,0.0,0.0,0.0,0.0,0.0,-2.6063,-2.789,-2.9313,-3.0302,-3.0398,-3.009,-2.926,-2.8464,-2.7591,-2.667,-2.4976,-2.3938,-2.3698,-2.1454,0.0,0.0,0.0,0.0,0.0,0.0,0.0,0.0,0.0,0.0,0.0,0.0,0.0,0.0,0.0,0.0,0.0,0.0,0.0,0.0,0.0,0.0,0.0,0.0,0.0,0.0,0.0,0.0,0.0,-1.9453,-2.2441,-2.3203,-2.418,-2.4043,0.0,0.0,0.0,0.0,0.0,0.0,0.0,0.0,0.0,-3.5137,-3.5937,-3.7187,-3.9004,-4.0156,-4.0976,-4.1484,-4.2734,-4.334,-4.334,-4.334,-4.334,-4.3301,-4.2812,-4.1523,-3.9512,-3.6367,-3.4336,-3.2988,0.0,0.0,0.0,0.0,-3.0684,-3.0859,-3.2715,-3.3047,-3.2559,-3.2051,0.0,0.0,0.0,0.0,0.0,0.0,0.0,0.0,0.0,0.0,-3.5745,-3.597,-3.6319,-3.6349,-3.5482,-3.316,-3.026,0.0,-2.5791,-2.4457,-2.1797,0.0,0.0,0.0,0.0,-2.5139,-2.7678,-2.864,-2.9429,-3.0302,-3.0398,-3.0263,-2.9906,-2.911,-2.8275,-2.7468,-2.6236,-2.5331,-2.4851,-2.3304,-2.1684,0.0,0.0,0.0,0.0,0.0,0.0,0.0,0.0,0.0,0.0,0.0,0.0,0.0,0.0,0.0,0.0,0.0,0.0,0.0,0.0,0.0,0.0,0.0,0.0,0.0,0.0,0.0,0.0,-2.2871,-2.5644,-2.543,-2.7519,-2.7871,0.0,0.0,0.0,0.0,0.0,0.0,-3.3672,-3.4824,-3.668,-3.9473,-4.0,-4.1152,-4.3047,-4.3281,-4.3711,-4.4375,-4.5019,-4.5332,-4.5332,-4.5332,-4.5332,-4.5293,-4.4648,-4.4375,-4.4062,-4.0195,-3.8105,-3.7187,-3.5664,-3.4922,-3.4844,-3.5703,-3.5625,-3.5371,-3.7559,-3.7871,-3.7266,-3.6816,-3.5771,-3.4241,-3.1932,0.0,0.0,0.0,0.0,-3.377,-3.6224,-3.6736,-3.6948,-3.8278,-3.8581,-3.8503,-3.8161,-3.7103,-3.5064,0.0,-3.0063,-2.889,-2.6178,0.0,0.0,0.0,0.0,-2.7621,-2.9525,-2.9929,-3.0237,-3.0698,-3.0737,-3.0641,-3.0417,-2.9602,-2.8756,-2.7948,-2.7082,-2.6217,-2.5341,-2.4736,-2.3611,-2.1934,0.0,0.0,0.0,0.0,0.0,0.0,0.0,0.0,0.0,0.0,0.0,0.0,0.0,0.0,0.0,0.0,0.0,0.0,0.0,0.0,0.0,0.0,0.0,0.0,0.0,0.0,0.0,0.0,0.0,-2.8203,-3.1777,0.0,0.0,0.0,0.0,-3.2949,-3.4551,-3.6348,-3.8184,-3.9883,-4.123,-4.2187,-4.3808,-4.4746,-4.4863,-4.5683,-4.6133,-4.6172,-4.6211,-4.623,-4.623,-4.623,-4.623,-4.623,-4.6191,-4.6172,-4.5957,-4.3262,-4.168,-4.0859,-3.9922,-3.9062,-3.8437,-3.9316,-3.9609,-3.9707,-4.0664,-4.0976,-4.1055,-4.1777,-4.0253,-3.7842,-3.6186,-3.4963,0.0,0.0,-3.6184,-3.7152,-3.895,-3.9415,-3.9388,-3.936,-3.9326,-3.9099,-3.82,-3.795,-3.7103,0.0,-3.266,-3.1256,-3.0256,0.0,-3.0071,-3.0071,-3.0833,-3.1429,-3.1545,-3.2237,-3.2429,-3.1718,-3.1641,-3.1295,-3.0456,-2.9602,-2.8756,-2.7948,-2.7082,-2.6217,-2.5341,-2.5264,-2.4438,-2.2774,-2.1062,0.0,0.0,0.0,0.0,0.0,0.0,0.0,0.0,0.0,0.0,0.0,0.0,0.0,0.0,0.0,0.0,0.0,0.0,0.0,0.0,0.0,0.0,0.0,0.0,0.0,0.0,0.0,0.0,-3.2324,-3.4766,0.0,-3.3887,-3.5059,-3.6133,-3.6699,-3.8359,-4.0098,-4.1797,-4.3008,-4.4023,-4.4883,-4.5508,-4.584,-4.584,-4.6133,-4.6308,-4.6308,-4.6308,-4.6308,-4.6308,-4.6308,-4.6308,-4.6308,-4.6308,-4.6308,-4.623,-4.5293,-4.4414,-4.3555,-4.2695,-4.2168,-4.1914,-4.2226,-4.2344,-4.2383,-4.2695,-4.2812,-4.277,-4.2449,-4.1691,-4.0668,-3.9468,-3.9209,-3.9432,-3.9783,-4.0419,-4.1007,-4.1135,-4.1069,-4.0873,-4.0254,-4.0119,-4.0023,-3.9681,-3.92,-3.8565,-3.7661,-3.568,-3.3872,-3.3006,-3.2372,-3.1833,-3.1314,-3.1948,-3.2468,-3.2468,-3.2718,-3.2795,-3.2506,-3.2006,-3.1564,-3.1256,-2.991,-2.8756,-2.7948,-2.7082,-2.6217,-2.5341,-2.5303,-2.5014,-2.4428,-2.2754,-2.0639,0.0,0.0,0.0,0.0,0.0,0.0,0.0,0.0,0.0,0.0,0.0,0.0,0.0,0.0,0.0,0.0,0.0,0.0,0.0,0.0,0.0,0.0,0.0,0.0,0.0,0.0,-3.4668,-3.5488,-3.7871,-3.8887,-3.7461,-3.8613,-3.9824,-4.0684,-4.1836,-4.3105,-4.4492,-4.5117,-4.5703,-4.6289,-4.6308,-4.6308,-4.6308,-4.6308,-4.6308,-4.6308,-4.6308,-4.6308,-4.6308,-4.6308,-4.6308,-4.6308,-4.6308,-4.6308,-4.6308,-4.6308,-4.5957,-4.5371,-4.4805,-4.457,-4.457,-4.457,-4.457,-4.4569,-4.4523,-4.4507,-4.4364,-4.3402,-4.3073,-4.2881,-4.1942,-4.203,-4.2427,-4.246,-4.2819,-4.3047,-4.2508,-4.2085,-4.1662,-4.1085,-4.07,-4.0489,-4.0489,-4.0065,-3.97,-3.97,-3.7892,-3.6161,-3.5584,-3.4757,-3.4007,-3.3468,-3.3622,-3.3776,-3.3776,-3.3776,-3.366,-3.3372,-3.2852,-3.2314,-3.1756,-3.0371,-2.9179,-2.8352,-2.7236,-2.6351,-2.5774,-2.5457,-2.5303,-2.5303,-2.3658,-2.1696,-1.9439,0.0,0.0,0.0,0.0,0.0,0.0,0.0,0.0,0.0,0.0,0.0,0.0,0.0,0.0,0.0,0.0,0.0,0.0,0.0,0.0,0.0,0.0,0.0,-3.2402,-3.6035,-3.8398,-3.7637,-4.1211,-4.2773,-4.0332,-4.2324,-4.4121,-4.498,-4.5039,-4.541,-4.625,-4.6308,-4.6308,-4.6308,-4.6308,-4.6308,-4.6308,-4.6308,-4.6308,-4.6308,-4.6308,-4.6308,-4.6308,-4.6308,-4.6308,-4.6308,-4.6308,-4.6308,-4.6308,-4.6308,-4.6308,-4.6308,-4.6308,-4.6308,-4.6308,-4.6308,-4.6308,-4.6284,-4.6138,-4.6119,-4.596,-4.5043,-4.4647,-4.4429,-4.3705,-4.334,-4.3201,-4.3261,-4.3239,-4.3162,-4.3143,-4.2508,-4.1873,-4.1854,-4.1162,-4.0527,-4.0527,-4.0508,-4.0489,-4.0489,-3.9181,-3.8065,-3.8046,-3.7315,-3.6738,-3.6738,-3.6065,0.0,-3.5545,-3.5526,-3.518,-3.4334,-3.4218,-3.3526,-3.1891,-3.0929,-3.0025,-2.9121,-2.7505,-2.6601,-2.6601,-2.5793,-2.5341,-2.5341,-2.3697,-2.2004,-2.035,0.0,0.0,0.0,0.0,0.0,0.0,0.0,0.0,0.0,0.0,0.0,0.0,0.0,0.0,0.0,0.0,0.0,0.0,0.0,0.0,0.0,0.0,-3.6836,-3.6836,-3.8945,-4.1074,-4.2695,-4.3926,-4.4629,-4.4551,-4.5176,-4.5683,-4.5918,-4.5937,-4.6055,-4.6289,-4.6308,-4.6308,-4.6308,-4.6308,-4.6308,-4.6308,-4.6308,-4.6308,-4.6308,-4.6308,-4.6308,-4.6308,-4.6308,-4.6308,-4.6308,-4.6308,-4.6308,-4.6308,-4.6308,-4.6308,-4.6308,-4.6308,-4.6308,-4.6308,-4.6308,-4.6308,-4.6289,-4.6257,-4.624,-4.6196,-4.5831,-4.5703,-4.5603,-4.5259,-4.5105,-4.5028,-4.4951,-4.4932,-4.4759,-4.4124,-4.3797,-4.347,-4.2874,-4.2085,-4.145,-4.145,-4.095,-4.0489,-4.0489,-4.0123,-3.9623,-3.9027,-3.8219,-3.7642,-3.7642,-3.693,0.0,-3.6372,-3.5872,-3.5411,-3.518,-3.4584,-3.3757,-3.266,-3.1237,-2.9775,-2.8313,-2.7198,-2.6601,-2.6601,-2.637,-2.6236,-2.6236,-2.4601,-2.2889,0.0,0.0,0.0,0.0,0.0,0.0,0.0,0.0,0.0,0.0,0.0,0.0,0.0,0.0,0.0,0.0,0.0,0.0,0.0,0.0,0.0,0.0,-3.8711,-4.0859,-4.123,-4.2148,-4.3476,-4.5332,-4.5547,-4.5742,-4.625,-4.6308,-4.6308,-4.6308,-4.6308,-4.6308,-4.6308,-4.6641,-4.6836,-4.6836,-4.7207,-4.7207,-4.6855,-4.6836,-4.666,-4.6308,-4.6308,-4.6308,-4.6308,-4.6308,-4.6308,-4.6308,-4.6308,-4.6308,-4.6308,-4.6308,-4.6308,0.0,0.0,0.0,0.0,0.0,-4.6308,-4.6289,-4.623,-4.6225,-4.6191,-4.6032,-4.5974,-4.5943,-4.5772,-4.5719,-4.5699,-4.5605,-4.5586,-4.547,-4.497,-4.4566,-4.4182,-4.3701,-4.297,-4.2239,-4.1893,-4.1393,-4.0931,-4.0566,-4.0489,0.0,-3.9873,-3.9104,-3.8546,-3.8546,-3.7488,-3.6699,-3.6699,-3.6007,-3.5493,-3.5493,-3.5045,-3.4391,-3.3526,-3.191,0.0,0.0,0.0,-2.714,-2.714,-2.714,0.0,0.0,0.0,0.0,0.0,0.0,0.0,0.0,-2.2785,-2.2901,0.0,0.0,0.0,0.0,0.0,0.0,0.0,0.0,0.0,0.0,0.0,0.0,0.0,0.0,0.0,0.0,-4.2246,-4.4141,-4.5019,-4.5156,-4.543,-4.6211,-4.6308,-4.6308,-4.6308,-4.6308,-4.6348,-4.6445,-4.6445,-4.6484,-4.6582,0.0,0.0,0.0,0.0,-4.8535,-4.7754,-4.7754,-4.7363,-4.6582,-4.6582,-4.6582,-4.6582,-4.6582,-4.6582,-4.6582,-4.6582,-4.6543,-4.6445,-4.6445,-4.6387,-4.6308,-4.6308,-4.6308,-4.6308,-4.6308,-4.6308,-4.6289,-4.6152,0.0,0.0,-4.5901,-4.5815,-4.5777,-4.5651,-4.5605,-4.5605,-4.5586,-4.5586,-4.5586,-4.5586,-4.5028,-4.4451,-4.4451,-4.3835,-4.3028,-4.2258,-4.1931,-4.1566,-4.0796,-4.0566,-4.0489,-4.0489,-3.9912,-3.9431,-3.9431,-3.8046,-3.6969,-3.6873,-3.6142,-3.5603,-3.5512,0.0,0.0,-3.4257,-3.2833,-3.191,-3.1718,-2.9583,-2.8275,-2.8179,-2.8275,-2.8275,-2.8179,-2.8179,-2.8179,-2.8179,-2.8275,-2.8698,-2.9313,-2.6135,-2.5973,0.0,0.0,0.0,0.0,0.0,0.0,0.0,0.0,0.0,0.0,0.0,0.0,0.0,0.0,0.0,-4.1562,-4.3516,-4.5058,-4.5937,-4.6055,-4.6113,-4.6289,-4.6308,-4.6308,-4.6308,-4.6308,-4.6582,-4.7305,-4.7344,-4.7656,-4.8359,-4.8555,-4.8652,-4.8652,-4.8808,-4.8828,-4.8652,-4.8652,-4.8555,-4.8398,0.0,0.0,-4.8398,-4.8398,-4.8398,-4.8398,-4.8398,-4.8008,-4.7344,-4.7344,-4.6933,-4.6308,-4.6308,-4.6308,-4.6308,-4.6308,-4.6308,-4.6308,-4.6269,-4.6183,-4.6095,-4.6047,-4.5976,-4.5863,-4.5794,-4.5757,0.0,-4.5624,-4.5586,-4.5586,-4.5586,-4.547,-4.5336,-4.5336,-4.4682,-4.4028,-4.3855,-4.2758,-4.1758,-4.1585,-4.0969,-4.0489,-4.0489,-4.0354,-4.0258,-4.0258,-3.9431,-3.8546,-3.7834,-3.7007,-3.6219,-3.557,-3.5493,-3.5161,-3.4257,-3.3891,-3.3141,-3.1795,-3.1237,-3.066,-2.9948,-3.0583,-3.0641,-2.9929,-2.9929,-2.9929,-2.9929,-3.0621,-3.1044,-3.116,-2.9091,-2.9148,0.0,0.0,0.0,0.0,0.0,0.0,0.0,0.0,0.0,0.0,0.0,-3.5879,-3.7637,0.0,-4.1855,-4.4004,-4.5078,-4.5801,-4.623,-4.6308,-4.6308,-4.6308,-4.6308,-4.6308,-4.6308,-4.6699,-4.7129,-4.7578,-4.8008,-4.8437,-4.8887,-4.9316,-4.9551,-4.9551,-4.9941,-4.9961,-4.9551,-4.9551,-4.9336,-4.8906,-4.8906,-4.8906,-4.8906,-4.8906,-4.8906,-4.8906,-4.8906,-4.8652,-4.8223,-4.7773,-4.7344,-4.6914,-4.6465,-4.6308,-4.6308,-4.6308,-4.6257,-4.6191,-4.6191,-4.6113,-4.5982,-4.596,-4.5911,-4.5834,-4.5738,-4.5699,-4.5699,-4.5605,-4.5586,-4.5586,-4.5586,-4.5586,-4.5586,-4.5586,-4.5259,-4.4836,-4.4393,-4.3643,-4.2797,-4.197,-4.145,-4.1008,-4.0566,-4.0489,-4.0489,-4.0489,-3.9815,-3.9142,-3.87,-3.7507,-3.6546,-3.6142,-3.5738,-3.5334,-3.4891,-3.4449,-3.366,-3.2372,-3.2295,-3.2102,-3.1679,-3.2064,-3.2102,-3.166,-3.166,-3.166,-3.166,-3.2083,-3.2526,-3.2929,-3.2064,-3.2122,0.0,0.0,0.0,0.0,0.0,0.0,0.0,0.0,-3.4414,-3.6973,-3.8184,-3.9434,-4.1543,-4.2617,-4.3848,-4.5957,-4.6308,-4.6308,-4.6308,-4.6308,-4.6308,-4.6308,-4.6308,-4.6308,-4.6308,-4.709,-4.7676,-4.7832,-4.8652,-4.9219,-4.9375,-5.0058,-5.043,-5.043,-5.1055,-5.1094,-5.0449,-5.043,-5.0078,-4.9394,-4.9394,-4.9394,-4.9394,-4.9394,-4.9394,-4.9375,-4.9219,-4.9141,-4.9082,-4.8203,-4.7851,-4.7754,-4.6861,-4.6518,-4.6498,-4.6323,-4.618,-4.6066,-4.6061,-4.5979,-4.5867,-4.5835,-4.5776,-4.5738,-4.5624,-4.5586,-4.5586,-4.5586,-4.5586,-4.5586,-4.5586,-4.5586,-4.5586,-4.5586,-4.5586,-4.5413,-4.4701,-4.4412,-4.3893,-4.2547,-4.2027,-4.1585,-4.0873,-4.0604,-4.0489,-4.0489,-3.995,-3.9469,-3.9315,-3.8065,-3.7142,-3.6969,-3.6219,-3.568,-3.5512,-3.4853,-3.4141,-3.3449,-3.341,-3.3333,-3.316,-3.3141,-3.3141,-3.3141,-3.3141,-3.3237,-3.341,-3.341,-3.3776,-3.4449,-3.4449,-3.4449,-2.8535,-3.0293,0.0,-3.457,-3.4707,-3.5879,0.0,0.0,-3.9766,-4.2305,-4.3535,-4.4238,-4.4512,-4.5273,-4.5957,-4.625,-4.6308,-4.6308,-4.6308,-4.6308,-4.6308,-4.6308,-4.6308,-4.6308,-4.6308,-4.709,-4.793,-4.8691,-4.9551,-5.0371,-5.1074,-5.1211,-5.1269,-5.1269,-5.1348,-5.1367,-5.1269,-5.1269,-5.1211,-5.1113,-5.1113,-5.1113,-5.1113,-5.1113,-5.1113,-5.1074,-5.0351,-5.0058,-4.998,-4.9101,-4.875,-4.867,-4.7664,-4.7287,-4.7175,-4.6407,-4.6042,-4.5919,-4.5928,-4.5868,-4.5825,-4.5813,-4.5719,-4.5605,-4.5586,-4.5586,-4.5586,-4.5586,-4.5586,-4.5586,-4.5586,-4.5586,-4.5586,-4.5586,-4.5586,-4.5566,-4.547,-4.4855,-4.4239,-4.4066,-4.2816,-4.1777,-4.1681,-4.1008,-4.0489,-4.0489,-4.0412,-4.0104,-3.9392,-3.9123,-3.87,-3.793,-3.7084,-3.6276,-3.5565,-3.5411,-3.5315,-3.5218,-3.5218,-3.4872,-3.4083,-3.4045,-3.4045,-3.4045,-3.4045,-3.443,-3.5218,-3.5218,-3.5257,-3.5353,-3.5353,-3.5353,-3.3965,0.0,0.0,0.0,-3.9101,-4.0566,-4.2949,-4.2773,-4.2695,-4.4785,-4.5508,-4.5762,-4.5762,-4.6055,-4.6308,0.0,-4.6308,-4.6308,-4.6308,-4.6308,-4.6308,-4.6308,-4.6308,-4.6308,-4.6308,-4.7558,-4.8516,-4.8867,-5.0137,-5.1055,-5.1387,-5.1406,-5.1406,-5.1406,-5.1406,-5.1406,-5.1406,-5.1406,-5.1406,-5.1406,-5.1406,-5.1406,-5.1406,-5.1406,-5.1406,-5.1387,-5.1035,-5.0898,-5.0839,-4.9921,-4.9532,-4.9435,-4.8431,-4.7666,-4.7066,-4.6277,-4.5931,-4.5838,-4.5844,-4.5776,-4.568,-4.568,-4.5643,-4.5586,-4.5586,-4.5586,-4.5586,-4.5586,-4.5586,-4.5586,-4.5586,-4.5586,-4.5586,-4.5586,-4.5586,-4.5586,-4.5586,-4.5297,-4.4913,-4.4393,-4.3739,-4.2951,-4.197,-4.1508,-4.1085,-4.0566,-4.0489,-4.0373,-4.0027,-3.9585,-3.8969,-3.8084,-3.7219,-3.6565,-3.6238,-3.5776,-3.5493,-3.5493,-3.5493,-3.5353,-3.4968,-3.4968,-3.4968,-3.4968,-3.4968,-3.5141,-3.5493,-3.5493,-3.5493,-3.5493,-3.5493,-3.5757,-3.6836,0.0,0.0,-4.0371,-4.2344,-4.3965,-4.3555,-4.3965,-4.4785,-4.6035,-4.6308,-4.6308,-4.6308,-4.6308,-4.6308,-4.6308,-4.6504,-4.6562,-4.6328,-4.6504,-4.6562,-4.6328,-4.6308,-4.6308,-4.6308,-4.7656,-4.8633,-4.8887,-5.0254,-5.1172,-5.1387,-5.1406,-5.1406,-5.1406,-5.1406,-5.1406,-5.1406,-5.1406,-5.1406,-5.1406,-5.1406,-5.1406,-5.1406,-5.1406,-5.1406,-5.1406,-5.1406,-5.1379,-5.1297,-5.0658,-5.0356,-5.0221,-4.9229,-4.8411,-4.7644,-4.6567,-4.5988,-4.5738,-4.5738,-4.568,-4.5586,-4.5586,-4.5586,-4.5586,-4.5586,-4.5586,-4.5586,-4.5586,-4.5586,-4.5586,-4.5586,-4.5586,-4.5586,-4.5586,-4.5586,-4.5586,-4.5586,-4.5586,-4.5413,-4.4778,-4.4451,-4.3912,-4.2701,-4.2124,-4.1585,-4.095,-4.0642,-4.0489,-4.0489,-3.9988,-3.9296,-3.845,-3.7796,-3.7315,-3.7084,-3.6315,-3.5834,-3.5834,-3.5622,-3.5493,-3.5493,-3.5493,-3.5493,-3.5493,-3.5493,-3.5493,-3.5493,-3.5493,-3.5622,-3.5834,-3.5834,-3.6276,0.0,0.0,-4.1308,-4.2129,-4.3652,-4.5176,-4.5996,-4.6191,-4.623,-4.6289,-4.6308,-4.6308,-4.6308,-4.6308,-4.6308,-4.6308,-4.7012,-4.7266,-4.6426,-4.7031,-4.7246,-4.6406,-4.6308,-4.6308,0.0,-4.7109,-4.7988,-4.8848,-4.9726,-5.0586,-5.1367,-5.1406,-5.1406,-5.1406,-5.1406,-5.1406,-5.1406,-5.1406,-5.1406,-5.1406,-5.1406,-5.1406,-5.1406,-5.1406,-5.1406,-5.1406,-5.1406,-5.1323,-5.1199,-5.1322,-5.1273,-5.1068,-5.0125,-4.974,-4.9471,-4.7586,-4.6336,-4.5605,-4.5605,-4.5586,-4.5586,-4.5586,-4.5586,-4.5586,-4.5586,-4.5586,-4.5586,-4.5586,-4.5586,-4.5586,-4.5586,-4.5586,-4.5586,-4.5586,-4.5586,-4.5586,-4.5586,-4.5586,-4.5586,-4.5566,-4.4874,-4.4278,-4.422,-4.2874,-4.1797,-4.1758,-4.1046,-4.0489,-4.0489,-4.0469,-4.0142,-3.9354,-3.9238,-3.8873,-3.8027,-3.7161,-3.6661,-3.6661,-3.593,-3.5493,-3.5493,-3.5493,-3.5493,-3.5493,-3.5493,-3.5493,-3.5493,-3.5493,-3.5911,-3.6661,-3.6661,-3.7142,0.0,0.0,-4.3066,-4.3906,-4.5,-4.5937,-4.623,-4.6228,-4.6166,-4.6166,-4.5663,-4.5254,-4.5292,-4.5332,-4.5391,-4.543,-4.6641,-4.7305,-4.6426,-4.7558,-4.793,-4.6465,-4.6816,0.0,0.0,0.0,0.0,-4.8828,-4.9707,-5.0547,-5.1367,-5.1406,-5.1406,-5.1406,-5.1406,-5.1406,-5.1406,-5.1406,-5.1406,-5.1406,-5.1406,-5.1406,-5.1406,-5.1406,-5.1406,-5.1406,-5.1406,-5.1374,-5.133,-5.1295,-5.1249,-5.1167,-5.0714,-5.019,-4.951,-4.8182,-4.7182,-4.6374,-4.5797,-4.5586,-4.5586,-4.5586,-4.5586,-4.5586,-4.5586,-4.5586,-4.5586,-4.5586,-4.5586,-4.5586,-4.5586,-4.5586,-4.5586,-4.5586,-4.5586,-4.5586,-4.5586,-4.5586,-4.5586,-4.5586,-4.5355,-4.497,-4.4393,-4.3835,-4.3085,-4.197,-4.1066,-4.0489,-4.0489,-4.0489,-4.0392,-4.0123,-3.9623,-3.9181,-3.8892,-3.8065,-3.7565,-3.7565,-3.7315,-3.6911,-3.6334,-3.6315,-3.6065,-3.5512,-3.6026,-3.6315,-3.6315,-3.6892,-3.7296,-3.7565,-3.7565,-3.8027,0.0,-4.3206,-4.3929,-4.5105,-4.5772,-4.617,-4.617,-4.6084,-4.5873,-4.525,-4.4401,-4.3704,-4.3454,-4.323,-4.3398,-4.4336,-4.5976,-4.7051,-4.6797,-4.8262,-4.8828,-4.7402,-4.7715,-4.7832,0.0,0.0,0.0,-4.8867,-4.9707,-5.0547,-5.1367,-5.1406,-5.1406,-5.1406,-5.1406,-5.1406,-5.1406,-5.1406,-5.1406,-5.1406,-5.1406,-5.1406,-5.1406,-5.1406,-5.1406,-5.1406,-5.1406,-5.1367,-5.1327,-5.1297,-5.1229,-5.114,-5.1014,-5.0608,-4.9933,-4.8952,-4.8048,-4.7163,-4.599,-4.5586,-4.5586,-4.5586,-4.5586,-4.5586,-4.5586,-4.5586,-4.5586,-4.5586,-4.5586,-4.5586,-4.5586,-4.5586,-4.5586,-4.5586,-4.5586,-4.5586,-4.5586,-4.5586,-4.5586,-4.5586,-4.5586,-4.5413,-4.4855,-4.4509,-4.3739,-4.2047,-4.1316,-4.0854,-4.0527,-4.0489,-4.0489,-4.0489,-4.0027,-3.9719,-3.9719,-3.895,-3.845,-3.845,-3.8161,-3.7757,-3.7199,-3.7161,-3.693,-3.6411,-3.6911,-3.7161,-3.718,-3.7738,-3.8161,-3.845,-3.845,-3.8911,-4.3371,-4.3713,-4.4122,-4.5699,-4.6009,-4.59,-4.59,-4.5822,-4.5297,-4.3665,-4.2545,-4.1634,0.0,0.0,-4.0644,-4.3027,-4.5078,-4.666,-4.748,-4.9101,-4.9883,0.0,0.0,0.0,0.0,0.0,0.0,-4.8965,0.0,-5.0547,-5.1367,-5.1406,-5.1406,-5.1406,-5.1406,-5.1406,-5.1406,-5.1406,-5.1406,-5.1406,-5.1406,-5.1406,-5.1406,-5.1406,-5.1406,-5.1406,-5.1406,-5.1328,-5.1211,-5.1348,-5.1289,-5.1087,-5.1095,-5.1015,-5.0779,-4.976,-4.8856,-4.7875,-4.622,-4.5624,-4.5586,-4.5586,-4.5586,-4.5586,-4.5586,-4.5586,-4.5586,-4.5586,-4.5586,-4.5586,-4.5586,-4.5586,-4.5586,-4.5586,-4.5586,-4.5586,-4.5586,-4.5586,-4.5586,-4.5586,-4.5586,-4.5586,-4.5586,-4.4874,-4.3758,-4.2181,-4.1854,-4.1489,-4.0604,-4.0489,-4.0489,-4.0489,-4.0489,-4.0489,-4.0489,-3.9796,-3.9354,-3.9354,-3.8584,-3.8104,-3.8065,-3.8065,-3.8046,-3.8007,-3.8046,-3.8065,-3.8065,-3.8104,-3.8546,-3.9354,-3.9354,-3.9758,-4.4163,-4.5084,-4.5683,-4.6017,-4.6073,-4.6017,-4.592,-4.4873,-4.3603,-4.2568,-4.0592,-3.8618,-3.7267,0.0,0.0,-4.0817,-4.4453,0.0,-4.7578,-4.9101,0.0,0.0,0.0,-4.9609,-4.8965,-4.9492,0.0,0.0,-5.0078,-5.0547,-5.1367,-5.1406,-5.1406,-5.1406,-5.1406,-5.1406,-5.1406,-5.1406,-5.1406,-5.1406,-5.1406,-5.1406,-5.1406,-5.1406,-5.1406,-5.1406,-5.1406,-5.1387,-5.1348,-5.1387,-5.1308,-5.1183,-5.112,-5.1026,-5.0779,-4.976,-4.8856,-4.7952,-4.6913,-4.6144,-4.5586,-4.5586,-4.5586,-4.5586,-4.5586,-4.5586,-4.5586,-4.5586,-4.5586,-4.5586,-4.5586,-4.5586,-4.5586,-4.5586,-4.5586,-4.5586,-4.5586,-4.5586,-4.5586,-4.5586,-4.5586,-4.5586,-4.5586,-4.4874,-4.4143,-4.372,-4.2604,-4.1489,-4.0604,-4.0489,-4.0489,-4.0489,-4.0489,-4.0489,-4.0489,-4.0296,-4.0181,-4.0181,-3.9988,-3.9585,-3.8988,-3.8969,-3.8661,-3.8007,-3.8642,-3.8969,-3.8969,-3.9565,-3.9969,-4.0181,-4.0181,-4.0296,-4.5706,-4.6421,-4.6752,-4.6683,-4.6331,-4.5584,-4.3984,-4.2845,-4.1324,-3.8575,-3.6521,0.0,-3.3646,0.0,0.0,0.0,0.0,0.0,-4.7969,-4.9336,-5.0156,0.0,-5.043,0.0,-5.0039,-5.0449,-5.0723,0.0,-5.0723,-5.0918,-5.1387,-5.1406,-5.1406,-5.1406,-5.1406,-5.1406,-5.1406,-5.1406,-5.1406,-5.1406,-5.1406,-5.1406,-5.1406,-5.1406,-5.1406,-5.1406,0.0,-5.1406,-5.1406,-5.1406,-5.1327,-5.1194,-5.1136,-5.1029,-5.0779,-4.976,-4.8856,-4.799,-4.7182,-4.6336,-4.5586,-4.5586,-4.5586,-4.5586,-4.5586,-4.5586,-4.5586,-4.5586,-4.5586,-4.5586,-4.5586,-4.5586,-4.5586,-4.5586,-4.5586,-4.5586,-4.5586,-4.5586,-4.5586,-4.5586,-4.5586,-4.5586,-4.5586,-4.5182,-4.4739,-4.4355,-4.3201,-4.2066,-4.1181,-4.0739,-4.0489,-4.0489,-4.0489,-4.0489,-4.0489,-4.0489,-4.0489,-4.0489,-4.0489,-4.0296,-3.9835,-3.9815,-3.9604,-3.9104,-3.9565,-3.9815,-3.9815,-4.0277,-4.0489,-4.0489,-4.0489,-4.0489,-4.7193,-4.7344,-4.7246,-4.7226,-4.6493,-4.4877,-4.1489,-4.0424,-3.8777,-3.3789,0.0,0.0,-3.0151,0.0,-3.4275,-3.7533,0.0,-4.4746,-4.8242,-4.9473,-5.0332,-5.1133,-5.1328,-5.1406,-5.1406,-5.1406,-5.1406,-5.1406,-5.1406,-5.1406,-5.1406,-5.1406,-5.1406,-5.1406,-5.1406,-5.1406,-5.1406,-5.1406,-5.1406,-5.1406,-5.1406,-5.1406,-5.1406,-5.1406,-5.1406,-5.1406,-5.1406,-5.1406,-5.1406,-5.1406,-5.1328,-5.1188,-5.1133,-5.0952,-5.0625,-4.9721,-4.8779,-4.7836,-4.7144,-4.6336,-4.5586,-4.5586,-4.5586,-4.5586,-4.5586,-4.5586,-4.5586,-4.5586,-4.5586,-4.5586,-4.5586,-4.5586,-4.5586,-4.5586,-4.5586,-4.5586,-4.5586,-4.5586,-4.5586,-4.5586,-4.5586,-4.5586,-4.5586,-4.5586,-4.5336,-4.4586,-4.3778,-4.2951,-4.2085,-4.1104,-4.0489,-4.0489,-4.0489,-4.0489,-4.0489,-4.0489,-4.0489,-4.0489,-4.0489,-4.0489,-4.0489,-4.0489,-4.0489,-4.0489,-4.0489,-4.0489,-4.0489,-4.0489,-4.0489,-4.0489,-4.0489,-4.0489,-4.6484,-4.6504,-4.6465,-4.6348,-4.5659,-4.4255,-4.1429,-3.9104,0.0,0.0,0.0,-2.9102,-2.7618,-3.0552,0.0,-3.5994,0.0,0.0,0.0,0.0,-4.9433,0.0,0.0,0.0,0.0,0.0,0.0,0.0,0.0,-5.1406,-5.1406,-5.1406,-5.1406,-5.1406,-5.1406,-5.1406,-5.1406,-5.1406,-5.1406,-5.1406,-5.1406,-5.1406,-5.1406,-5.1406,-5.1406,-5.1406,-5.1406,0.0,-5.1406,-5.1406,-5.1328,-5.119,-5.112,-5.0579,-4.9779,-4.951,-4.8432,-4.7086,-4.6951,-4.6336,-4.5586,-4.5586,-4.5586,-4.5586,-4.5586,-4.5586,-4.5586,-4.5586,-4.5586,-4.5586,-4.5586,-4.5586,-4.5586,-4.5586,-4.5586,-4.5586,-4.5586,-4.5586,-4.5586,-4.5586,-4.5586,-4.5586,-4.5586,-4.5586,-4.5547,-4.5393,-4.4643,-4.3797,-4.2989,-4.147,-4.0489,-4.0489,-4.0489,-4.0489,-4.0489,-4.0489,-4.0489,-4.0489,-4.0489,-4.0489,-4.0489,-4.0489,-4.0489,-4.0489,-4.0489,-4.0489,-4.0489,-4.0489,-4.0489,-4.0489,-4.0489,-4.0489,-4.6973,-4.6973,-4.6953,-4.6894,-4.5547,-4.3182,-3.9165,0.0,0.0,0.0,0.0,-2.7005,-2.6264,0.0,0.0,0.0,0.0,0.0,0.0,0.0,0.0,0.0,0.0,0.0,0.0,0.0,0.0,0.0,0.0,-5.1406,-5.1406,-5.1406,-5.1406,-5.1406,-5.1406,-5.1406,-5.1406,-5.1406,-5.1406,-5.1406,-5.1406,-5.1406,-5.1406,-5.1406,-5.1406,-5.1406,-5.1406,-5.1406,-5.1406,-5.1406,-5.1367,-5.1289,-5.1187,-5.0558,-4.9624,-4.9028,-4.8028,-4.6836,-4.6374,-4.5951,-4.5586,-4.5586,-4.5586,-4.5586,-4.5586,-4.5586,-4.5586,-4.5586,-4.5586,-4.5586,-4.5586,-4.5586,-4.5586,-4.5586,-4.5586,-4.5586,-4.5586,-4.5586,-4.5586,-4.5586,-4.5586,-4.5586,-4.5586,-4.5586,-4.5586,-4.5586,-4.4855,-4.4008,-4.3201,-4.197,-4.0989,-4.0546,-4.0489,-4.0489,-4.0489,-4.0489,-4.0489,-4.0489,-4.0489,-4.0489,-4.0489,-4.0489,-4.0489,-4.0489,-4.0489,-4.0489,-4.0489,-4.0489,-4.0489,-4.0489,-4.0489,-4.0489,-4.7266,-4.7324,-4.7324,-4.7324,-4.5351,-4.2109,-3.707,-3.4434,0.0,0.0,0.0,-2.553,-2.5569,0.0,0.0,0.0,0.0,0.0,0.0,0.0,0.0,0.0,0.0,0.0,0.0,0.0,0.0,0.0,0.0,0.0,-5.1406,-5.1406,-5.1406,-5.1406,-5.1406,-5.1406,-5.1406,-5.1406,-5.1406,-5.1406,-5.1406,-5.1406,-5.1406,-5.1406,-5.1406,-5.1406,-5.1406,-5.1406,-5.1406,-5.1406,-5.1406,-5.1367,-5.1055,-5.0355,-4.9399,-4.839,-4.7431,-4.6528,-4.5836,-4.5586,-4.5586,-4.5586,-4.5586,-4.5586,-4.5586,-4.5586,-4.5586,-4.5586,-4.5586,-4.5586,-4.5586,-4.5586,-4.5586,-4.5586,-4.5586,-4.5586,-4.5586,-4.5586,-4.5586,-4.5586,-4.5586,-4.5586,-4.5586,-4.5586,-4.5586,-4.5586,-4.5009,-4.4278,-4.3451,-4.2604,-4.1739,-4.0873,-4.0604,-4.0489,-4.0489,-4.0489,-4.0489,-4.0489,-4.0489,-4.0489,-4.0489,-4.0489,-4.0489,-4.0489,-4.0489,-4.0489,-4.0489,-4.0489,-4.0489,-4.0489,-4.0489,-4.0489,-4.6191,-4.6426,-4.6426,-4.6426,-4.4453,-4.1367,-3.6992,0.0,0.0,0.0,-2.5542,-2.5493,-2.5512,0.0,0.0,0.0,0.0,0.0,0.0,0.0,0.0,0.0,0.0,0.0,0.0,0.0,0.0,0.0,0.0,0.0,-5.1406,-5.1406,-5.1406,-5.1406,-5.1406,-5.1406,-5.1406,-5.1406,-5.1406,-5.1406,-5.1406,-5.1406,-5.1406,-5.1406,-5.1406,-5.1406,-5.1406,-5.1406,0.0,-5.1406,-5.1406,-5.1308,-5.0449,-4.9497,-4.8496,-4.7488,-4.6528,-4.5701,-4.5624,-4.5586,-4.5586,-4.5586,-4.5586,-4.5586,-4.5586,-4.5586,-4.5586,-4.5586,-4.5586,-4.5586,-4.5586,-4.5586,-4.5586,-4.5586,-4.5586,-4.5586,-4.5586,-4.5586,-4.5586,-4.5586,-4.5586,-4.5586,-4.5586,-4.5586,-4.5586,-4.5586,-4.5528,-4.5163,-4.4297,-4.3489,-4.2643,-4.1777,-4.0969,-4.0489,-4.0489,-4.0489,-4.0489,-4.0489,-4.0489,-4.0489,-4.0489,-4.0489,-4.0489,-4.0489,-4.0489,-4.0489,-4.0489,-4.0489,-4.0489,-4.0489,-4.0489,-4.0489,-4.5137,-4.5898,-4.6308,-4.6308,-4.3965,-4.0684,-3.6875,0.0,0.0,-2.6445,-2.5641,-2.5629,-2.5629,-2.5921,-2.6794,0.0,-2.9619,-3.168,0.0,0.0,0.0,0.0,0.0,0.0,0.0,0.0,0.0,0.0,0.0,0.0,-5.1406,-5.1406,-5.1406,-5.1406,-5.1406,-5.1406,-5.1406,-5.1406,-5.1406,-5.1406,-5.1406,-5.1406,-5.1406,-5.1406,-5.1406,-5.1406,-5.1406,-5.1406,0.0,-5.1406,-5.1113,-5.0644,-5.0273,-4.9195,-4.7786,-4.7303,-4.6527,-4.5719,-4.5624,-4.5586,-4.5586,-4.5586,-4.5586,-4.5586,-4.5586,-4.5586,-4.5586,-4.5586,-4.5586,-4.5586,-4.5586,-4.5586,-4.5586,-4.5586,-4.5586,-4.5586,-4.5586,-4.5586,-4.5586,-4.5586,-4.5586,-4.5586,-4.5586,-4.5586,-4.5586,-4.5586,-4.5586,-4.5278,-4.4412,-4.3605,-4.2777,-4.1893,-4.1027,-4.0489,-4.0489,-4.0489,-4.0489,-4.0489,-4.0489,-4.0489,-4.0489,-4.0489,-4.0489,-4.0489,-4.0489,-4.0489,-4.0489,-4.0489,-4.0489,-4.0489,-4.0489,-4.0489,-4.3398,-4.4687,-4.5527,-4.5527,-4.2969,-3.959,0.0,0.0,-2.9609,-2.6367,-2.5703,-2.5703,-2.5703,-2.5703,-2.5996,-2.6855,-2.7422,-2.9277,-3.3574,0.0,0.0,0.0,0.0,0.0,0.0,0.0,0.0,0.0,0.0,0.0,-5.1406,-5.1406,-5.1406,-5.1406,-5.1406,-5.1406,-5.1406,-5.1406,-5.1406,-5.1406,-5.1406,-5.1406,-5.1406,-5.1406,-5.1406,-5.1406,-5.1406,-5.1406,0.0,-5.1133,-5.0703,-5.0156,-4.9629,-4.8594,-4.7361,-4.6999,-4.6424,-4.5796,-4.5699,-4.5624,-4.5586,-4.5586,-4.5586,-4.5586,-4.5586,-4.5586,-4.5586,-4.5586,-4.5586,-4.5586,-4.5586,-4.5586,-4.5586,-4.5586,-4.5586,-4.5586,-4.5586,-4.5586,-4.5586,-4.5586,-4.5586,-4.5586,-4.5586,-4.5586,-4.5586,-4.5586,-4.5586,-4.5374,-4.4759,-4.3951,-4.3124,-4.2277,-4.1393,-4.0777,-4.0508,-4.0489,-4.0489,-4.0489,-4.0489,-4.0489,-4.0489,-4.0489,-4.0489,-4.0489,-4.0489,-4.0489,-4.0489,-4.0489,-4.0489,-4.0489,-4.0489,-4.0489,-4.0762,-4.2461,-4.373,-4.373,-4.1152,-3.7949,0.0,-3.207,-2.8867,-2.623,-2.5703,-2.5703,-2.5703,-2.5703,-2.5996,-2.6855,-2.8457,-3.1074,0.0,0.0,0.0,0.0,0.0,0.0,0.0,0.0,0.0,0.0,0.0,0.0,-5.1406,-5.1406,-5.1406,-5.1406,-5.1406,-5.1406,-5.1406,-5.1406,-5.1406,-5.1406,-5.1406,-5.1406,-5.1406,-5.1406,-5.1406,-5.1406,-5.1406,-5.1406,0.0,-5.0547,-5.0215,-5.0039,-4.8301,-4.7539,-4.7305,-4.6426,-4.5986,-4.5796,-4.5796,-4.5719,-4.5586,-4.5586,-4.5586,-4.5586,-4.5586,-4.5586,-4.5586,-4.5586,-4.5586,-4.5586,-4.5586,-4.5586,-4.5586,-4.5586,-4.5586,-4.5586,-4.5586,-4.5586,-4.5586,-4.5586,-4.5586,-4.5586,-4.5586,-4.5586,-4.5586,-4.5586,-4.5586,-4.5586,-4.5586,-4.4816,-4.397,-4.3162,-4.2316,-4.145,-4.0566,-4.0489,-4.0489,-4.0489,-4.0489,-4.0489,-4.0489,-4.0489,-4.0489,-4.0489,-4.0489,-4.0489,-4.0489,-4.0489,-4.0489,-4.0489,-4.0489,-4.0489,-3.6445,-3.8008,-3.918,-3.8594,-3.6738,-3.4531,-3.2559,-3.0332,-2.8144,-2.6113,-2.5703,-2.5703,-2.5703,-2.5703,-2.6562,-2.9238,-3.0137,0.0,0.0,0.0,0.0,0.0,0.0,0.0,0.0,0.0,0.0,0.0,0.0,0.0,-5.1406,-5.1406,-5.1406,-5.1406,-5.1406,-5.1406,-5.1406,-5.1406,-5.1406,-5.1406,-5.1406,-5.1406,-5.1406,-5.1406,-5.1406,-5.1406,-5.1406,-5.1094,-5.0566,-5.0312,-4.9492,-4.8379,-4.7812,-4.7207,-4.6601,-4.623,-4.6002,-4.5859,-4.5819,-4.5719,-4.5586,-4.5586,-4.5586,-4.5586,-4.5586,-4.5586,-4.5586,-4.5586,-4.5586,-4.5586,-4.5586,-4.5586,-4.5586,-4.5586,-4.5586,-4.5586,-4.5586,-4.5586,-4.5586,-4.5586,-4.5586,-4.5586,-4.5586,-4.5586,-4.5586,-4.5586,-4.5586,-4.5586,-4.5586,-4.4355,-4.3374,-4.3124,-4.1797,-4.0796,-4.0508,-4.0489,-4.0489,-4.0489,-4.0489,-4.0489,-4.0489,-4.0489,-4.0489,-4.0489,-4.0489,-4.0489,-4.0489,-4.0489,-4.0489,-4.0489,-4.0489,-4.0489,0.0,-3.4512,-3.5703,-3.5156,-3.373,-3.2109,-3.0723,-2.9062,-2.7402,-2.5996,-2.5703,-2.5703,-2.5703,-2.5703,-2.6406,-2.8594,-2.9766,0.0,0.0,0.0,0.0,0.0,0.0,0.0,0.0,0.0,0.0,0.0,0.0,0.0,-5.1406,-5.1406,-5.1406,-5.1406,-5.1406,-5.1406,-5.1406,-5.1406,-5.1406,-5.1406,-5.1406,-5.1406,-5.1406,-5.1406,-5.1406,-5.1406,-5.1406,-5.0937,0.0,-4.9844,-4.8887,-4.7578,-4.7246,-4.6777,-4.6289,-4.6211,-4.608,-4.5956,-4.5873,-4.5776,-4.568,-4.5605,-4.5586,-4.5586,-4.5586,-4.5586,-4.5586,-4.5586,-4.5586,-4.5586,-4.5586,-4.5586,-4.5586,-4.5586,-4.5586,-4.5586,-4.5586,-4.5586,-4.5586,-4.5586,-4.5586,-4.5586,-4.5586,-4.5586,-4.5586,-4.5586,-4.5586,-4.5586,-4.5586,-4.4393,-4.3431,-4.3124,-4.1835,-4.0854,-4.0527,-4.0489,-4.0489,-4.0489,-4.0489,-4.0489,-4.0489,-4.0489,-4.0489,-4.0489,-4.0489,-4.0489,-4.0489,-4.0489,-4.0489,-4.0489,-4.0489,-4.0489,0.0,-3.1523,-3.2754,-3.2754,-3.1582,-3.0234,-2.9492,-2.8066,0.0,-2.5879,-2.5703,-2.5742,-2.5859,-2.582,-2.5918,-2.6289,0.0,0.0,0.0,0.0,0.0,0.0,0.0,0.0,0.0,0.0,0.0,0.0,0.0,0.0,-5.1406,-5.1406,-5.1406,-5.1406,-5.1406,-5.1406,-5.1406,-5.1406,-5.1406,-5.1406,-5.1406,-5.1406,-5.1406,-5.1406,-5.1406,0.0,-5.1348,-5.0859,-5.0039,-4.918,-4.8281,-4.7422,-4.6621,-4.6308,-4.6308,-4.6308,-4.6211,-4.6083,-4.5964,-4.5851,-4.5776,-4.5624,-4.5586,-4.5586,-4.5586,-4.5586,-4.5586,-4.5586,-4.5586,-4.5586,-4.5586,-4.5586,-4.5586,-4.5586,-4.5586,-4.5586,-4.5586,-4.5586,-4.5586,-4.5586,-4.5586,-4.5586,-4.5586,-4.5586,-4.5586,-4.5586,-4.5586,-4.5566,-4.5509,-4.4739,-4.3893,-4.3085,-4.2239,-4.1373,-4.0566,-4.0489,-4.0489,-4.0489,-4.0489,-4.0489,-4.0489,-4.0489,-4.0489,-4.0489,-4.0489,-4.0489,-4.0489,-4.0489,-4.0489,-4.0489,-4.0489,-4.0489,-2.4551,0.0,-2.6523,-2.6523,-2.6211,-2.6055,0.0,-2.6309,-2.5957,0.0,0.0,-2.6113,-2.7441,-2.7148,-2.7988,0.0,0.0,0.0,0.0,0.0,0.0,0.0,0.0,0.0,0.0,0.0,0.0,0.0,0.0,-5.1406,-5.1406,-5.1406,-5.1406,-5.1406,-5.1406,-5.1406,-5.1406,-5.1406,-5.1406,-5.1406,-5.1406,-5.1406,-5.1406,-5.1406,-5.1406,-5.1367,-5.0742,-5.0,-4.9141,-4.8262,-4.7383,-4.6582,-4.6387,-4.6308,-4.6308,-4.6308,-4.6212,-4.6079,-4.5949,-4.5866,-4.5776,-4.5624,-4.5586,-4.5586,-4.5586,-4.5586,-4.5586,-4.5586,-4.5586,-4.5586,-4.5586,-4.5586,-4.5586,-4.5586,-4.5586,-4.5586,-4.5586,-4.5586,-4.5586,-4.5586,-4.5586,-4.5586,-4.5586,-4.5586,-4.5586,-4.5586,-4.5586,-4.5355,-4.4682,-4.3893,-4.3047,-4.22,-4.1335,-4.0719,-4.0508,-4.0489,-4.0489,-4.0489,-4.0489,-4.0489,-4.0489,-4.0489,-4.0489,-4.0489,-4.0489,-4.0489,-4.0489,-4.0489,-4.0489,-4.0489,-4.0489,-4.0489,-2.1875,-2.3769,-2.5586,-2.5586,-2.5898,-2.6309,-2.6797,0.0,0.0,0.0,0.0,0.0,-2.7461,0.0,0.0,0.0,0.0,0.0,0.0,0.0,0.0,0.0,0.0,0.0,0.0,0.0,0.0,0.0,0.0,-5.1406,-5.1406,-5.1406,-5.1406,-5.1406,-5.1406,-5.1406,-5.1406,-5.1406,-5.1406,-5.1406,-5.1406,-5.1406,-5.1387,-5.1016,-5.0859,-5.0801,-4.9961,-4.9101,-4.8262,-4.7793,-4.709,-4.6308,-4.6308,-4.6308,-4.6308,-4.6308,-4.6257,-4.6152,-4.5977,-4.5854,-4.5796,-4.5719,-4.5699,-4.568,-4.5605,-4.5586,-4.5586,-4.5586,-4.5586,-4.5586,-4.5586,-4.5586,-4.5586,-4.5586,-4.5586,-4.5586,-4.5586,-4.5586,-4.5586,-4.5586,-4.5586,-4.5586,-4.5586,-4.5586,-4.5586,-4.5586,-4.5586,-4.5432,-4.4951,-4.3855,-4.2912,-4.245,-4.1258,-4.0489,-4.0489,-4.0489,-4.0489,-4.0489,-4.0489,-4.0489,-4.0489,-4.0489,-4.0489,-4.0489,-4.0489,-4.0489,-4.0489,-4.0489,-4.0489,-4.0489,-4.0489,-4.0489,-2.0918,-2.4023,-2.707,-2.6543,-2.7168,-2.7891,-2.7891,0.0,0.0,0.0,0.0,0.0,0.0,0.0,0.0,0.0,0.0,0.0,0.0,0.0,0.0,0.0,0.0,0.0,0.0,0.0,0.0,0.0,0.0,-5.1016,-5.1016,-5.1016,-5.1016,-5.1016,-5.1016,-5.1016,-5.1016,-5.1269,-5.1406,-5.1406,-5.1289,-5.1211,-5.1191,-5.0371,-5.0,-4.9941,0.0,0.0,-4.7598,-4.7461,-4.6973,-4.6308,-4.6308,-4.6308,-4.6308,-4.6308,-4.6306,-4.6251,-4.6027,-4.588,-4.5803,-4.5806,-4.5811,-4.5776,-4.5624,-4.5586,-4.5586,-4.5586,-4.5586,-4.5586,-4.5586,-4.5586,-4.5586,-4.5586,-4.5586,-4.5586,-4.5586,-4.5586,-4.5586,-4.5586,-4.5586,-4.5586,-4.5586,-4.5586,-4.5586,-4.5586,-4.5586,-4.5547,-4.5413,-4.4047,-4.3047,-4.2912,-4.145,-4.0489,-4.0489,-4.0489,-4.0489,-4.0489,-4.0489,-4.0489,-4.0489,-4.0489,-4.0489,-4.0489,-4.0489,-4.0489,-4.0489,-4.0489,-4.0489,-4.0489,-4.0489,-4.0489,-2.2324,-2.5352,-2.7402,-2.4512,-2.4941,-2.6094,0.0,0.0,0.0,0.0,0.0,0.0,0.0,0.0,0.0,0.0,0.0,0.0,0.0,0.0,0.0,0.0,0.0,0.0,0.0,0.0,0.0,0.0,0.0,-4.9277,-4.9277,-4.9277,-4.9277,-4.9277,-4.9277,-4.9277,-4.9277,-5.0683,-5.1406,-5.1387,-5.0703,-5.0371,-5.0351,-4.9492,-4.9101,-4.9043,0.0,-4.7715,-4.7539,-4.6797,-4.6426,-4.6308,-4.6308,-4.6308,-4.6308,-4.6308,-4.6307,-4.627,-4.6125,-4.5996,-4.589,-4.582,-4.58,-4.5776,-4.5624,-4.5586,-4.5586,-4.5586,-4.5586,-4.5586,-4.5586,-4.5586,-4.5586,-4.5586,-4.5586,-4.5586,-4.5586,-4.5586,-4.5586,-4.5586,-4.5586,-4.5586,-4.5586,-4.5586,-4.5586,-4.5586,-4.5586,-4.5316,-4.4586,-4.3682,-4.2816,-4.2085,-4.1104,-4.0489,-4.0489,-4.0489,-4.0489,-4.0489,-4.0489,-4.0489,-4.0489,-4.0489,-4.0489,-4.0489,-4.0489,-4.0489,-4.0489,-4.0489,-4.0489,-4.0489,-4.0489,-4.0489,-2.1543,-2.3926,-2.5937,-2.4824,-2.7226,-2.9746,0.0,0.0,0.0,0.0,0.0,0.0,0.0,0.0,0.0,0.0,0.0,0.0,0.0,0.0,0.0,0.0,0.0,0.0,0.0,0.0,0.0,0.0,0.0,0.0,-4.8906,-4.8906,-4.8906,-4.8906,-4.8906,-4.8906,-4.8906,-4.9668,-5.0058,-5.0039,-4.9668,-4.9492,-4.9473,-4.8594,-4.8203,-4.8144,0.0,-4.6894,-4.6875,-4.6465,-4.6308,-4.6308,-4.6308,-4.6308,-4.6308,-4.6308,-4.625,-4.619,-4.6203,-4.6124,-4.6003,-4.5889,-4.586,-4.5815,-4.5643,-4.5586,-4.5586,-4.5586,-4.5586,-4.5586,-4.5586,-4.5586,-4.5586,-4.5586,-4.5586,-4.5586,-4.5586,-4.5586,-4.5586,-4.5586,-4.5586,-4.5586,-4.5586,-4.5586,-4.5586,-4.5586,-4.5201,-4.4739,-4.4355,-4.3181,-4.2239,-4.1854,-4.1027,-4.0489,-4.0489,-4.0489,-4.0489,-4.0489,-4.0489,-4.0489,-4.0489,-4.0489,-4.0489,-4.0489,-4.0489,-4.0489,-4.0489,-4.0489,-4.0489,-4.0489,-4.0489,-4.0489,-2.1094,-2.293,-2.4902,-2.5781,0.0,0.0,0.0,0.0,0.0,0.0,0.0,0.0,0.0,0.0,0.0,0.0,0.0,0.0,0.0,0.0,0.0,0.0,0.0,0.0,0.0,0.0,0.0,0.0,0.0,0.0,-4.8281,-4.8281,-4.8281,-4.8281,-4.8281,-4.8281,-4.8281,-4.8281,-4.8496,-4.8906,-4.8691,-4.8594,-4.8574,-4.7695,-4.7305,-4.7266,-4.6582,-4.6308,-4.6308,-4.6308,-4.6308,-4.6308,-4.6308,-4.6308,-4.6308,-4.6308,-4.623,-4.6152,-4.6269,-4.6228,-4.6125,-4.5982,-4.5922,-4.5873,-4.5699,-4.5605,-4.5586,-4.5586,-4.5586,-4.5586,-4.5586,-4.5586,-4.5586,-4.5586,-4.5586,-4.5586,-4.5586,-4.5586,-4.5586,-4.5586,-4.5586,-4.5586,-4.5586,-4.5586,-4.5528,-4.5316,-4.472,-4.422,-4.4047,-4.272,-4.1797,-4.1797,-4.1027,-4.0489,-4.0489,-4.0489,-4.0489,-4.0489,-4.0489,-4.0489,-4.0489,-4.0489,-4.0489,-4.0489,-4.0489,-4.0489,-4.0489,-4.0489,-4.0489,-4.0489,-4.0489,-4.0489,-2.2578,-2.4277,-2.582,-2.6699,0.0,0.0,0.0,0.0,0.0,0.0,0.0,0.0,0.0,0.0,0.0,0.0,0.0,0.0,0.0,0.0,0.0,0.0,0.0,0.0,0.0,0.0,0.0,0.0,0.0,0.0,-4.6484,-4.6484,-4.6484,-4.6484,-4.6484,-4.6484,-4.6484,-4.6484,-4.7305,-4.8887,-4.8086,-4.7695,-4.7656,-4.6797,-4.6387,-4.6387,-4.6328,-4.6308,-4.6308,-4.6308,-4.6308,-4.6308,-4.6308,-4.6308,-4.6308,-4.6308,-4.6289,-4.6289,-4.6308,-4.6288,-4.6267,-4.6132,-4.5994,-4.5892,-4.5815,-4.5699,-4.5586,-4.5586,-4.5586,-4.5586,-4.5586,-4.5586,-4.5586,-4.5586,-4.5586,-4.5586,-4.5586,-4.5586,-4.5586,-4.5586,-4.5586,-4.5586,-4.5586,-4.5586,-4.5316,-4.4509,-4.4335,-4.4028,-4.3278,-4.2374,-4.1797,-4.1797,-4.1027,-4.0489,-4.0489,-4.0489,-4.0489,-4.0489,-4.0489,-4.0489,-4.0489,-4.0489,-4.0489,-4.0489,-4.0489,-4.0489,-4.0489,-4.0489,-4.0489,-4.0489,-4.0489,-4.0489,-2.1406,-2.3594,-2.5918,-2.6777,0.0,0.0,0.0,0.0,0.0,0.0,0.0,0.0,0.0,0.0,0.0,0.0,0.0,0.0,0.0,0.0,0.0,0.0,0.0,0.0,0.0,0.0,0.0,0.0,0.0,0.0,-4.6308,-4.6308,-4.6308,-4.6308,-4.6308,-4.6308,-4.6308,-4.6308,-4.6621,-4.7285,-4.6953,-4.6797,-4.6777,-4.6445,-4.6308,-4.6308,-4.6308,-4.6308,-4.6308,-4.6308,-4.6308,-4.6308,-4.6308,-4.6308,-4.6308,-4.6308,-4.6308,-4.6308,-4.6308,-4.6308,-4.6289,-4.6133,-4.6006,-4.588,-4.5822,-4.5719,-4.5586,-4.5586,-4.5586,-4.5586,-4.5586,-4.5586,-4.5586,-4.5586,-4.5586,-4.5586,-4.5586,-4.5586,-4.5586,-4.5586,-4.5586,-4.5586,-4.5586,-4.5586,-4.5297,-4.4432,-4.3874,-4.3258,-4.2412,-4.1527,-4.0989,-4.0989,-4.07,-4.0489,-4.0489,-4.0489,-4.0489,-4.0489,-4.0489,-4.0489,-4.0489,-4.0489,-4.0489,-4.0489,-4.0489,-4.0489,-4.0489,-4.0489,-4.0489,-4.0489,-4.0489,-4.0489,-2.0664,-2.2891,-2.5566,0.0,0.0,0.0,0.0,0.0,0.0,0.0,0.0,0.0,0.0,0.0,0.0,0.0,0.0,0.0,0.0,0.0,0.0,0.0,0.0,0.0,0.0,0.0,0.0,0.0,0.0,0.0,-4.6308,-4.6308,-4.6308,-4.6308,-4.6308,-4.6308,-4.6308,-4.6308,-4.6308,-4.6308,-4.6308,-4.6308,-4.6308,-4.6308,-4.6308,-4.6308,-4.6308,-4.6308,-4.6308,-4.6308,-4.6308,-4.6308,-4.6308,-4.6308,-4.6308,-4.6308,-4.6308,-4.6308,-4.6308,-4.6308,-4.6289,-4.6191,-4.6078,-4.5947,-4.5862,-4.5757,-4.5643,-4.5605,-4.5586,-4.5586,-4.5586,-4.5586,-4.5586,-4.5586,-4.5586,-4.5586,-4.5586,-4.5586,-4.5586,-4.5586,-4.5586,-4.5586,-4.5586,-4.5355,-4.4893,-4.4047,-4.322,-4.2374,-4.1508,-4.0873,-4.0489,-4.0489,-4.0489,-4.0489,-4.0489,-4.0489,-4.0489,-4.0489,-4.0489,-4.0489,-4.0489,-4.0489,-4.0489,-4.0489,-4.0489,-4.0489,-4.0489,-4.0489,-4.0489,-4.0489,-4.0489,-4.0489,-2.0859,-2.248,0.0,0.0,0.0,0.0,0.0,0.0,0.0,0.0,0.0,0.0,0.0,0.0,0.0,0.0,0.0,0.0,0.0,0.0,0.0,0.0,0.0,0.0,0.0,0.0,0.0,0.0,0.0,0.0,-4.6308,-4.6308,-4.6308,-4.6308,-4.6308,-4.6308,-4.6308,-4.6308,-4.6308,-4.6308,-4.6308,-4.6308,-4.6308,-4.6308,-4.6308,-4.6308,-4.6308,-4.6308,-4.6308,-4.6308,-4.6308,-4.6308,-4.6308,-4.6308,-4.6308,-4.6308,-4.6308,-4.6308,-4.6308,-4.6308,-4.6308,-4.6308,-4.6211,-4.6083,-4.593,-4.5853,-4.5776,-4.5624,-4.5586,-4.5586,-4.5586,-4.5586,-4.5586,-4.5586,-4.5586,-4.5586,-4.5586,-4.5586,-4.5586,-4.5586,-4.5586,-4.5586,-4.5586,-4.4874,-4.4028,-4.322,-4.2354,-4.1489,-4.0604,-4.0489,-4.0489,-4.0489,-4.0489,-4.0489,-4.0489,-4.0489,-4.0489,-4.0489,-4.0489,-4.0489,-4.0489,-4.0489,-4.0489,-4.0489,-4.0489,-4.0489,-4.0489,-4.0489,-4.0489,-4.0489,-4.0489,-4.0489,-2.1738,0.0,0.0,0.0,0.0,0.0,0.0,0.0,0.0,0.0,0.0,0.0,0.0,0.0,0.0,0.0,0.0,0.0,0.0,0.0,0.0,0.0,0.0,0.0,0.0,0.0,0.0,0.0,0.0,-4.6308,-4.6308,-4.6308,-4.6308,-4.6308,-4.6308,-4.6308,-4.6308,-4.6308,-4.6308,-4.6308,-4.6308,-4.6308,-4.6308,-4.6308,-4.6308,-4.6308,-4.6308,-4.6308,-4.6308,-4.6308,-4.6308,-4.6308,-4.6308,-4.6308,-4.6308,-4.6308,-4.6308,-4.6308,-4.6308,-4.6308,-4.6308,-4.6308,-4.6211,-4.6093,-4.6054,-4.5956,-4.5853,-4.5815,-4.5776,-4.5738,-4.5738,-4.568,-4.5586,-4.5586,-4.5586,-4.5586,-4.5586,-4.5586,-4.5586,-4.5586,-4.5586,-4.5586,-4.5586,-4.4874,-4.4028,-4.322,-4.2354,-4.1489,-4.0604,-4.0489,-4.0489,-4.0489,-4.0489,-4.0489,-4.0489,-4.0489,-4.0489,-4.0489,-4.0489,-4.0489,-4.0489,-4.0489,-4.0489,-4.0489,-4.0489,-4.0489,-4.0489,-4.0489,-4.0489,-4.0489,-4.0489,-4.0489,-2.2832,0.0,0.0,0.0,0.0,0.0,0.0,0.0,0.0,0.0,0.0,0.0,0.0,0.0,0.0,0.0,0.0,0.0,0.0,0.0,0.0,0.0,0.0,0.0,0.0,0.0,0.0,0.0,-4.6308,-4.6308,-4.6308,-4.6308,-4.6308,-4.6308,-4.6308,-4.6308,-4.6308,-4.6308,-4.6308,-4.6308,-4.6308,-4.6308,-4.6308,-4.6308,-4.6308,-4.6308,-4.6308,-4.6308,-4.6308,-4.6308,-4.6308,-4.6308,-4.6308,-4.6308,-4.6308,-4.6308,-4.6308,-4.6308,-4.6308,-4.6308,-4.6308,-4.6308,-4.625,-4.6172,-4.6113,-4.6041,-4.5975,-4.5899,-4.5858,-4.5849,-4.583,-4.5776,-4.5699,-4.5605,-4.5586,-4.5586,-4.5586,-4.5586,-4.5586,-4.5586,-4.5586,-4.5586,-4.5586,-4.4605,-4.3662,-4.3162,-4.2066,-4.1085,-4.0566,-4.0489,-4.0489,-4.0489,-4.0489,-4.0489,-4.0489,-4.0489,-4.0489,-4.0489,-4.0489,-4.0489,-4.0489,-4.0489,-4.0489,-4.0489,-4.0489,-4.0489,-4.0489,-4.0489,-4.0489,-4.0489,-4.0489,-4.0489,0.0,0.0,0.0,0.0,0.0,0.0,0.0,0.0,0.0,0.0,0.0,0.0,0.0,0.0,0.0,0.0,0.0,0.0,0.0,0.0,0.0,0.0,0.0,0.0,0.0,0.0,0.0,0.0,-4.6308,-4.6308,-4.6308,-4.6308,-4.6308,-4.6308,-4.6308,-4.6308,-4.6308,-4.6308,-4.6308,-4.6308,-4.6308,-4.6308,-4.6308,-4.6308,-4.6308,-4.6308,-4.6308,-4.6308,-4.6308,-4.6308,-4.6308,-4.6308,-4.6308,-4.6308,-4.6308,-4.6308,-4.6308,-4.6308,-4.6308,-4.6308,-4.6308,-4.6308,-4.6308,-4.6289,-4.6152,-4.6113,-4.6091,-4.5982,-4.5932,-4.591,-4.5912,-4.5907,-4.5847,-4.5673,-4.562,-4.5624,-4.5624,-4.5605,-4.5605,-4.5605,-4.5528,-4.547,-4.547,-4.4085,-4.2951,-4.2874,-4.1508,-4.0489,-4.0489,-4.0489,-4.0489,-4.0489,-4.0489,-4.0489,-4.0489,-4.0489,-4.0489,-4.0489,-4.0489,-4.0489,-4.0489,-4.0489,-4.0489,-4.0489,-4.0489,-4.0489,-4.0489,-4.0489,-4.0489,-4.0489,-4.0489,-4.0489,0.0,0.0,0.0,0.0,0.0,0.0,0.0,0.0,0.0,0.0,0.0,0.0,0.0,0.0,0.0,0.0,0.0,0.0,0.0,0.0,0.0,0.0,0.0,0.0,0.0,0.0,0.0,-4.6308,-4.6308,-4.6308,-4.6308,-4.6308,-4.6308,-4.6308,-4.6308,-4.6308,-4.6308,-4.6308,-4.6308,-4.6308,-4.6308,-4.6308,-4.6308,-4.6308,-4.6308,-4.6308,-4.6308,-4.6308,-4.6308,-4.6308,-4.6308,-4.6308,-4.6308,-4.6308,-4.6308,-4.6308,-4.6308,-4.6308,-4.6308,-4.6308,-4.6308,-4.6308,-4.6308,-4.6289,-4.6269,-4.6269,-4.625,-4.6225,-4.6143,-4.605,-4.6066,-4.5974,-4.5899,-4.5861,-4.5838,-4.5834,-4.5834,-4.5796,-4.5757,-4.5757,-4.5105,-4.4586,-4.4586,-4.3181,-4.1854,-4.1162,-4.0739,-4.0489,-4.0489,-4.0489,-4.0489,-4.0489,-4.0489,-4.0489,-4.0489,-4.0489,-4.0489,-4.0489,-4.0489,-4.0489,-4.0489,-4.0489,-4.0489,-4.0489,-4.0489,-4.0489,-4.0489,-4.0489,-4.0489,-4.0489,-4.0489,-4.0489,0.0,0.0,0.0,0.0,0.0,0.0,0.0,0.0,0.0,0.0,0.0,0.0,0.0,0.0,0.0,0.0,0.0,0.0,0.0,0.0,0.0,0.0,0.0,0.0,0.0,0.0,0.0,-4.6308,-4.6308,-4.6308,-4.6308,-4.6308,-4.6308,-4.6308,-4.6308,-4.6308,-4.6308,-4.6308,-4.6308,-4.6308,-4.6308,-4.6308,-4.6308,-4.6308,-4.6308,-4.6308,-4.6308,-4.6308,-4.6308,-4.6308,-4.6308,-4.6308,-4.6308,-4.6308,-4.6308,-4.6308,-4.6308,-4.6308,-4.6308,-4.6308,-4.6308,-4.6308,-4.6308,-4.6308,-4.6308,-4.6308,-4.6308,-4.6308,-4.625,-4.6207,-4.6201,-4.6091,-4.6014,-4.6085,-4.5994,-4.5912,-4.5912,-4.5858,-4.5688,-4.5271,-4.4699,-4.4182,-4.3797,-4.2643,-4.1508,-4.0623,-4.0489,-4.0489,-4.0489,-4.0489,-4.0489,-4.0489,-4.0489,-4.0489,-4.0489,-4.0489,-4.0489,-4.0489,-4.0489,-4.0489,-4.0489,-4.0489,-4.0489,-4.0489,-4.0489,-4.0489,-4.0489,-4.0489,-4.0489,-4.0489,-4.0489,-4.0489,0.0,0.0,0.0,0.0,0.0,0.0,0.0,0.0,0.0,0.0,0.0,0.0,0.0,0.0,0.0,0.0,0.0,0.0,0.0,0.0,0.0,0.0,0.0,0.0,0.0,0.0,-4.6308,-4.6308,-4.6308,-4.6308,-4.6308,-4.6308,-4.6308,-4.6308,-4.6308,-4.6308,-4.6308,-4.6308,-4.6308,-4.6308,-4.6308,-4.6308,-4.6308,-4.6308,-4.6308,-4.6308,-4.6308,-4.6308,-4.6308,-4.6308,-4.6308,-4.6308,-4.6308,-4.6308,-4.6308,-4.6308,-4.6308,-4.6308,-4.6308,-4.6308,-4.6308,-4.6308,-4.6308,-4.6308,-4.6308,-4.6308,-4.6308,-4.6308,-4.6284,-4.6267,-4.6267,-4.6163,-4.609,-4.6208,-4.6066,-4.5909,-4.592,-4.5747,-4.5363,-4.4633,-4.416,-4.3605,-4.2797,-4.2047,-4.1335,-4.0604,-4.0489,-4.0489,-4.0489,-4.0489,-4.0489,-4.0489,-4.0489,-4.0489,-4.0489,-4.0489,-4.0489,-4.0489,-4.0489,-4.0489,-4.0489,-4.0489,-4.0489,-4.0489,-4.0489,-4.0489,-4.0489,-4.0489,-4.0489,-4.0489,-4.0489,-4.0489,0.0,0.0,0.0,0.0,0.0,0.0,0.0,0.0,0.0,0.0,0.0,0.0,0.0,0.0,0.0,0.0,0.0,0.0,0.0,0.0,0.0,0.0,0.0,0.0,0.0,0.0,-4.6308,-4.6308,-4.6308,-4.6308,-4.6308,-4.6308,-4.6308,-4.6308,-4.6308,-4.6308,-4.6308,-4.6308,-4.6308,-4.6308,-4.6308,-4.6308,-4.6308,-4.6308,-4.6308,-4.6308,-4.6308,-4.6308,-4.6308,-4.6308,-4.6308,-4.6308,-4.6308,-4.6308,-4.6308,-4.6308,-4.6308,-4.6308,-4.6308,-4.6308,-4.6308,-4.6308,-4.6308,-4.6308,-4.6308,-4.6308,-4.6308,-4.6308,-4.6227,-4.6128,-4.6128,-4.6028,-4.5936,-4.5959,-4.5932,-4.5939,-4.6055,-4.534,-4.4633,-4.4523,-4.3236,-4.1854,-4.0989,-4.0739,-4.0623,-4.0508,-4.0489,-4.0489,-4.0489,-4.0489,-4.0489,-4.0489,-4.0489,-4.0489,-4.0489,-4.0489,-4.0489,-4.0489,-4.0489,-4.0489,-4.0489,-4.0489,-4.0489,-4.0489,-4.0489,-4.0489,-4.0489,-4.0489,-4.0489,-4.0489,-4.0489,-4.0489,0.0,0.0,0.0,0.0,0.0,0.0,0.0,0.0,0.0,0.0,0.0,0.0,0.0,0.0,0.0,0.0,0.0,0.0,0.0,0.0,0.0,0.0,0.0,0.0,0.0,0.0,-4.5762,-4.6269,-4.6308,-4.6308,-4.6308,-4.6308,-4.6308,-4.6308,-4.6308,-4.6308,-4.6308,-4.6308,-4.6308,-4.6308,-4.6308,-4.6308,-4.6308,-4.6308,-4.6308,-4.6308,-4.6308,-4.6308,-4.6308,-4.6308,-4.6308,-4.6308,-4.6308,-4.6308,-4.6308,-4.6308,-4.6308,-4.6308,-4.6308,-4.6308,-4.6308,-4.6308,-4.6245,-4.6192,-4.6192,-4.6142,-4.608,-4.608,-4.6024,-4.599,-4.5998,-4.5908,-4.5844,-4.5905,-4.5441,-4.5051,-4.5173,-4.4814,-4.4198,-4.3179,-4.195,-4.095,-4.0566,-4.0489,-4.0489,-4.0489,-4.0489,-4.0489,-4.0489,-4.0489,-4.0489,-4.0489,-4.0489,-4.0489,-4.0489,-4.0489,-4.0489,-4.0489,-4.0489,-4.0489,-4.0489,-4.0489,-4.0489,-4.0489,-4.0489,-4.0489,-4.0489,-4.0489,-4.0489,-4.0489,-4.0489,-4.0489,0.0,0.0,0.0,0.0,0.0,0.0,0.0,0.0,0.0,0.0,0.0,0.0,0.0,0.0,0.0,0.0,0.0,0.0,0.0,0.0,0.0,0.0,0.0,0.0,0.0,0.0,-4.4941,-4.5586,-4.5644,-4.5644,-4.5644,-4.5644,-4.5644,-4.5644,-4.5644,-4.5644,-4.5644,-4.5859,-4.5976,-4.5976,-4.6191,-4.6308,-4.6308,-4.6308,-4.6308,-4.6308,-4.6308,-4.6308,-4.6308,-4.6308,-4.6308,-4.6308,-4.6308,-4.6308,-4.6308,-4.6308,-4.6308,-4.6308,-4.6308,-4.6308,-4.6289,-4.6261,-4.6182,-4.6084,-4.6065,-4.5979,-4.5897,-4.5897,-4.5897,-4.5832,-4.5591,-4.5488,-4.5391,-4.5238,-4.4566,-4.3951,-4.3833,-4.3814,-4.3352,-4.1777,-4.0931,-4.0489,-4.0489,-4.0489,-4.0489,-4.0489,-4.0489,-4.0489,-4.0489,-4.0489,-4.0489,-4.0489,-4.0489,-4.0489,-4.0489,-4.0489,-4.0489,-4.0489,-4.0489,-4.0489,-4.0489,-4.0489,-4.0489,-4.0489,-4.0489,-4.0489,-4.0489,-4.0489,-4.0489,-4.0489,-4.0489,-4.0489,0.0,0.0,0.0,0.0,0.0,0.0,0.0,0.0,0.0,0.0,0.0,0.0,0.0,0.0,0.0,0.0,0.0,0.0,0.0,0.0,0.0,0.0,0.0,0.0,0.0,-4.3769,-4.3789,-4.3828,-4.3848,-4.3848,-4.3848,-4.3848,-4.3848,-4.3848,-4.3848,-4.3848,-4.3848,-4.4648,-4.5078,-4.5078,-4.5918,-4.6308,-4.6308,-4.6308,-4.6308,-4.6308,-4.6308,-4.6308,-4.6308,-4.6308,-4.6308,-4.6308,-4.6308,-4.6308,-4.6308,-4.6308,-4.6308,-4.6308,-4.6308,-4.6308,-4.6282,-4.6138,-4.61,-4.6084,-4.595,-4.5909,-4.5907,-4.5907,-4.5849,-4.5618,-4.4793,-4.4487,-4.4182,-4.3431,-4.3201,-4.2931,-4.2124,-4.195,-4.1662,-4.0739,-4.0527,-4.0489,-4.0489,-4.0489,-4.0489,-4.0489,-4.0489,-4.0489,-4.0489,-4.0489,-4.0489,-4.0489,-4.0489,-4.0489,-4.0489,-4.0489,-4.0489,-4.0489,-4.0489,-4.0489,-4.0489,-4.0489,-4.0489,-4.0489,-4.0489,-4.0489,-4.0489,-4.0489,-4.0489,-4.0489,-4.0489,-4.0489,0.0,0.0,0.0,0.0,0.0,0.0,0.0,0.0,0.0,0.0,0.0,0.0,0.0,0.0,0.0,0.0,0.0,0.0,0.0,0.0,0.0,0.0,0.0,0.0,0.0,-4.2871,-4.3105,-4.3652,-4.3691,-4.3691,-4.3691,-4.3691,-4.3691,-4.3691,-4.3691,-4.3691,-4.3691,-4.4004,-4.418,-4.418,-4.4473,-4.4629,-4.4629,-4.4629,-4.4629,-4.4629,-4.4629,-4.5273,-4.6308,-4.6308,-4.6308,-4.6308,-4.6308,-4.6308,-4.6308,-4.6308,-4.6308,-4.6308,-4.6308,-4.6308,-4.6288,-4.6236,-4.6177,-4.6084,-4.6046,-4.5605,-4.5105,-4.5026,-4.4583,-4.4047,-4.3682,-4.3566,-4.3316,-4.247,-4.2335,-4.2124,-4.1162,-4.1412,-4.1546,-4.0662,-4.0489,-4.0489,-4.0489,-4.0489,-4.0489,-4.0489,-4.0489,-4.0489,-4.0489,-4.0489,-4.0489,-4.0489,-4.0489,-4.0489,-4.0489,-4.0489,-4.0489,-4.0489,-4.0489,-4.0489,-4.0489,-4.0489,-4.0489,-4.0489,-3.9988,-3.9969,-4.0489,-3.9969,-3.9719,-3.9719,-3.9719,-3.9719,0.0,0.0,0.0,0.0,0.0,0.0,0.0,0.0,0.0,0.0,0.0,0.0,0.0,0.0,0.0,0.0,0.0,0.0,0.0,0.0,0.0,0.0,0.0,0.0,0.0,-4.1992,-4.2246,-4.2812,-4.2851,0.0,-4.2851,-4.2851,-4.2851,-4.2851,-4.2851,-4.2851,-4.2851,-4.3125,-4.3262,-4.3262,-4.3555,-4.3691,-4.3691,-4.3691,-4.3691,-4.3691,-4.3691,-4.4355,-4.543,-4.543,-4.543,-4.543,-4.543,-4.543,-4.543,-4.543,-4.543,-4.543,-4.543,-4.543,-4.543,-4.5391,-4.5328,-4.5258,-4.522,-4.4757,-4.4254,-4.4153,-4.3717,-4.3201,-4.2838,-4.2527,-4.2143,-4.1604,-4.147,-4.1328,-4.0703,-4.1012,-4.1239,-4.0623,-4.0489,-4.0489,-4.0489,-4.0489,-4.0489,-4.0489,-4.0489,-4.0489,-4.0489,-4.0489,-4.0489,-4.0489,-4.0489,-4.0489,-4.0489,-4.0489,-4.0489,-4.0489,-4.0489,-4.0489,-4.0489,-4.0489,-4.0354,-4.0085,-3.9565,-3.9411,-3.9662,-3.9123,-3.8854,-3.8854,-3.8854,-3.9008,0.0,0.0,0.0,0.0,0.0,0.0,0.0,0.0,0.0,0.0,0.0,0.0,0.0,0.0,0.0,0.0,0.0,0.0,0.0,0.0,0.0,0.0,0.0,0.0,0.0,-4.1113,-4.1113,-4.1113,-4.1113,-4.1113,-4.1113,-4.1152,-4.1172,-4.1191,-4.1191,-4.1191,-4.1191,-4.1973,-4.2363,-4.2363,-4.3223,-4.3633,-4.3633,-4.3633,-4.3633,-4.3633,-4.3633,-4.3633,-4.3633,-4.3672,-4.3691,-4.3691,-4.3691,-4.3691,-4.3691,-4.3691,-4.3691,-4.3691,-4.3691,-4.3691,-4.3691,-4.3613,-4.3594,-4.3572,-4.3442,-4.338,-4.3361,-4.3361,-4.3349,-4.3121,-4.2277,-4.1389,-4.0731,-4.0773,-4.0658,-4.0545,-4.0688,-4.07,-4.0658,-4.0543,-4.0489,-4.0489,-4.0489,-4.0489,-4.0489,-4.0489,-4.0489,-4.0489,-4.0489,-4.0489,-4.0489,-4.0489,-4.0489,-4.0489,-4.0489,-4.0489,-4.0489,-4.0489,-4.0489,-4.0489,-4.0469,-4.045,-4.0085,-3.9277,-3.9238,-3.8815,-3.7969,-3.7969,-3.7969,-3.7969,-3.7969,-3.843,-1.419,0.0,0.0,0.0,0.0,0.0,0.0,0.0,0.0,0.0,0.0,0.0,0.0,0.0,0.0,0.0,0.0,0.0,0.0,0.0,0.0,0.0,0.0,0.0,0.0,-3.9316,-3.9316,0.0,-3.9316,-3.9316,-3.9316,-3.9922,-4.0547,-4.1172,-4.1191,-4.1191,-4.1191,-4.1426,-4.1523,-4.1523,-4.1777,-4.1894,-4.1894,-4.1894,-4.1894,-4.1894,-4.1894,-4.1894,-4.1992,-4.3203,-4.3691,-4.3691,-4.3691,-4.3691,-4.3691,-4.3691,-4.3691,-4.3691,-4.3691,-4.3691,-4.3691,-4.3672,-4.3672,-4.3672,-4.3624,-4.3188,-4.2661,-4.2622,-4.2149,-4.1586,-4.1256,-4.0965,-4.0787,-4.0795,-4.0831,-4.0847,-4.0786,-4.0761,-4.0716,-4.0543,-4.0489,-4.0489,-4.0489,-4.0489,-4.0489,-4.0489,-4.0489,-4.0489,-4.0489,-4.0489,-4.0489,-4.0489,-4.0489,-4.0489,-4.0489,-4.0489,-4.0489,-4.0489,-4.0489,-4.0239,-3.9662,-3.9623,-3.9219,-3.8373,-3.7738,-3.7296,-3.7065,-3.7065,-3.7065,-3.7065,-3.7065,-3.7526,0.0,0.0,0.0,0.0,0.0,0.0,0.0,-2.237,0.0,0.0,0.0,0.0,0.0,0.0,0.0,0.0,0.0,0.0,0.0,0.0,0.0,0.0,0.0,0.0,-3.8594,-3.8594,-3.8594,-3.8594,-3.8594,-3.8594,-3.8594,-3.9082,-3.959,-4.0098,-4.0469,-4.0664,-4.0664,-4.1016,-4.1191,-4.1191,-4.1191,-4.1191,-4.1191,-4.1191,-4.1191,-4.1191,-4.1191,-4.1191,-4.1289,-4.2246,-4.2656,-4.2656,-4.2656,-4.2656,-4.2656,-4.2656,-4.2656,-4.2656,-4.2656,-4.2656,-4.2656,-4.2656,-4.2656,-4.2656,-4.2656,-4.2305,-4.1894,-4.1855,-4.1472,-4.1081,-4.0983,-4.0925,-4.0905,-4.0952,-4.0934,-4.09,-4.0881,-4.0824,-4.0717,-4.0616,-4.0543,-4.0489,-4.0489,-4.0489,-4.0489,-4.0489,-4.0489,-4.0489,-4.0489,-4.0489,-4.0489,-4.0489,-4.0489,-4.0489,-4.0489,-4.0489,-4.0489,-4.0489,-4.0181,-3.9777,-3.9315,-3.895,-3.8354,-3.7469,-3.6969,-3.6526,-3.6199,-3.6199,-3.6199,-3.6199,-3.6199,-3.6661,0.0,0.0,0.0,0.0,0.0,0.0,-2.2235,-2.3186,0.0,0.0,0.0,0.0,0.0,0.0,0.0,0.0,0.0,0.0,0.0,0.0,0.0,0.0,0.0,0.0,-3.8164,-3.8164,-3.8203,-3.8301,-3.8301,-3.8359,-3.8457,-3.8457,-3.8496,-3.8594,-3.9355,-3.9766,-3.9766,-4.0527,-4.0918,-4.0918,-4.0918,-4.0918,-4.0918,-4.1016,-4.1055,-4.1055,-4.1152,-4.1191,-4.1191,-4.1191,-4.1191,-4.1191,-4.1191,-4.1191,-4.1191,-4.1191,-4.1191,-4.1191,-4.1191,-4.1191,-4.1191,-4.1191,-4.1191,-4.1191,-4.1191,-4.1191,-4.1191,-4.1191,-4.1191,-4.1191,-4.1191,-4.1113,-4.1055,-4.1172,-4.1023,-4.0882,-4.101,-4.0885,-4.0734,-4.0703,-4.06,-4.0489,-4.0489,-4.0489,-4.0489,-4.0489,-4.0489,-4.0489,-4.0489,-4.0489,-4.0489,-4.0489,-4.0489,-4.0489,-4.0489,-4.0412,-4.0354,-4.0354,-3.9604,-3.9104,-3.9008,-3.8277,-3.745,-3.6584,-3.6584,-3.6219,-3.5493,-3.5493,-3.5493,-3.5493,-3.5493,-3.5892,-2.0369,-2.1023,-2.1812,-2.0792,0.0,0.0,-2.1023,-2.1427,0.0,0.0,0.0,0.0,0.0,0.0,0.0,0.0,0.0,0.0,0.0,0.0,0.0,0.0,0.0,0.0,-3.5391,-3.5469,-3.5742,-3.6445,-3.6504,-3.6816,-3.7519,-3.7559,-3.7871,-3.8574,-3.8769,-3.8848,-3.8848,-3.9023,-3.9101,-3.9101,-3.9101,-3.9101,-3.9121,-3.9824,-4.0156,-4.0195,-4.0898,-4.1191,-4.1191,-4.1191,-4.1191,-4.1191,-4.1191,-4.1191,-4.1191,-4.1191,-4.1191,-4.1191,-4.1191,-4.1191,-4.1191,-4.1191,-4.1191,-4.1191,-4.1191,-4.1191,-4.1191,-4.1191,-4.1191,-4.1191,-4.1191,-4.1172,-4.1172,-4.1191,-4.1151,-4.1125,-4.1153,-4.1052,-4.0909,-4.08,-4.0639,-4.0489,-4.0489,-4.0489,-4.0489,-4.0489,-4.0489,-4.0489,-4.0489,-4.0489,-4.0489,-4.0489,-4.0489,-4.0489,-4.0489,-3.9912,-3.9527,-3.9527,-3.8719,-3.795,-3.7238,-3.7046,-3.6584,-3.5757,-3.5738,-3.5661,-3.5493,-3.5493,-3.5493,-3.5493,-3.5493,-3.557,0.0,0.0,-2.3331,-2.2908,0.0,0.0,0.0,0.0,-2.2908,0.0,0.0,0.0,0.0,0.0,0.0,0.0,0.0,0.0,0.0,0.0,0.0,0.0,0.0,0.0,-3.3418,-3.3828,-3.4238,-3.4668,-3.5117,-3.5547,-3.5976,-3.6426,-3.6855,-3.7285,-3.7715,-3.7949,-3.7949,-3.8379,-3.8594,-3.8594,-3.8594,-3.8594,-3.8613,-3.9043,-3.9258,-3.9277,-3.9707,-3.9902,-3.9902,-3.9902,-4.0156,-4.0586,-4.1035,-4.1191,-4.1191,-4.1191,-4.1191,-4.1191,-4.1191,-4.1191,-4.1191,-4.1191,-4.1191,-4.1191,-4.1191,-4.1191,-4.1191,-4.1191,-4.1191,-4.1191,-4.1191,-4.1191,-4.1191,-4.1191,-4.1191,-4.1191,-4.1191,-4.1033,-4.0878,-4.0804,-4.0654,-4.0489,-4.0489,-4.0489,-4.0489,-4.0489,-4.0489,-4.0489,-4.0489,-4.0489,-4.0335,-3.9931,-3.9892,-3.9719,-3.9277,-3.8873,-3.8642,-3.8642,-3.7834,-3.7161,-3.6719,-3.6315,-3.5911,-3.5526,-3.5493,-3.5493,-3.5493,-3.5493,-3.5493,-3.5493,-3.5493,-3.5493,0.0,0.0,0.0,0.0,0.0,-2.4707,0.0,0.0,0.0,-2.4755,0.0,0.0,0.0,0.0,0.0,0.0,0.0,0.0,0.0,0.0,0.0,0.0,0.0,0.0,-3.168,-3.2285,-3.2871,-3.3359,-3.375,-3.4101,-3.4434,-3.5273,-3.5742,-3.5742,-3.6601,-3.7051,-3.7051,-3.7754,-3.8105,-3.8105,-3.8105,-3.8105,-3.8105,-3.8262,-3.8359,-3.8359,-3.8535,-3.8594,-3.8594,-3.8594,-3.9004,-3.9746,-4.0605,-4.1055,-4.1191,-4.1191,-4.1191,-4.1191,-4.1191,-4.1191,-4.1191,-4.1191,-4.1191,-4.1191,-4.1191,-4.1191,-4.1191,-4.1191,-4.1191,-4.1191,-4.1191,-4.1191,-4.1191,-4.1191,-4.1191,-4.1191,-4.1191,-4.1026,-4.085,-4.0809,-4.0662,-4.0562,-4.0508,-4.0489,-4.0489,-4.0489,-4.0489,-4.0431,-4.0277,-4.0258,-3.995,-3.9142,-3.9046,-3.8757,-3.8065,-3.7853,-3.7757,-3.7757,-3.6949,-3.6469,-3.6469,-3.5853,-3.5493,-3.5493,-3.5493,-3.5493,-3.5493,-3.5493,-3.5493,-3.5493,-3.5493,-3.5493,0.0,0.0,0.0,0.0,-2.6967,0.0,0.0,0.0,-2.4774,-2.337,0.0,0.0,0.0,0.0,0.0,0.0,0.0,0.0,0.0,0.0,0.0,0.0,0.0,-2.9043,-2.9824,-2.998,-3.0976,-3.3223,-3.2129,-3.1973,-3.3476,-3.4375,-3.4844,-3.4844,-3.5684,-3.6152,-3.6152,-3.625,-3.6309,-3.6309,-3.6309,-3.6309,-3.6328,-3.7109,-3.7441,-3.748,-3.8262,-3.8594,-3.8594,-3.8594,-3.8652,-3.8828,-3.9707,-4.0527,-4.1191,-4.1191,-4.1191,-4.1191,-4.1191,-4.1191,-4.1191,-4.1191,-4.1191,-4.1191,-4.1191,-4.1191,-4.1191,-4.1191,-4.1191,-4.1191,-4.1191,-4.1191,-4.1191,-4.1191,-4.1191,-4.1191,-4.1191,-4.1171,-4.1081,-4.0842,-4.0785,-4.0716,-4.0543,-4.0489,-4.0489,-4.0489,-4.0489,-4.0239,-3.9527,-3.9431,-3.9104,-3.8238,-3.8142,-3.8104,-3.8007,-3.7296,-3.6853,-3.6853,-3.6103,-3.5641,-3.5641,-3.5565,-3.5493,-3.5493,-3.5493,-3.5493,-3.5493,-3.5493,-3.5493,-3.5493,-3.5493,-3.5493,0.0,0.0,0.0,0.0,0.0,0.0,-2.5793,0.0,-2.5245,0.0,0.0,0.0,0.0,0.0,0.0,0.0,0.0,0.0,0.0,0.0,0.0,0.0,0.0,0.0,-2.7969,-2.7637,-2.8203,-3.0273,-2.9316,-2.9609,-3.1836,-3.2773,-3.3691,-3.4668,-3.5059,-3.5488,-3.5996,-3.5996,-3.5996,-3.5996,-3.5996,-3.5996,-3.6016,-3.6387,-3.6543,-3.6562,-3.6934,-3.709,-3.709,-3.709,-3.7383,-3.7871,-3.8242,-3.8926,-3.9687,-3.9687,-3.9687,-3.9687,-3.9687,-4.0019,-4.0527,-4.1035,-4.1191,-4.1191,-4.1191,-4.1191,-4.1191,-4.1191,-4.1191,-4.1191,-4.1191,-4.1191,-4.1191,-4.1191,-4.1191,-4.1191,-4.1191,-4.1133,-4.1023,-4.084,-4.0764,-4.0543,-3.9912,-4.0181,-4.0489,-4.0489,-4.0085,-3.9681,-3.9335,-3.8854,-3.82,-3.7334,-3.7257,-3.7065,-3.6603,-3.6219,-3.6007,-3.6007,-3.5699,-3.5493,-3.5493,-3.5493,-3.5493,-3.5493,-3.5493,-3.5493,-3.5493,-3.5493,-3.5493,-3.5493,-3.5493,-3.5493,-2.6236,0.0,0.0,0.0,0.0,0.0,0.0,0.0,0.0,0.0,0.0,0.0,0.0,0.0,0.0,0.0,0.0,0.0,0.0,0.0,0.0,0.0,0.0,0.0,0.0,-2.5078,-2.5312,-2.7754,-2.6699,-2.7187,-3.0039,-3.123,-3.2402,-3.3613,-3.4336,-3.5,-3.5644,-3.5879,-3.5996,-3.5996,-3.5996,-3.5996,-3.5996,-3.5996,-3.5996,-3.5996,-3.5996,-3.5996,-3.5996,-3.5996,-3.6367,-3.6934,-3.6934,-3.7324,-3.7949,-3.8418,-3.8594,-3.8594,-3.8594,-3.9004,-3.9648,-4.0273,-4.0488,-4.0488,-4.0488,-4.0488,-4.0547,-4.0781,-4.084,-4.084,-4.084,-4.084,-4.0781,-4.0547,-4.0488,-4.0488,-4.0488,-4.041,-4.0306,-4.0143,-4.0072,-3.9811,-3.9065,-3.9623,-4.0085,-3.9854,-3.9315,-3.8854,-3.8623,-3.8046,-3.7315,-3.6469,-3.6372,-3.6142,-3.5565,-3.5493,-3.5493,-3.5493,-3.5493,-3.5493,-3.5493,-3.5493,-3.5493,-3.5493,-3.5493,-3.5493,-3.5493,-3.5493,-3.5493,-3.5493,-3.5493,-3.5493,0.0,0.0,0.0,-2.6813,0.0,0.0,0.0,0.0,-2.6332,0.0,0.0,0.0,0.0,0.0,0.0,0.0,0.0,0.0,0.0,0.0,0.0,0.0,0.0,0.0,0.0,-2.2227,-2.2519,0.0,-2.4668,-2.4727,-2.8203,-3.0019,-3.0976,-3.1016,-3.3418,-3.4707,-3.4746,-3.5586,-3.5996,-3.5996,-3.5996,-3.5996,-3.5996,-3.5996,-3.5996,-3.5996,-3.5996,-3.5996,-3.5996,-3.5996,-3.6016,-3.6035,-3.6035,-3.6055,-3.6289,-3.7988,-3.8594,-3.8594,-3.8594,-3.8613,-3.8652,-3.8672,-3.8672,-3.8672,-3.8672,-3.8672,-3.8867,-3.9707,-3.9941,-3.9941,-3.9941,-3.9941,-3.9726,-3.8887,-3.8672,-3.8672,-3.8672,-3.8672,-3.8628,-3.8422,-3.838,-3.831,-3.8084,-3.8757,-3.9046,-3.82,-3.8065,-3.7738,-3.6892,-3.6757,-3.643,-3.5608,-3.5545,-3.5532,-3.5493,-3.5493,-3.5493,-3.5493,-3.5493,-3.5493,-3.5493,-3.5493,-3.5493,-3.5493,-3.5493,-3.5493,-3.5493,-3.5493,-3.5493,-3.5493,-3.5493,-3.5493,0.0,0.0,-2.8352,-2.6948,0.0,0.0,0.0,0.0,0.0,0.0,0.0,0.0,0.0,0.0,0.0,0.0,0.0,0.0,0.0,0.0,0.0,0.0,0.0,0.0,0.0,0.0,0.0,0.0,-2.3125,0.0,-2.7266,-2.8555,-2.9707,-3.0859,-3.2305,-3.3301,-3.3828,-3.4121,-3.457,-3.5137,-3.5137,-3.5449,-3.5996,-3.5996,-3.5996,-3.5996,-3.5996,-3.5996,-3.5996,-3.5996,-3.5996,-3.5996,-3.5996,-3.5996,-3.6074,-3.666,-3.6875,-3.6953,-3.7539,-3.7734,-3.7832,-3.8418,-3.8594,-3.8594,-3.8594,-3.8594,-3.8652,-3.8965,-3.9043,-3.9043,-3.9043,-3.9043,-3.8965,-3.8672,-3.8594,-3.8594,-3.8594,-3.8594,-3.8554,-3.8407,-3.8372,-3.8127,-3.7411,-3.7512,-3.7796,-3.7969,-3.7507,-3.7026,-3.6738,-3.6238,-3.5815,-3.5532,-3.5493,-3.5493,-3.5493,-3.5493,-3.5493,-3.5493,-3.5493,-3.5493,-3.5493,-3.5493,-3.5493,-3.5493,-3.5493,-3.5493,-3.5493,-3.5493,-3.5493,-3.5493,-3.5565,-3.5545,-2.8409,-2.8698,0.0,-2.7439,-2.7516,0.0,-2.613,0.0,0.0,0.0,0.0,0.0,0.0,0.0,0.0,0.0,0.0,0.0,0.0,0.0,0.0,0.0,0.0,0.0,0.0,0.0,-1.9863,-2.2539,-2.1641,0.0,0.0,-2.7207,-2.8496,-2.9922,-3.1113,-3.2148,-3.2969,-3.3262,-3.3672,-3.4238,-3.4238,-3.4531,-3.5098,-3.5391,-3.5547,-3.5547,-3.5879,-3.5996,-3.5996,-3.5996,-3.5996,-3.5996,-3.5996,-3.5996,-3.5996,-3.5996,-3.5996,-3.6074,-3.6641,-3.6836,-3.6934,-3.748,-3.7676,-3.7676,-3.7676,-3.7676,-3.7734,-3.8047,-3.8144,-3.8144,-3.8144,-3.8144,-3.8066,-3.7754,-3.7676,-3.7676,-3.7676,-3.7676,-3.7637,-3.7539,-3.7513,-3.7279,-3.6554,-3.6433,-3.6589,-3.7046,-3.6642,-3.6276,-3.6276,-3.5834,-3.5493,-3.5493,-3.5493,-3.5493,-3.5493,-3.5493,-3.5493,-3.5493,-3.5493,-3.5493,-3.5493,-3.5493,-3.5526,-3.5545,-3.5545,-3.5545,-3.5545,-3.5545,-3.5545,-3.5545,-3.5584,-3.5586]}]]